Date StartTime U_cm/s V_cm/s W_cm/s Ustd_cm/s Vstd_cm/s Wstd_cm/s Uvar_(cm/s)^2 Vvar_(cm/s)^2 Wvar_(cm/s)^2 KE_(m/s)^2 TurbulentKE_(m/s)^2 HorizWindSpeed_cm/s FrictionSpeec_cm/s DragCoef SpeedOfSound_m/s SonicTemperature_C Pressure_mb 
06/30/2014  00:00:00       45.626      -64.287       13.630       45.879       63.620       31.672     2104.903     4047.447     1003.139        0.678        0.358       78.832       26.176        0.110      347.460       26.447      861.803
06/30/2014  00:01:00       16.803       29.368       12.022       19.499       18.548       22.208      380.230      344.027      493.186        0.125        0.061       33.835       16.001        0.224      346.910       25.498      861.832
06/30/2014  00:02:00      -81.565       61.303      -13.493       56.210       32.785       20.070     3159.514     1074.889      402.810        0.761        0.232      102.034       16.827        0.027      347.210       26.015      861.881
06/30/2014  00:03:00     -182.794      124.073      -39.468       37.628       44.590       34.490     1415.897     1988.266     1189.586        2.748        0.230      220.925       29.312        0.018      346.960       25.581      861.908
06/30/2014  00:04:00     -125.418       76.769      -16.260       37.962       50.112       23.641     1441.087     2511.225      558.909        1.320        0.226      147.049       19.556        0.018      346.775       25.265      861.924
06/30/2014  00:05:00     -111.780      -19.335      -14.258       31.506       36.229       12.400      992.619     1312.530      153.762        0.777        0.123      113.440       10.489        0.009      346.835       25.367      861.932
06/30/2014  00:06:00     -169.881      -69.945       -7.522       40.177       36.769       25.645     1614.198     1351.961      657.666        1.872        0.181      183.717       22.320        0.015      346.719       25.168      861.919
06/30/2014  00:07:00      -30.553      -33.656        0.260       60.553       49.160       23.352     3666.605     2416.678      545.315        0.435        0.331       45.455       25.773        0.321      347.494       26.505      861.884
06/30/2014  00:08:00        6.470     -128.360        8.067       71.270       71.261       36.596     5079.454     5078.078     1339.236        1.404        0.575      128.523       22.462        0.031      347.173       25.950      861.825
06/30/2014  00:09:00     -104.703      -91.003       -4.157       59.813       45.651       24.139     3577.611     2084.014      582.693        1.275        0.312      138.724       10.932        0.006      347.829       27.081      861.804
06/30/2014  00:10:00      -59.337       25.883      -29.643       56.487       65.194       24.720     3190.784     4250.264      611.087        0.656        0.403       64.736       21.221        0.107      347.810       27.049      861.802
06/30/2014  00:11:00     -141.108      124.189      -21.417       84.186       94.510       50.255     7087.202     8932.075     2525.531        2.717        0.927      187.974       45.885        0.060      346.834       25.365      861.845
06/30/2014  00:12:00     -111.861      -14.594      -21.812       53.689       62.860       35.502     2882.498     3951.342     1260.403        1.065        0.405      112.809       23.584        0.044      346.587       24.943      861.851
06/30/2014  00:13:00     -118.787       33.111       -6.417       55.729       48.145       32.707     3105.694     2317.948     1069.745        1.087        0.325      123.315       19.528        0.025      346.509       24.808      861.847
06/30/2014  00:14:00      -91.757       20.686      -12.792       39.596       47.498       21.883     1567.850     2256.027      478.884        0.666        0.215       94.060       16.749        0.032      346.462       24.727      861.842
06/30/2014  00:15:00     -117.431      -64.350      -19.339       44.888       42.217       30.678     2014.972     1782.268      941.143        1.152        0.237      133.907       20.946        0.024      346.425       24.664      861.842
06/30/2014  00:16:00     -117.256      -52.512       -6.409       47.965       34.881       25.306     2300.647     1216.685      640.384        1.035        0.208      128.478       25.928        0.041      346.359       24.551      861.834
06/30/2014  00:17:00      -43.545      -14.548       12.895       26.414       41.172       18.253      697.678     1695.172      333.181        0.250        0.136       45.911       19.613        0.182      346.426       24.664      861.842
06/30/2014  00:18:00        7.447       66.068       -2.172       41.801       65.660       30.290     1747.321     4311.281      917.468        0.570        0.349       66.486       35.993        0.293      346.497       24.788      861.860
06/30/2014  00:19:00      -22.816      136.305      -24.476       26.568       22.197       11.555      705.839      492.706      133.510        1.052        0.067      138.202        6.614        0.002      346.720       25.170      861.900
06/30/2014  00:20:00      -53.905       32.600      -11.405       19.204       27.690       14.048      368.804      766.724      197.354        0.272        0.067       62.996       12.278        0.038      346.532       24.847      861.924
06/30/2014  00:21:00      -69.432      -14.061       -4.636       32.633       17.554       11.085     1064.896      308.155      122.883        0.327        0.075       70.842       11.797        0.028      346.678       25.097      861.938
06/30/2014  00:22:00       12.721     -110.018      -10.304       21.852       38.796       13.741      477.527     1505.127      188.807        0.727        0.109      110.751        5.316        0.002      346.678       25.098      861.923
06/30/2014  00:23:00      -32.648     -138.151       -6.472       22.203       24.739       21.006      492.958      612.021      441.248        1.087        0.077      141.956        8.438        0.004      346.989       25.634      861.915
06/30/2014  00:24:00        5.630      -27.332       11.432       23.717       43.352       17.582      562.514     1879.379      309.118        0.183        0.138       27.906       22.394        0.644      346.658       25.064      861.936
06/30/2014  00:25:00       -5.389       91.964      -11.957       20.740       49.105       24.613      430.131     2411.322      605.799        0.604        0.172       92.122       31.225        0.115      346.381       24.589      861.991
06/30/2014  00:26:00       -7.074       74.297      -14.757        9.453       26.010        8.997       89.354      676.519       80.937        0.332        0.042       74.633       12.076        0.026      346.393       24.608      862.031
06/30/2014  00:27:00      -27.367      -33.232      -11.460       16.253       29.697       12.670      264.169      881.933      160.518        0.165        0.065       43.051       13.103        0.093      346.442       24.693      862.036
06/30/2014  00:28:00       -9.940      -51.406       -8.288       28.319       31.759       24.740      801.989     1008.626      612.046        0.262        0.121       52.359       17.084        0.106      346.391       24.605      862.033
06/30/2014  00:29:00       -0.839      -66.826       -1.640       17.946       25.279       11.782      322.052      639.014      138.805        0.278        0.055       66.831        9.714        0.021      346.543       24.866      862.007
06/30/2014  00:30:00        9.650        5.027        6.979       17.974       14.932       16.060      323.052      222.969      257.939        0.049        0.040       10.881        9.969        0.839      346.411       24.639      861.986
06/30/2014  00:31:00      -16.010       30.704       23.360       41.277       30.620       38.193     1703.819      937.559     1458.720        0.292        0.205       34.627       24.502        0.501      346.553       24.882      861.981
06/30/2014  00:32:00      -89.254       -8.007       -1.222       45.575       33.554       23.802     2077.077     1125.896      566.523        0.590        0.188       89.613       20.808        0.054      346.400       24.620      862.002
06/30/2014  00:33:00     -110.618       -8.671       -1.251       90.754       54.237       39.421     8236.371     2941.651     1554.048        1.252        0.637      110.957       45.942        0.171      346.110       24.121      862.032
06/30/2014  00:34:00     -101.629      -31.328        4.392       69.205       49.953       33.410     4789.288     2495.331     1116.206        0.986        0.420      106.348       37.568        0.125      346.085       24.078      862.014
06/30/2014  00:35:00      -76.981      -57.678        3.632       54.155       32.159       20.385     2932.728     1034.174      415.541        0.682        0.219       96.192       19.477        0.041      346.585       24.939      861.965
06/30/2014  00:36:00      -71.046       69.912       -5.744       66.124       74.119       32.277     4372.428     5493.553     1041.777        1.044        0.545       99.675       49.413        0.246      346.293       24.437      861.959
06/30/2014  00:37:00     -145.647       73.879      -21.239       44.134       45.363       25.921     1947.786     2057.843      671.907        1.590        0.234      163.313       17.517        0.012      346.279       24.412      861.989
06/30/2014  00:38:00     -178.225      -50.652       -8.795       37.419       55.495       22.764     1400.201     3079.749      518.192        1.970        0.250      185.283       16.065        0.008      346.449       24.702      861.989
06/30/2014  00:39:00     -163.763      -51.043       -7.270       39.697       27.825       23.622     1575.825      774.249      558.002        1.619        0.145      171.533       18.999        0.012      346.342       24.522      861.986
06/30/2014  00:40:00     -123.464      -53.409        3.881       40.770       43.314       27.105     1662.171     1876.130      734.691        1.119        0.214      134.521       20.137        0.022      346.227       24.324      861.980
06/30/2014  00:41:00     -162.103      -43.467       -6.886       54.619       50.532       25.649     2983.249     2553.437      657.855        1.720        0.310      167.829       27.739        0.027      346.273       24.400      861.969
06/30/2014  00:42:00     -119.778      -66.003        1.507       30.610       33.884       23.324      936.965     1148.119      544.013        1.067        0.131      136.759       18.699        0.019      346.304       24.456      861.975
06/30/2014  00:43:00      -99.843      -48.383        0.691       41.840       38.553       24.319     1750.595     1486.342      591.424        0.807        0.191      110.948       23.310        0.044      346.228       24.325      861.997
06/30/2014  00:44:00      -83.141      -57.654        2.702       44.437       51.111       27.468     1974.619     2612.327      754.516        0.779        0.267      101.176       27.386        0.073      346.320       24.482      861.999
06/30/2014  00:45:00      -76.265      -67.368       -3.642       32.596       32.283       21.274     1062.526     1042.209      452.569        0.646        0.128      101.759       17.478        0.030      346.404       24.627      861.999
06/30/2014  00:46:00      -89.893      -54.439       -0.089       41.209       29.516       26.434     1698.149      871.169      698.734        0.716        0.163      105.093       26.381        0.063      346.305       24.458      862.009
06/30/2014  00:47:00      -74.511      -68.877        2.165       47.004       39.235       27.322     2209.354     1539.388      746.512        0.740        0.225      101.469       24.829        0.060      346.189       24.256      862.019
06/30/2014  00:48:00      -44.306      -40.422        6.295       49.839       46.496       28.180     2483.951     2161.903      794.107        0.454        0.272       59.975       32.461        0.293      346.054       24.026      862.020
06/30/2014  00:49:00      -98.770      -59.322       -0.149       53.569       38.770       27.084     2869.663     1503.096      733.533        0.919        0.255      115.216       22.192        0.037      346.037       23.997      862.017
06/30/2014  00:50:00      -92.975       -6.796       -2.944       31.974       28.827       18.447     1022.328      831.007      340.301        0.545        0.110       93.223       16.428        0.031      345.995       23.924      862.016
06/30/2014  00:51:00      -97.370      -37.915       -7.987       34.842       19.030       14.419     1213.999      362.141      207.919        0.638        0.089      104.491       14.058        0.018      345.994       23.922      862.011
06/30/2014  00:52:00      -65.415      -26.691       -7.558       22.124       18.786       13.303      489.486      352.919      176.977        0.303        0.051       70.651       10.805        0.023      345.992       23.917      862.007
06/30/2014  00:53:00      -97.476      -57.416        1.989       45.355       41.964       25.256     2057.053     1760.951      637.888        0.863        0.223      113.129       19.777        0.031      345.957       23.860      861.995
06/30/2014  00:54:00      -89.500      -51.219       -8.414       52.305       38.868       23.042     2735.785     1510.722      530.955        0.774        0.239      103.119       18.089        0.031      345.842       23.662      861.989
06/30/2014  00:55:00      -86.140      -39.179       -3.713       47.382       39.868       24.333     2245.032     1589.488      592.106        0.670        0.221       94.632       22.615        0.057      345.779       23.556      861.987
06/30/2014  00:56:00      -76.566      -27.841       -4.518       28.795       26.208       17.491      829.164      686.854      305.947        0.424        0.091       81.470       14.804        0.033      345.680       23.385      861.996
06/30/2014  00:57:00     -115.104      -21.517      -11.468       28.610       31.490       19.992      818.546      991.605      399.665        0.803        0.110      117.097       17.448        0.022      345.648       23.330      861.997
06/30/2014  00:58:00     -134.259      -45.470       -7.142       35.464       41.704       23.933     1257.708     1739.235      572.776        1.186        0.178      141.750        8.834        0.004      345.647       23.327      862.003
06/30/2014  00:59:00     -104.817       38.681      -10.374       42.192       27.434       22.229     1780.196      752.598      494.137        0.781        0.151      111.726       17.040        0.023      345.628       23.293      862.024
06/30/2014  01:00:00      -56.687        8.101      -10.179       14.052       16.981       11.219      197.450      288.340      125.870        0.200        0.031       57.262        8.405        0.022      345.666       23.358      862.043
06/30/2014  01:01:00      -26.193      -33.997        1.472       33.845       21.635       20.159     1145.486      468.061      406.382        0.193        0.101       42.917       10.092        0.055      345.620       23.279      862.051
06/30/2014  01:02:00      -82.711      -14.471      -10.536       25.146       23.938       18.351      632.319      573.031      336.750        0.435        0.077       83.968       12.193        0.021      345.680       23.382      862.049
06/30/2014  01:03:00      -73.095      -27.124       -6.391       25.880       36.574       16.283      669.757     1337.677      265.143        0.420        0.114       77.965       15.362        0.039      345.659       23.347      862.044
06/30/2014  01:04:00      -85.931      -41.776        0.430       38.811       27.811       18.807     1506.276      773.466      353.696        0.588        0.132       95.548       18.242        0.036      345.646       23.324      862.051
06/30/2014  01:05:00      -88.280        2.101       -0.331       39.696       40.563       22.608     1575.754     1645.386      511.142        0.576        0.187       88.305       21.516        0.059      345.626       23.290      862.071
06/30/2014  01:06:00     -111.171       42.461       -4.483       34.748       30.724       24.873     1207.454      943.992      618.650        0.848        0.139      119.004       15.729        0.017      345.670       23.365      862.080
06/30/2014  01:07:00      -29.075       60.209       -0.284       41.767       42.279       29.129     1744.478     1787.519      848.488        0.442        0.219       66.861       25.509        0.146      345.569       23.192      862.092
06/30/2014  01:08:00      -95.283       61.911      -24.305       36.320       41.418       26.796     1319.172     1715.437      718.004        0.863        0.188      113.630       26.039        0.053      345.660       23.349      862.108
06/30/2014  01:09:00      -40.294      -20.525        1.449       24.153       18.619       19.791      583.358      346.661      391.669        0.168        0.066       45.220       15.036        0.111      345.616       23.276      862.107
06/30/2014  01:10:00      -10.378       -4.525        3.694       22.833       19.780       11.851      521.341      391.255      140.456        0.060        0.053       11.321       13.925        1.513      345.559       23.177      862.104
06/30/2014  01:11:00       -7.290       25.136       -0.814       29.440       17.075       12.675      866.692      291.543      160.648        0.100        0.066       26.172        8.025        0.094      345.624       23.289      862.090
06/30/2014  01:12:00      -53.147       66.990       -6.436       34.711       25.710       19.097     1204.836      661.019      364.684        0.479        0.112       85.511       12.881        0.023      345.681       23.385      862.081
06/30/2014  01:13:00        8.083       45.758        9.211       28.816       29.747       24.021      830.366      884.898      576.990        0.227        0.115       46.467       25.995        0.313      345.542       23.148      862.074
06/30/2014  01:14:00       -1.146       91.100      -19.359       18.675       30.171        9.360      348.764      910.279       87.605        0.501        0.067       91.107       13.529        0.022      345.450       22.989      862.064
06/30/2014  01:15:00      -19.371      136.176      -21.469       12.599       14.621        7.463      158.743      213.767       55.697        0.990        0.021      137.546        2.779        0.000      345.548       23.156      862.059
06/30/2014  01:16:00        6.356      111.087      -10.892       27.008       25.052       15.364      729.406      627.609      236.067        0.705        0.080      111.268       12.377        0.012      345.541       23.144      862.061
06/30/2014  01:17:00       -8.338       85.287      -18.196       26.757       24.019       12.559      715.932      576.909      157.737        0.456        0.073       85.694       11.192        0.017      345.529       23.124      862.062
06/30/2014  01:18:00        4.756       29.838       -1.255       41.002       21.996       16.003     1681.124      483.824      256.109        0.167        0.121       30.215       17.897        0.351      345.409       22.919      862.051
06/30/2014  01:19:00      -27.090       48.651      -15.378       16.567       22.487       11.403      274.450      505.660      130.031        0.212        0.046       55.685       10.154        0.033      345.403       22.908      862.061
06/30/2014  01:20:00       -3.906       49.880       -7.627       14.295       17.894       12.903      204.337      320.204      166.481        0.163        0.035       50.033        7.723        0.024      345.466       23.018      862.076
06/30/2014  01:21:00       16.811       53.248      -12.678       17.050       16.664       12.168      290.705      277.684      148.071        0.200        0.036       55.839        8.205        0.022      345.388       22.882      862.084
06/30/2014  01:22:00       34.922       40.710       -1.477       15.936       14.138        8.198      253.964      199.871       67.209        0.170        0.026       53.636        5.029        0.009      345.364       22.840      862.092
06/30/2014  01:23:00       57.125       28.089       -1.517       10.222       11.691        7.938      104.499      136.688       63.010        0.218        0.015       63.657        5.851        0.008      345.528       23.122      862.093
06/30/2014  01:24:00       31.798       24.963        3.480       11.326       10.048       11.193      128.289      100.971      125.273        0.100        0.018       40.426        4.891        0.015      345.342       22.804      862.103
06/30/2014  01:25:00       -5.287       27.735       -5.131       23.054       21.246       10.998      531.502      451.395      120.961        0.096        0.055       28.234       12.964        0.211      345.340       22.800      862.111
06/30/2014  01:26:00      -17.992       14.929       -9.568       14.305       25.276       10.765      204.626      638.853      115.888        0.080        0.048       23.379       12.020        0.264      345.403       22.909      862.130
06/30/2014  01:27:00       -0.621       35.627       -9.719       15.605       24.442        8.263      243.515      597.419       68.277        0.114        0.045       35.633        4.510        0.016      345.502       23.077      862.121
06/30/2014  01:28:00       26.686       39.558        0.816       16.279       12.232       16.537      265.013      149.617      273.464        0.148        0.034       47.717       10.056        0.044      345.561       23.180      862.111
06/30/2014  01:29:00      -15.258       63.281      -13.949       20.653       32.927       12.783      426.563     1084.212      163.394        0.305        0.084       65.095        8.084        0.015      345.700       23.419      862.125
06/30/2014  01:30:00      -18.525       38.247      -12.485       20.860       26.727       13.850      435.143      714.317      191.834        0.165        0.067       42.497       10.585        0.062      345.609       23.261      862.124
06/30/2014  01:31:00       -3.775       49.096       -6.222       13.818       23.821       10.848      190.931      567.464      117.679        0.167        0.044       49.241        9.405        0.036      345.821       23.624      862.109
06/30/2014  01:32:00      -66.180      -51.069        2.131       90.800       72.496       35.368     8244.723     5255.705     1250.915        1.087        0.738       83.593       33.624        0.162      345.414       22.928      862.097
06/30/2014  01:33:00        5.390      -12.134       43.138       34.180       56.372       28.465     1168.305     3177.747      810.253        0.360        0.258       13.278       21.146        2.536      345.357       22.831      862.110
06/30/2014  01:34:00      -49.963       46.367       -0.197       41.761       27.932       21.808     1743.981      780.219      475.609        0.382        0.150       68.163       27.647        0.165      345.013       22.240      862.128
06/30/2014  01:35:00      -69.801       35.781       -6.371       25.155       20.245       15.106      632.788      409.845      228.177        0.373        0.064       78.438       11.929        0.023      345.087       22.367      862.136
06/30/2014  01:36:00     -110.066       43.019      -19.927       33.668       32.165       16.878     1133.555     1034.594      284.853        0.841        0.123      118.174        9.538        0.007      345.247       22.641      862.150
06/30/2014  01:37:00      -43.423       67.189       -9.402       32.171       37.851       11.056     1034.967     1432.714      122.236        0.454        0.129       79.999        7.261        0.008      345.330       22.783      862.169
06/30/2014  01:38:00      -85.021      -30.401      -14.858       41.016       25.047       15.582     1682.329      627.346      242.809        0.546        0.128       90.293       12.394        0.019      345.531       23.129      862.171
06/30/2014  01:39:00       -2.111     -118.323       -2.513       25.980       25.073       17.638      674.966      628.680      311.100        0.781        0.081      118.342       15.363        0.017      345.422       22.940      862.153
06/30/2014  01:40:00      -22.178      -11.802       11.658       60.476       52.056       26.587     3657.287     2709.798      706.890        0.392        0.354       25.123       35.435        1.989      345.734       23.476      862.139
06/30/2014  01:41:00     -128.348       10.310      -14.837       37.225       27.722       14.778     1385.668      768.499      218.398        0.959        0.119      128.761       18.919        0.022      345.076       22.348      862.163
06/30/2014  01:42:00     -111.021       -6.531       -9.100       45.853       20.925       17.237     2102.469      437.850      297.122        0.764        0.142      111.213       19.516        0.031      344.965       22.159      862.178
06/30/2014  01:43:00      -67.093      -28.978        1.562       44.206       24.459       11.888     1954.151      598.231      141.332        0.402        0.135       73.084       15.162        0.043      344.912       22.067      862.179
06/30/2014  01:44:00      -58.940      -63.199       -2.951       23.524       30.042       15.613      553.377      902.509      243.752        0.459        0.085       86.418       13.435        0.024      345.370       22.851      862.175
06/30/2014  01:45:00      -21.715      -63.231       -0.025       36.220       24.022       19.528     1311.869      577.053      381.355        0.337        0.114       66.856       11.842        0.031      345.283       22.702      862.168
06/30/2014  01:46:00      -28.492      -61.461        6.403       36.456       32.311       18.506     1329.030     1044.005      342.461        0.367        0.136       67.744       18.231        0.072      345.225       22.603      862.175
06/30/2014  01:47:00      -22.175      -74.836        6.859       38.944       42.995       22.293     1516.629     1848.531      496.986        0.500        0.193       78.052       16.030        0.042      345.270       22.681      862.180
06/30/2014  01:48:00      -11.694      -78.841        9.775       35.209       37.779       17.468     1239.645     1427.245      305.114        0.471        0.149       79.703       14.327        0.032      345.214       22.584      862.184
06/30/2014  01:49:00       -7.512       -6.597       11.071       29.860       49.860       19.840      891.613     2486.027      393.617        0.200        0.189        9.998       20.909        4.374      345.130       22.441      862.196
06/30/2014  01:50:00       11.170       48.098       42.832       27.936       28.759       18.466      780.426      827.090      340.996        0.311        0.097       49.378       12.620        0.065      344.873       22.000      862.212
06/30/2014  01:51:00       41.155       34.099       38.130       31.642       27.471       20.502     1001.243      754.656      420.348        0.324        0.109       53.445       12.174        0.052      344.827       21.923      862.220
06/30/2014  01:52:00       65.253       42.455       20.541       29.484       25.633       22.256      869.320      657.041      495.308        0.425        0.101       77.849       14.097        0.033      344.657       21.631      862.224
06/30/2014  01:53:00       61.238       21.275       18.257       20.646       18.129       24.796      426.274      328.659      614.846        0.295        0.068       64.828       14.599        0.051      344.663       21.642      862.234
06/30/2014  01:54:00       24.393       22.361       27.325       24.460       18.247       21.305      598.294      332.937      453.899        0.161        0.069       33.091       18.410        0.309      344.596       21.528      862.241
06/30/2014  01:55:00       23.451       23.147       37.346       21.982       17.047       11.843      483.190      290.598      140.265        0.170        0.046       32.950        9.254        0.079      344.721       21.740      862.238
06/30/2014  01:56:00        7.043       17.271       30.807       13.580       17.313       10.321      184.406      299.739      106.515        0.094        0.030       18.652        5.252        0.079      344.848       21.957      862.244
06/30/2014  01:57:00      -19.546      -32.245        3.361       25.434       12.999       13.379      646.887      168.980      178.985        0.121        0.050       37.707       13.143        0.121      344.931       22.100      862.256
06/30/2014  01:58:00      -77.018      -34.436       -8.260       14.721        9.959        6.092      216.711       99.190       37.118        0.377        0.018       84.365        3.032        0.001      344.899       22.046      862.261
06/30/2014  01:59:00      -50.532      -52.138       -7.376       13.024       15.274        8.486      169.622      233.290       72.014        0.290        0.024       72.607        4.646        0.004      345.047       22.298      862.260
06/30/2014  02:00:00      -61.558      -45.778       -5.861       21.618       16.384       15.042      467.329      268.439      226.268        0.344        0.048       76.714       12.421        0.026      345.070       22.337      862.269
06/30/2014  02:01:00      -94.067      -66.184        0.232       76.195       43.199       30.075     5805.744     1866.164      904.513        1.090        0.429      115.017       35.699        0.096      344.812       21.896      862.270
06/30/2014  02:02:00     -136.263      -82.314       -8.634       47.758       40.884       25.323     2280.803     1671.499      641.274        1.500        0.230      159.196       19.850        0.016      344.924       22.088      862.274
06/30/2014  02:03:00     -102.314      -48.534       -5.442       45.498       35.381       21.837     2070.085     1251.800      476.856        0.833        0.190      113.242       11.543        0.010      344.882       22.014      862.277
06/30/2014  02:04:00      -67.030      -40.879       10.052       61.167       36.692       25.343     3741.341     1346.284      642.247        0.600        0.286       78.512       28.469        0.131      344.802       21.880      862.282
06/30/2014  02:05:00     -140.049      -63.148      -13.557       25.940       22.370       13.032      672.889      500.420      169.828        1.256        0.067      153.627        6.884        0.002      344.844       21.952      862.275
06/30/2014  02:06:00      -78.406      -48.713       -3.823       26.365       22.333       16.086      695.098      498.754      258.756        0.499        0.073       92.306       11.783        0.016      344.786       21.851      862.278
06/30/2014  02:07:00      -58.539      -46.669       -7.323       25.828       24.722       19.773      667.097      611.195      390.972        0.366        0.083       74.865       15.701        0.044      344.747       21.785      862.288
06/30/2014  02:08:00      -68.417      -21.367       -3.418       17.209       16.440       14.537      296.163      270.263      211.314        0.296        0.039       71.676       10.795        0.023      344.841       21.947      862.277
06/30/2014  02:09:00      -39.649        9.932       -4.643       19.133       20.998        9.840      366.077      440.904       96.833        0.130        0.045       40.874        9.091        0.049      344.703       21.711      862.275
06/30/2014  02:10:00      -41.275       -1.749       -1.849       12.129       20.824        6.945      147.109      433.652       48.239        0.117        0.031       41.312        9.338        0.051      344.709       21.723      862.297
06/30/2014  02:11:00      -45.067      -26.586       -1.350       26.208       15.199        9.424      686.852      231.020       88.810        0.187        0.050       52.324       10.244        0.038      344.711       21.725      862.310
06/30/2014  02:12:00      -49.202      -29.376       -0.808       14.949       13.534       10.320      223.466      183.179      106.493        0.190        0.026       57.304        5.742        0.010      344.662       21.639      862.320
06/30/2014  02:13:00        1.416      -11.195        9.803       15.151       15.807        9.642      229.553      249.852       92.962        0.040        0.029       11.284       10.713        0.901      344.576       21.494      862.332
06/30/2014  02:14:00        3.399       -5.717       -9.523        9.562       10.529        7.803       91.440      110.866       60.895        0.020        0.013        6.651        6.748        1.029      344.523       21.402      862.345
06/30/2014  02:15:00        3.091        3.796       -4.554        4.661        3.495        5.447       21.726       12.215       29.668        0.005        0.003        4.895        2.865        0.343      344.564       21.471      862.361
06/30/2014  02:16:00       -6.652        4.923       -2.148        7.709        5.008        4.062       59.432       25.083       16.502        0.009        0.005        8.276        3.691        0.199      344.599       21.533      862.371
06/30/2014  02:17:00      -29.475      -13.881       -5.883        8.535        5.222        5.924       72.843       27.270       35.092        0.062        0.007       32.580        3.673        0.013      344.630       21.588      862.379
06/30/2014  02:18:00      -64.401      -17.718       -3.277       10.709       14.347        9.131      114.675      205.827       83.379        0.244        0.020       66.794        7.304        0.012      344.623       21.573      862.394
06/30/2014  02:19:00      -29.598      -13.132        3.342       19.519       11.826        8.891      380.994      139.855       79.054        0.083        0.030       32.381        6.410        0.039      344.417       21.220      862.406
06/30/2014  02:20:00      -61.505      -21.529       -0.513       37.239       14.632       11.842     1386.762      214.082      140.229        0.299        0.087       65.164       16.777        0.066      344.450       21.275      862.413
06/30/2014  02:21:00     -117.567        1.386       -5.188       40.598       24.441       21.320     1648.188      597.372      454.560        0.827        0.135      117.575       24.775        0.044      344.214       20.874      862.414
06/30/2014  02:22:00      -60.154      -26.698        2.881       22.241       19.564       12.539      494.682      382.744      157.223        0.269        0.052       65.813       12.064        0.034      344.217       20.880      862.409
06/30/2014  02:23:00      -46.308      -46.653        0.248       24.397       17.352       11.466      595.223      301.080      131.472        0.267        0.051       65.733       11.647        0.031      344.373       21.146      862.404
06/30/2014  02:24:00      -39.905      -31.100       -0.179       23.676       12.770       14.855      560.573      163.069      220.657        0.175        0.047       50.593       13.123        0.067      344.381       21.160      862.400
06/30/2014  02:25:00      -55.038      -14.540       -2.016       11.847       14.089        8.297      140.346      198.498       68.847        0.183        0.020       56.926        7.323        0.017      344.336       21.082      862.397
06/30/2014  02:26:00      -56.708       -9.363       -5.532       11.745       14.671       10.575      137.936      215.243      111.832        0.190        0.023       57.476        8.283        0.021      344.277       20.982      862.399
06/30/2014  02:27:00      -62.887      -31.752       -7.998       19.236        9.103        9.109      370.031       82.872       82.966        0.278        0.027       70.448        4.368        0.004      344.295       21.014      862.410
06/30/2014  02:28:00     -103.102      -31.579       -6.804       19.682       16.787       10.211      387.374      281.805      104.268        0.622        0.039      107.830        8.971        0.007      344.248       20.930      862.417
06/30/2014  02:29:00      -90.105      -52.347       -3.384       30.800       27.384       14.577      948.627      749.902      212.503        0.639        0.096      104.207       11.183        0.012      344.163       20.786      862.420
06/30/2014  02:30:00      -31.708      -31.382       10.267       32.846       23.897       19.054     1078.859      571.045      363.056        0.205        0.101       44.612       16.477        0.136      344.120       20.713      862.424
06/30/2014  02:31:00      -23.222      -26.612        9.597       29.404       21.876       12.798      864.576      478.538      163.794        0.142        0.075       35.319       13.523        0.147      344.159       20.780      862.430
06/30/2014  02:32:00      -56.350      -10.217       -0.815       24.046       19.083       12.781      578.190      364.150      163.353        0.219        0.055       57.269        8.374        0.021      343.995       20.501      862.445
06/30/2014  02:33:00      -98.327      -38.908       -1.032       26.260       18.767       12.798      689.576      352.186      163.779        0.619        0.060      105.745        9.467        0.008      343.973       20.462      862.449
06/30/2014  02:34:00      -95.267      -59.187       -9.067       26.587       24.305       16.305      706.865      590.726      265.837        0.711        0.078      112.156        9.489        0.007      343.969       20.457      862.451
06/30/2014  02:35:00      -78.082      -48.502       -0.024       39.086       19.814       17.205     1527.721      392.595      296.022        0.533        0.111       91.920       17.798        0.037      343.968       20.454      862.452
06/30/2014  02:36:00      -65.666      -29.501        1.406       14.945       13.431       13.465      223.355      180.390      181.310        0.288        0.029       71.988        9.914        0.019      343.976       20.467      862.459
06/30/2014  02:37:00      -66.579      -25.260       -3.180       22.912       19.283       13.089      524.969      371.834      171.331        0.307        0.053       71.210       10.636        0.022      344.050       20.595      862.454
06/30/2014  02:38:00      -84.484      -48.710       -7.668       23.566       12.347        8.926      555.351      152.439       79.678        0.518        0.039       97.521        9.162        0.009      343.992       20.493      862.447
06/30/2014  02:39:00      -16.138      -27.694        5.425       23.963       15.909       12.979      574.232      253.096      168.462        0.103        0.050       32.053        9.541        0.089      344.011       20.527      862.458
06/30/2014  02:40:00      -16.421      -33.487        4.141       13.387       10.647        9.971      179.209      113.364       99.413        0.090        0.020       37.297        6.755        0.033      344.059       20.609      862.466
06/30/2014  02:41:00      -90.084      -37.031       -4.008       21.241       12.354        9.907      451.182      152.609       98.144        0.510        0.035       97.398        5.095        0.003      344.050       20.593      862.471
06/30/2014  02:42:00      -89.427       -3.275       -4.729       32.240       22.148       12.901     1039.398      490.532      166.435        0.486        0.085       89.487       14.116        0.025      343.909       20.352      862.496
06/30/2014  02:43:00     -103.230      -17.188      -12.466        7.447       18.790        6.370       55.463      353.049       40.580        0.578        0.022      104.651        5.508        0.003      343.955       20.432      862.520
06/30/2014  02:44:00      -75.494      -45.814       -0.909       24.918       16.203       12.906      620.917      262.526      166.577        0.442        0.053       88.308       11.204        0.016      344.053       20.598      862.512
06/30/2014  02:45:00      -64.997      -26.061       -5.230       18.223       12.035       11.531      332.090      144.840      132.963        0.277        0.030       70.027       11.080        0.025      343.995       20.501      862.505
06/30/2014  02:46:00      -80.537      -33.543       -3.951       28.213       16.060       15.447      795.961      257.922      238.612        0.446        0.065       87.243       14.305        0.027      343.954       20.429      862.499
06/30/2014  02:47:00      -99.444      -28.987       -8.334       19.370       16.917       12.684      375.187      286.177      160.879        0.581        0.041      103.583       11.335        0.012      343.881       20.306      862.496
06/30/2014  02:48:00      -85.784      -19.696      -11.812       20.432       17.457        9.466      417.480      304.735       89.604        0.435        0.041       88.016        7.992        0.008      343.832       20.221      862.491
06/30/2014  02:49:00      -38.196      -17.772       -2.162       25.775       17.257       13.485      664.354      297.803      181.858        0.146        0.057       42.128       10.926        0.067      343.806       20.178      862.496
06/30/2014  02:50:00      -18.602      -30.017       -0.501       13.534       21.528       10.361      183.157      463.459      107.359        0.100        0.038       35.314        8.406        0.057      343.911       20.354      862.499
06/30/2014  02:51:00      -26.074      -32.457       -0.616       32.814       26.254       19.287     1076.753      689.270      371.989        0.194        0.107       41.633       21.815        0.275      343.818       20.197      862.494
06/30/2014  02:52:00      -62.357      -45.149       -5.568       15.452       13.156       12.328      238.777      173.068      151.983        0.326        0.028       76.986        7.742        0.010      343.724       20.037      862.486
06/30/2014  02:53:00      -46.453      -24.687       -8.977       14.665       12.411        7.501      215.067      154.025       56.260        0.164        0.021       52.605        5.157        0.010      343.920       20.370      862.508
06/30/2014  02:54:00      -41.794        0.574       -5.536       27.023       20.171       12.751      730.244      406.865      162.587        0.154        0.065       41.798       12.084        0.084      343.803       20.174      862.526
06/30/2014  02:55:00      -49.847      -40.945       -9.952       21.693       15.998       14.715      470.595      255.922      216.534        0.260        0.047       64.508       12.111        0.035      343.757       20.094      862.534
06/30/2014  02:56:00      -40.514       -4.286      -12.994       12.836       14.590       14.458      164.753      212.857      209.045        0.121        0.029       40.740        8.555        0.044      343.885       20.313      862.551
06/30/2014  02:57:00      -35.582        2.729       -8.104       17.264       19.191       12.642      298.052      368.299      159.824        0.108        0.041       35.686       12.396        0.121      343.762       20.103      862.560
06/30/2014  02:58:00      -42.849       -6.670      -10.702       14.846       16.837       10.914      220.393      283.480      119.122        0.131        0.031       43.365        8.425        0.038      343.903       20.342      862.556
06/30/2014  02:59:00      -91.291      -57.772       -9.170       14.944       16.102       12.731      223.318      259.271      162.070        0.620        0.032      108.035        8.341        0.006      343.741       20.066      862.565
06/30/2014  03:00:00      -90.782      -45.442       -9.433       18.987       13.667       13.081      360.503      186.793      171.113        0.556        0.036      101.520       10.798        0.011      343.631       19.878      862.560
06/30/2014  03:01:00      -77.873      -55.649       -5.315       23.989       13.794       11.381      575.479      190.287      129.533        0.504        0.045       95.713        5.034        0.003      343.597       19.821      862.542
06/30/2014  03:02:00      -63.523      -30.075       -0.254       59.086       17.109       14.629     3491.175      292.717      214.006        0.447        0.200       70.283       23.760        0.114      343.597       19.819      862.536
06/30/2014  03:03:00     -153.684      -44.242      -22.912       17.875       21.621       20.235      319.500      467.460      409.464        1.365        0.060      159.925       11.661        0.005      343.422       19.523      862.555
06/30/2014  03:04:00     -107.082      -52.158       -0.365       55.456       32.357       21.292     3075.323     1046.954      453.351        0.938        0.229      119.109       22.769        0.037      343.473       19.609      862.549
06/30/2014  03:05:00      -40.216      -52.014        9.174       33.962       29.392       20.509     1153.393      863.905      420.616        0.342        0.122       65.748       12.724        0.037      343.582       19.793      862.537
06/30/2014  03:06:00      -82.374      -54.277       -3.845       40.881       35.286       19.719     1671.296     1245.121      388.856        0.653        0.165       98.649       20.870        0.045      343.661       19.929      862.534
06/30/2014  03:07:00     -112.350      -45.283       -7.779       29.181       24.185       17.350      851.532      584.926      301.014        0.824        0.087      121.132       20.211        0.028      343.648       19.907      862.540
06/30/2014  03:08:00      -56.107      -47.619        8.109       41.893       37.962       22.859     1755.049     1441.141      522.523        0.460        0.186       73.591       23.363        0.101      343.583       19.797      862.516
06/30/2014  03:09:00      -86.603      -59.942        4.459       39.648       23.068       20.176     1571.976      532.146      407.067        0.681        0.126      105.324       21.893        0.043      343.654       19.916      862.510
06/30/2014  03:10:00     -100.609      -45.541        0.284       28.845       19.958       14.621      832.034      398.321      213.786        0.682        0.072      110.436       15.360        0.019      343.666       19.937      862.507
06/30/2014  03:11:00      -75.741      -45.234       -2.531       29.208       19.376       16.452      853.093      375.437      270.681        0.464        0.075       88.220       12.882        0.021      343.678       19.959      862.498
06/30/2014  03:12:00      -87.006      -46.098      -16.094       22.064       16.197       11.165      486.841      262.348      124.667        0.541        0.044       98.464        6.337        0.004      343.800       20.168      862.508
06/30/2014  03:13:00     -131.886      -64.650       -9.811       22.452       21.001       19.519      504.083      441.059      380.996        1.150        0.066      146.880       14.205        0.009      343.525       19.699      862.507
06/30/2014  03:14:00      -96.369      -53.915        3.159       42.120       40.398       23.635     1774.060     1632.027      558.601        0.808        0.198      110.426       21.284        0.037      343.453       19.576      862.516
06/30/2014  03:15:00      -77.232      -36.842       -0.096       43.762       25.708       17.274     1915.087      660.895      298.395        0.510        0.144       85.569       17.989        0.044      343.491       19.640      862.521
06/30/2014  03:16:00      -91.655      -74.801       -4.673       42.662       40.209       24.536     1820.047     1616.738      602.010        0.903        0.202      118.304       22.695        0.037      343.560       19.757      862.518
06/30/2014  03:17:00     -123.467      -80.633        1.827       47.601       32.177       23.537     2265.815     1035.352      553.969        1.280        0.193      147.465       22.957        0.024      343.534       19.712      862.523
06/30/2014  03:18:00     -128.729      -66.957       -4.221       45.705       27.176       26.134     2088.905      738.540      682.983        1.229        0.176      145.101       23.743        0.027      343.544       19.730      862.527
06/30/2014  03:19:00     -110.114      -84.853       -2.640       40.586       34.950       29.224     1647.228     1221.482      854.062        1.153        0.186      139.015       21.827        0.025      343.533       19.711      862.522
06/30/2014  03:20:00      -91.230      -59.758       -0.061       36.936       36.412       23.038     1364.256     1325.840      530.752        0.756        0.161      109.059       14.027        0.017      343.566       19.767      862.522
06/30/2014  03:21:00      -99.745      -52.502       -0.529       36.508       29.186       18.384     1332.868      851.845      337.954        0.761        0.126      112.719       19.886        0.031      343.601       19.827      862.540
06/30/2014  03:22:00      -75.334      -47.423        1.006       34.522       27.459       20.129     1191.763      753.977      405.172        0.514        0.118       89.018       17.728        0.040      343.598       19.822      862.539
06/30/2014  03:23:00      -86.825      -49.997       -5.694       17.079       21.787       11.879      291.695      474.679      141.121        0.549        0.045      100.191        4.261        0.002      343.780       20.133      862.538
06/30/2014  03:24:00      -76.100      -40.026        7.522       42.034       32.436       19.221     1766.835     1052.088      369.431        0.532        0.159       85.984       23.010        0.072      343.513       19.677      862.542
06/30/2014  03:25:00      -63.644      -58.374        8.537       44.965       34.175       24.450     2021.874     1167.919      597.791        0.566        0.189       86.360       26.048        0.091      343.563       19.762      862.531
06/30/2014  03:26:00      -75.629      -74.535        4.541       40.057       31.663       23.253     1604.541     1002.521      540.718        0.722        0.157      106.185       23.441        0.049      343.597       19.821      862.526
06/30/2014  03:27:00     -105.348      -65.801       -7.905       37.205       25.673       18.546     1384.185      659.080      343.964        0.894        0.119      124.209       10.441        0.007      343.531       19.710      862.531
06/30/2014  03:28:00      -92.246      -75.808       -5.567       26.339       30.401       21.151      693.722      924.226      447.379        0.818        0.103      119.399       16.648        0.019      343.527       19.702      862.523
06/30/2014  03:29:00     -103.216      -46.025      -11.055       29.255       15.843       11.531      855.869      250.995      132.956        0.707        0.062      113.013       10.176        0.008      343.460       19.587      862.521
06/30/2014  03:30:00      -75.742      -54.863       -7.308       19.400       18.346       12.629      376.371      336.576      159.489        0.484        0.044       93.525        9.306        0.010      343.449       19.569      862.542
06/30/2014  03:31:00     -106.487      -46.545       -6.629       24.041       21.961       14.682      577.973      482.287      215.550        0.741        0.064      116.215       11.711        0.010      343.429       19.532      862.553
06/30/2014  03:32:00      -18.022      -23.841       10.316       31.818       22.126       15.951     1012.370      489.570      254.420        0.138        0.088       29.886       16.300        0.297      343.446       19.562      862.557
06/30/2014  03:33:00      -56.725       17.565       -6.948       13.772       17.753        9.376      189.679      315.163       87.902        0.208        0.030       59.382       10.070        0.029      343.406       19.495      862.590
06/30/2014  03:34:00      -26.649      -32.365       -8.552       26.517       28.524       10.532      703.159      813.629      110.927        0.173        0.081       41.925       15.067        0.129      343.483       19.626      862.613
06/30/2014  03:35:00      -28.999      -27.333       -0.766       28.740       18.635        8.024      826.004      347.265       64.380        0.141        0.062       39.850        4.708        0.014      343.486       19.629      862.601
06/30/2014  03:36:00      -55.079      -15.964        3.933       34.318       19.108       14.057     1177.739      365.120      197.586        0.252        0.087       57.346       11.537        0.040      343.407       19.497      862.595
06/30/2014  03:37:00      -54.233      -22.873       -4.433       28.003       18.635       10.488      784.186      347.261      110.004        0.236        0.062       58.860        5.335        0.008      343.396       19.478      862.603
06/30/2014  03:38:00     -125.145      -57.462       -2.416       29.360       27.327       20.595      861.981      746.757      424.161        1.050        0.102      137.706       14.136        0.011      343.279       19.279      862.602
06/30/2014  03:39:00      -65.357      -66.158        1.543       54.859       34.948       22.117     3009.530     1221.363      489.164        0.668        0.236       92.997       24.746        0.071      343.251       19.230      862.605
06/30/2014  03:40:00      -30.220      -84.343        9.511       44.012       59.639       26.363     1937.083     3556.757      695.008        0.715        0.309       89.594       25.556        0.081      343.282       19.284      862.601
06/30/2014  03:41:00      -63.510      -47.870       12.142       65.711       39.967       28.978     4317.915     1597.332      839.743        0.661        0.338       79.530       32.304        0.165      343.263       19.252      862.605
06/30/2014  03:42:00      -73.000      -87.446      -10.321       48.174       35.617       23.623     2320.720     1268.580      558.053        0.861        0.207      113.912       17.348        0.023      343.410       19.502      862.598
06/30/2014  03:43:00     -121.840      -66.376        3.486       54.452       37.987       24.985     2965.016     1443.040      624.260        1.215        0.252      138.747       24.735        0.032      343.444       19.559      862.597
06/30/2014  03:44:00      -38.111      -45.186       -0.314       42.493       31.089       21.092     1805.683      966.546      444.863        0.336        0.161       59.112       17.067        0.083      343.332       19.369      862.614
06/30/2014  03:45:00      -23.077      -44.458       18.548       47.023       32.072       26.823     2211.207     1028.603      719.500        0.341        0.198       50.091       29.325        0.343      343.457       19.583      862.610
06/30/2014  03:46:00       -3.393      -33.630        6.275       21.962       18.261       18.284      482.323      333.455      334.320        0.117        0.058       33.801       13.606        0.162      343.633       19.881      862.605
06/30/2014  03:47:00      -53.115      -28.141        0.839       36.431       23.982       15.508     1327.214      575.118      240.490        0.288        0.107       60.109       16.687        0.077      343.612       19.846      862.612
06/30/2014  03:48:00       -1.092       -8.583        9.448       27.626       21.671       15.140      763.181      469.621      229.206        0.081        0.073        8.652       16.068        3.449      343.386       19.460      862.626
06/30/2014  03:49:00       -9.819      -50.052       -6.436       22.653       41.327       24.187      513.164     1707.956      584.991        0.272        0.140       51.006       16.228        0.101      343.368       19.433      862.630
06/30/2014  03:50:00      -37.910      -16.807       10.000       29.853       25.618       16.245      891.200      656.287      263.890        0.182        0.091       41.469       10.879        0.069      343.196       19.136      862.653
06/30/2014  03:51:00      -55.698      -37.912        1.833       54.464       26.358       24.699     2966.329      694.745      610.059        0.441        0.214       67.377       19.233        0.081      343.251       19.231      862.667
06/30/2014  03:52:00       -0.507      -53.438        3.080       25.521       40.036       26.626      651.308     1602.892      708.938        0.291        0.148       53.440       19.727        0.136      343.300       19.314      862.665
06/30/2014  03:53:00      -59.972      -34.981       -2.013       39.975       28.888       16.732     1598.023      834.496      279.964        0.377        0.136       69.428       12.594        0.033      343.353       19.405      862.687
06/30/2014  03:54:00      -10.355      -53.145        6.102       30.780       33.193       17.742      947.420     1101.745      314.778        0.267        0.118       54.144       17.131        0.100      343.289       19.296      862.694
06/30/2014  03:55:00       15.952      -16.752        8.469       18.324       18.376       19.227      335.754      337.687      369.673        0.082        0.052       23.132       16.069        0.483      343.204       19.152      862.693
06/30/2014  03:56:00        6.662        3.687       19.224       21.361       25.523       18.008      456.291      651.412      324.273        0.093        0.072        7.614       18.765        6.074      343.150       19.059      862.691
06/30/2014  03:57:00        9.767      -26.766        1.845       21.166       26.840       20.712      448.002      720.410      428.998        0.121        0.080       28.493       21.257        0.557      343.109       18.990      862.694
06/30/2014  03:58:00      -21.121      -15.261       -6.620       25.575       16.082       10.225      654.105      258.627      104.559        0.087        0.051       26.057        8.349        0.103      343.212       19.165      862.690
06/30/2014  03:59:00       -1.642       -0.702        0.641       15.946       19.227       12.800      254.275      369.683      163.840        0.040        0.039        1.786       14.273       63.872      343.055       18.898      862.690
06/30/2014  04:00:00      -37.079      -17.973       -3.391       18.064       16.537       10.726      326.309      273.463      115.038        0.121        0.036       41.205        9.523        0.053      343.149       19.058      862.704
06/30/2014  04:01:00     -107.135      -49.629       -4.966       33.135       29.688       15.162     1097.917      881.402      229.890        0.809        0.110      118.072        7.181        0.004      343.074       18.930      862.708
06/30/2014  04:02:00      -62.400      -79.452        4.328       39.765       32.370       23.986     1581.237     1047.841      575.317        0.671        0.160      101.027       21.251        0.044      343.049       18.888      862.703
06/30/2014  04:03:00      -29.434      -54.561       -3.356       18.631       20.969       17.649      347.114      439.719      311.493        0.248        0.055       61.994       13.825        0.050      343.243       19.216      862.699
06/30/2014  04:04:00      -59.851      -37.157        0.536       43.098       23.816       17.950     1857.462      567.218      322.219        0.385        0.137       70.447       16.263        0.053      343.147       19.054      862.716
06/30/2014  04:05:00      -53.448      -40.359        2.140       37.017       32.833       19.580     1370.244     1078.017      383.371        0.366        0.142       66.974       15.388        0.053      343.120       19.009      862.723
06/30/2014  04:06:00      -90.263      -53.720      -18.137       27.357       34.840       14.672      748.407     1213.844      215.266        0.677        0.109      105.039       10.485        0.010      343.144       19.050      862.727
06/30/2014  04:07:00      -42.088        3.285        6.260       22.788       25.031       18.961      519.273      626.558      359.507        0.166        0.075       42.216       11.156        0.070      343.135       19.032      862.748
06/30/2014  04:08:00      -56.870      -24.390        1.380       38.804       27.096       21.410     1505.721      734.174      458.376        0.326        0.135       61.879        9.817        0.025      343.002       18.807      862.766
06/30/2014  04:09:00      -83.199      -72.583      -16.178       29.918       27.285       14.600      895.070      744.457      213.173        0.715        0.093      110.410        7.244        0.004      343.111       18.993      862.781
06/30/2014  04:10:00       16.775      -76.061        5.686       28.327       34.991       18.928      802.397     1224.373      358.257        0.424        0.119       77.889       15.189        0.038      343.677       19.958      862.773
06/30/2014  04:11:00      -68.060      -44.854       -6.848       39.663       31.099       18.614     1573.179      967.160      346.499        0.479        0.144       81.511        9.885        0.015      343.131       19.026      862.784
06/30/2014  04:12:00      -42.036      -74.980        1.697       40.025       22.917       22.646     1601.964      525.187      512.826        0.502        0.132       85.959       18.266        0.045      343.104       18.981      862.786
06/30/2014  04:13:00      -67.281      -54.524        0.857       38.207       48.684       21.350     1459.762     2370.150      455.838        0.589        0.214       86.600       17.839        0.042      343.258       19.242      862.790
06/30/2014  04:14:00      -85.786      -59.141        4.968       40.992       35.722       22.502     1680.371     1276.045      506.352        0.717        0.173      104.197       21.674        0.043      343.060       18.906      862.800
06/30/2014  04:15:00      -16.975      -70.325        3.141       31.058       30.521       19.740      964.602      931.528      389.683        0.376        0.114       72.345       18.912        0.068      343.119       19.005      862.796
06/30/2014  04:16:00      -21.376       -1.997        0.122       16.684       27.805        9.482      278.366      773.104       89.900        0.080        0.057       21.469        9.535        0.197      343.126       19.019      862.803
06/30/2014  04:17:00       41.076       27.435       16.371       18.462       11.944       11.788      340.832      142.658      138.961        0.167        0.031       49.396        7.632        0.024      342.882       18.601      862.806
06/30/2014  04:18:00      -10.947       -4.742        2.519       12.336       13.219        7.516      152.170      174.730       56.497        0.027        0.019       11.930        5.637        0.223      342.839       18.530      862.809
06/30/2014  04:19:00      -69.607        0.578       -5.925       23.615       25.667       13.556      557.645      658.804      183.771        0.314        0.070       69.610       15.233        0.048      342.887       18.613      862.829
06/30/2014  04:20:00      -13.216      -36.155        5.646       37.796       22.055       16.194     1428.511      486.408      262.241        0.185        0.109       38.495       14.884        0.150      342.826       18.507      862.842
06/30/2014  04:21:00      -50.218      -31.702      -12.345       31.770       33.851       22.502     1009.302     1145.905      506.347        0.317        0.133       59.388       16.936        0.081      342.830       18.515      862.859
06/30/2014  04:22:00      -46.636      -34.910       -6.836       11.859       19.135       12.536      140.644      366.156      157.146        0.205        0.033       58.255        6.873        0.014      342.866       18.573      862.872
06/30/2014  04:23:00      -88.250      -25.716      -12.577       29.253       17.603       16.944      855.711      309.880      287.106        0.503        0.073       91.921       11.324        0.015      342.931       18.685      862.879
06/30/2014  04:24:00       14.515      -89.414       -6.788       57.621       30.779       17.515     3320.229      947.342      306.761        0.641        0.229       90.584       15.792        0.030      343.052       18.891      862.873
06/30/2014  04:25:00       40.149      -81.106       -1.175       43.176       67.593       22.044     1864.148     4568.781      485.950        0.755        0.346       90.500       11.163        0.015      343.114       18.997      862.879
06/30/2014  04:26:00       -9.877      -23.392        5.336       29.969       33.384       20.366      898.112     1114.471      414.789        0.155        0.121       25.391       16.401        0.417      342.766       18.406      862.912
06/30/2014  04:27:00       -3.158      -43.066        0.126       27.065       25.769       17.481      732.506      664.024      305.589        0.178        0.085       43.182       14.027        0.106      342.828       18.511      862.914
06/30/2014  04:28:00      -49.260      -50.783       -7.361       27.952       28.581       19.467      781.314      816.886      378.951        0.352        0.099       70.749        7.999        0.013      342.870       18.584      862.907
06/30/2014  04:29:00      -45.338        3.839        4.603       18.047       16.552       11.621      325.677      273.953      135.051        0.141        0.037       45.500        5.659        0.015      342.752       18.381      862.912
06/30/2014  04:30:00      -39.189      -12.717        0.657       33.302       26.671       15.878     1109.032      711.317      252.118        0.188        0.104       41.201       10.941        0.071      342.617       18.152      862.936
06/30/2014  04:31:00      -96.099      -88.136        3.207       51.037       46.960       29.167     2604.821     2205.261      850.690        1.134        0.283      130.396       29.576        0.051      342.582       18.093      862.948
06/30/2014  04:32:00      -44.406      -64.175       13.676       56.359       44.398       31.233     3176.388     1971.161      975.504        0.620        0.306       78.040       32.792        0.177      342.602       18.126      862.944
06/30/2014  04:33:00      -73.215     -115.309        6.373       68.918       54.903       38.337     4749.682     3014.300     1469.720        1.396        0.462      136.590       42.288        0.096      342.650       18.208      862.944
06/30/2014  04:34:00     -163.186     -110.900       -1.969       56.665       44.800       29.309     3210.871     2007.005      859.018        2.250        0.304      197.303       21.915        0.012      342.560       18.053      862.946
06/30/2014  04:35:00     -138.319      -89.629       -0.316       73.211       43.132       29.649     5359.806     1860.409      879.047        1.763        0.405      164.820       30.611        0.034      342.496       17.945      862.944
06/30/2014  04:36:00     -109.543      -97.929       -1.008       50.896       41.329       24.513     2590.441     1708.109      600.909        1.324        0.245      146.934       23.106        0.025      342.512       17.974      862.931
06/30/2014  04:37:00      -59.962      -83.286       -4.675       51.837       40.601       26.877     2687.061     1648.449      722.371        0.781        0.253      102.625       23.618        0.053      342.541       18.023      862.927
06/30/2014  04:38:00     -105.378      -98.187        6.894       53.703       53.081       29.933     2884.056     2817.550      895.983        1.369        0.330      144.032       26.663        0.034      342.495       17.945      862.929
06/30/2014  04:39:00     -120.609     -117.919      -12.681       48.626       43.224       33.778     2364.456     1868.275     1140.979        1.699        0.269      168.676       10.675        0.004      342.408       17.795      862.936
06/30/2014  04:40:00     -134.615      -46.318       -2.096       34.793       34.678       22.147     1210.546     1202.597      490.471        1.159        0.145      142.360       17.205        0.015      342.381       17.751      862.933
06/30/2014  04:41:00      -97.178      -71.114        4.523       55.097       37.115       19.067     3035.695     1377.512      363.548        0.965        0.239      120.419       25.149        0.044      342.363       17.720      862.947
06/30/2014  04:42:00     -127.405      -73.088       -9.502       30.275       25.099       18.813      916.592      629.948      353.926        1.178        0.095      146.881       13.148        0.008      342.431       17.836      862.942
06/30/2014  04:43:00     -100.754      -84.803        3.023       53.646       48.503       35.613     2877.856     2352.575     1268.256        1.192        0.325      131.693       31.353        0.057      342.330       17.663      862.932
06/30/2014  04:44:00     -103.849      -73.623        3.861       56.826       45.503       34.285     3229.188     2070.562     1175.478        1.135        0.324      127.298       26.331        0.043      342.241       17.513      862.937
06/30/2014  04:45:00     -132.422      -82.825        3.127       61.374       40.632       33.959     3766.729     1650.991     1153.201        1.549        0.329      156.191       30.377        0.038      342.260       17.545      862.944
06/30/2014  04:46:00     -131.035     -112.020        6.608       67.411       61.880       34.915     4544.182     3829.180     1219.081        1.968        0.480      172.391       35.573        0.043      342.277       17.572      862.928
06/30/2014  04:47:00     -153.995     -114.922       -6.334       63.356       46.461       27.067     4014.017     2158.660      732.624        2.193        0.345      192.150       28.782        0.022      342.298       17.607      862.937
06/30/2014  04:48:00     -140.474     -135.431       -3.583       53.672       53.181       38.461     2880.659     2828.167     1479.267        2.264        0.359      195.127       38.140        0.038      342.246       17.519      862.942
06/30/2014  04:49:00     -131.981      -99.304        2.857       76.309       53.184       34.401     5823.021     2828.572     1183.446        1.856        0.492      165.167       40.836        0.061      342.252       17.530      862.955
06/30/2014  04:50:00     -174.237     -103.175       -3.591       57.659       47.202       35.849     3324.577     2228.051     1285.175        2.393        0.342      202.493       29.922        0.022      342.254       17.532      862.982
06/30/2014  04:51:00     -130.089      -57.416       -6.308       45.124       39.105       19.609     2036.141     1529.164      384.514        1.210        0.197      142.196       16.351        0.013      342.248       17.524      862.980
06/30/2014  04:52:00      -75.122      -77.338        3.825       48.374       40.928       29.305     2340.011     1675.072      858.756        0.826        0.244      107.817       29.822        0.077      342.239       17.509      862.978
06/30/2014  04:53:00     -112.856      -69.731       -3.819       39.881       30.926       21.509     1590.511      956.413      462.633        1.031        0.150      132.660       19.468        0.022      342.223       17.482      862.999
06/30/2014  04:54:00      -73.825      -78.312       -9.327       45.473       32.521       26.714     2067.835     1057.603      713.658        0.775        0.192      107.624       24.321        0.051      342.243       17.516      862.992
06/30/2014  04:55:00     -107.130      -62.899       -1.664       30.201       27.256       20.154      912.104      742.888      406.192        0.875        0.103      124.230       14.252        0.013      342.146       17.352      862.992
06/30/2014  04:56:00      -85.116      -54.462        3.128       57.180       32.603       24.454     3269.513     1062.952      598.022        0.757        0.247      101.049       26.240        0.067      342.123       17.311      863.002
06/30/2014  04:57:00      -86.703      -64.702        9.179       53.317       32.339       26.844     2842.723     1045.836      720.596        0.820        0.230      108.184       29.593        0.075      342.146       17.352      862.999
06/30/2014  04:58:00      -78.456     -103.245       -0.144       48.217       48.054       30.686     2324.889     2309.204      941.657        1.119        0.279      129.672       32.894        0.064      342.158       17.372      863.013
06/30/2014  04:59:00     -114.551      -86.940        3.808       51.209       38.865       32.536     2622.386     1510.496     1058.579        1.294        0.260      143.807       32.709        0.052      342.116       17.301      863.015
06/30/2014  05:00:00     -117.952     -111.912        2.609       55.342       49.359       34.532     3062.790     2436.266     1192.476        1.657        0.335      162.594       34.629        0.045      342.066       17.214      863.010
06/30/2014  05:01:00     -142.024     -107.263        1.757       46.308       41.749       27.131     2144.414     1742.951      736.106        1.815        0.231      177.978       30.263        0.029      342.071       17.223      863.022
06/30/2014  05:02:00      -92.123      -57.565        1.822       45.382       29.738       23.657     2059.534      884.374      559.642        0.765        0.175      108.629       22.550        0.043      342.042       17.174      863.022
06/30/2014  05:03:00      -90.654      -29.814       -0.637       29.935       31.659       18.201      896.089     1002.314      331.286        0.567        0.111       95.430       17.070        0.032      342.013       17.126      863.021
06/30/2014  05:04:00     -122.304      -40.576       -7.135       32.847       23.692       20.819     1078.899      561.325      433.431        0.936        0.104      128.859       12.870        0.010      341.967       17.048      863.019
06/30/2014  05:05:00     -139.866      -26.987       -6.458       35.699       28.315       19.870     1274.388      801.723      394.828        1.140        0.124      142.446       17.449        0.015      341.855       16.857      863.019
06/30/2014  05:06:00     -149.708      -46.734       -1.829       27.734       20.458       16.867      769.170      418.524      284.504        1.304        0.074      156.833       16.146        0.011      341.887       16.913      863.030
06/30/2014  05:07:00     -120.642      -35.149       -0.997       30.352       23.184       16.882      921.240      537.491      284.996        0.877        0.087      125.658       12.957        0.011      341.976       17.064      863.029
06/30/2014  05:08:00     -150.832       -4.043      -13.822       45.560       42.508       23.565     2075.672     1806.965      555.312        1.370        0.222      150.886       20.753        0.019      341.855       16.859      863.032
06/30/2014  05:09:00     -168.156      -19.525      -13.208       49.698       42.676       25.612     2469.862     1821.232      655.950        1.689        0.247      169.286       24.330        0.021      341.864       16.872      863.048
06/30/2014  05:10:00     -171.744      -53.619       -9.247       22.468       23.244       17.621      504.803      540.289      310.496        1.691        0.068      179.919       12.238        0.005      341.800       16.764      863.053
06/30/2014  05:11:00     -169.575      -57.479       -3.819       19.641       20.445       13.936      385.762      417.991      194.206        1.654        0.050      179.051       11.124        0.004      341.866       16.877      863.051
06/30/2014  05:12:00     -193.783      -40.018      -22.869       28.710       26.047       19.770      824.242      678.428      390.847        2.078        0.095      197.871       14.485        0.005      341.797       16.759      863.076
06/30/2014  05:13:00     -164.993      -44.743      -11.134       36.632       35.053       15.735     1341.890     1228.741      247.592        1.608        0.141      170.952       14.117        0.007      341.853       16.854      863.096
06/30/2014  05:14:00     -163.492      -26.188      -24.832       21.293       21.802       15.463      453.390      475.311      239.094        1.460        0.058      165.576        8.598        0.003      341.800       16.765      863.103
06/30/2014  05:15:00     -145.109      -14.726      -10.207       34.026       30.209       21.876     1157.763      912.594      478.565        1.196        0.127      145.854       18.573        0.016      341.812       16.785      863.123
06/30/2014  05:16:00     -147.805       -6.042       -6.538       45.291       31.480       25.721     2051.283      991.014      661.570        1.281        0.185      147.929       27.586        0.035      341.951       17.021      863.113
06/30/2014  05:17:00     -141.333      -41.131        3.167       38.012       31.647       19.445     1444.875     1001.551      378.096        1.225        0.141      147.196       20.723        0.020      341.992       17.090      863.103
06/30/2014  05:18:00     -147.544      -45.234       -4.671       41.765       33.566       22.225     1744.307     1126.691      493.944        1.360        0.168      154.322       23.804        0.024      342.084       17.246      863.115
06/30/2014  05:19:00     -126.457      -15.209       -2.619       36.856       30.173       17.050     1358.344      910.407      290.707        0.939        0.128      127.368       19.538        0.024      341.858       16.862      863.123
06/30/2014  05:20:00      -98.592      -22.873       -4.501       20.866       33.964       14.654      435.396     1153.549      214.736        0.603        0.090      101.210       10.830        0.011      341.852       16.853      863.127
06/30/2014  05:21:00     -121.223      -10.189       -7.649       34.943       23.137       19.492     1220.987      535.302      379.955        0.850        0.107      121.651       16.850        0.019      341.838       16.829      863.147
06/30/2014  05:22:00     -115.472        3.954       -5.725       42.307       34.999       24.781     1789.914     1224.908      614.101        0.850        0.181      115.540       23.838        0.043      341.723       16.634      863.159
06/30/2014  05:23:00     -102.843      -24.495       -5.554       47.979       35.459       25.540     2301.960     1257.325      652.286        0.771        0.211      105.720       22.142        0.044      341.759       16.695      863.167
06/30/2014  05:24:00      -84.394      -39.092       -0.706       32.930       30.348       19.067     1084.397      921.016      363.540        0.551        0.118       93.008       17.153        0.034      341.703       16.600      863.193
06/30/2014  05:25:00     -109.128      -14.709      -10.021       32.826       24.899       20.116     1077.567      619.952      404.655        0.716        0.105      110.114       17.495        0.025      341.831       16.817      863.215
06/30/2014  05:26:00     -100.676      -26.951       -5.606       25.476       26.246       15.947      649.017      688.845      254.315        0.624        0.080      104.221       12.069        0.013      341.791       16.749      863.225
06/30/2014  05:27:00      -73.788      -40.788       -3.947       30.764       43.268       17.131      946.411     1872.095      293.469        0.512        0.156       84.311       14.595        0.030      341.723       16.634      863.245
06/30/2014  05:28:00     -125.747      -28.362      -11.720       26.544       29.086       18.432      704.586      845.993      339.732        0.932        0.095      128.906        8.626        0.004      341.925       16.977      863.267
06/30/2014  05:29:00     -124.239      -49.798       -9.543       30.927       29.528       21.826      956.461      871.879      476.361        1.016        0.115      133.848       19.401        0.021      341.799       16.764      863.269
06/30/2014  05:30:00     -166.275      -41.388      -10.471       22.481       23.406       18.354      505.397      547.827      336.875        1.543        0.070      171.349       12.777        0.006      341.788       16.744      863.273
06/30/2014  05:31:00      -86.680      -24.684        5.022       38.306       37.554       24.094     1467.317     1410.288      580.498        0.580        0.173       90.126       26.007        0.083      341.772       16.718      863.271
06/30/2014  05:32:00     -129.232      -22.016       -5.716       27.956       41.178       22.938      781.511     1695.650      526.132        1.011        0.150      131.093       21.738        0.027      341.860       16.866      863.283
06/30/2014  05:33:00     -119.430      -57.004        0.939       31.311       21.094       17.204      980.390      444.943      295.971        0.962        0.086      132.337       16.294        0.015      341.779       16.729      863.289
06/30/2014  05:34:00     -136.399      -56.394       -3.519       29.282       28.501       15.863      857.410      812.306      251.646        1.186        0.096      147.597       15.405        0.011      341.898       16.929      863.292
06/30/2014  05:35:00      -83.879      -37.434        1.498       55.085       28.450       20.180     3034.389      809.408      407.221        0.634        0.213       91.853       17.340        0.036      341.873       16.887      863.293
06/30/2014  05:36:00      -64.831      -54.500        2.274       48.573       40.788       26.271     2359.331     1663.661      690.155        0.595        0.236       84.696       23.868        0.079      341.854       16.855      863.300
06/30/2014  05:37:00     -137.715      -81.787       -5.557       26.957       23.254       21.312      726.700      540.770      454.195        1.370        0.086      160.170       16.436        0.011      341.795       16.756      863.310
06/30/2014  05:38:00     -126.945      -71.365        2.375       48.839       37.394       22.156     2385.245     1398.318      490.871        1.274        0.214      145.630       23.944        0.027      341.668       16.539      863.320
06/30/2014  05:39:00      -37.397      -32.264       13.411       36.937       24.376       19.297     1364.369      594.178      372.386        0.247        0.117       49.391       16.257        0.108      341.597       16.420      863.332
06/30/2014  05:40:00     -105.826      -65.340        0.845       46.773       31.882       21.883     2187.703     1016.452      478.859        0.958        0.184      124.372       18.284        0.022      341.639       16.491      863.353
06/30/2014  05:41:00      -35.439      -29.543       11.770       34.408       30.997       19.494     1183.900      960.833      380.012        0.240        0.126       46.137       19.904        0.186      341.623       16.465      863.363
06/30/2014  05:42:00     -117.696      -57.631       -6.138       26.567       34.069       20.603      705.828     1160.700      424.493        0.975        0.115      131.049       17.364        0.018      341.646       16.503      863.385
06/30/2014  05:43:00      -30.579      -48.177        3.385       30.711       26.835       20.031      943.153      720.114      401.233        0.267        0.103       57.062       16.831        0.087      341.665       16.538      863.410
06/30/2014  05:44:00      -96.830      -64.516       -8.119       24.410       20.773       14.119      595.831      431.531      199.335        0.742        0.061      116.354        9.085        0.006      341.723       16.634      863.426
06/30/2014  05:45:00      -34.536      -44.940        2.586       40.802       30.393       18.052     1664.777      923.715      325.883        0.307        0.146       56.678       13.932        0.060      341.689       16.576      863.433
06/30/2014  05:46:00      -25.293      -79.011       -4.478       31.216       30.983       15.844      974.464      959.936      251.047        0.454        0.109       82.961       12.252        0.022      341.752       16.683      863.421
06/30/2014  05:47:00      -70.200      -83.418       -3.335       25.677       35.816       23.617      659.297     1282.784      557.761        0.720        0.125      109.026       21.520        0.039      341.780       16.732      863.413
06/30/2014  05:48:00      -19.063      -40.165        9.618       29.270       21.897       18.335      856.712      479.499      336.157        0.187        0.084       44.459       14.543        0.107      341.792       16.752      863.422
06/30/2014  05:49:00      -99.874      -64.695      -10.732       26.505       28.217       18.627      702.524      796.203      346.961        0.806        0.092      118.997       16.310        0.019      341.770       16.714      863.422
06/30/2014  05:50:00     -113.978      -93.518       -0.203       51.457       48.778       24.693     2647.848     2379.247      609.756        1.369        0.282      147.433       19.143        0.017      341.734       16.652      863.419
06/30/2014  05:51:00      -85.715      -76.980      -20.450       41.635       39.601       31.551     1733.449     1568.241      995.489        0.899        0.215      115.208       25.983        0.051      341.669       16.541      863.416
06/30/2014  05:52:00     -115.789      -62.848       -7.623       51.284       34.570       30.715     2630.044     1195.061      943.411        1.109        0.238      131.746       21.431        0.026      341.750       16.678      863.401
06/30/2014  05:53:00     -165.155     -125.184       -5.489       54.706       45.881       33.792     2992.698     2105.057     1141.883        2.461        0.312      207.237       28.583        0.019      341.593       16.410      863.410
06/30/2014  05:54:00     -146.658     -118.870       -8.741       34.042       42.565       24.690     1158.871     1811.771      609.582        1.965        0.179      188.782       20.224        0.011      341.608       16.438      863.429
06/30/2014  05:55:00     -146.277     -102.001       -8.184       47.023       43.859       28.952     2211.161     1923.613      838.192        1.842        0.249      178.329       27.192        0.023      341.616       16.451      863.441
06/30/2014  05:56:00      -96.979      -90.004       -0.301       41.762       39.386       22.120     1744.079     1551.273      489.280        1.064        0.189      132.309       17.041        0.017      341.627       16.472      863.452
06/30/2014  05:57:00     -119.373      -64.164       -8.043       32.823       46.502       23.780     1077.348     2162.437      565.469        1.112        0.190      135.525       16.499        0.015      341.735       16.655      863.470
06/30/2014  05:58:00     -123.757      -74.291       -2.838       29.123       32.423       19.836      848.175     1051.244      393.467        1.157        0.115      144.343       15.641        0.012      341.744       16.669      863.481
06/30/2014  05:59:00      -53.160      -55.017        1.668       56.601       42.377       25.431     3203.637     1795.790      646.738        0.575        0.282       76.504       24.604        0.103      341.768       16.711      863.485
06/30/2014  06:00:00      -83.677      -57.563        5.210       47.609       31.514       22.679     2266.634      993.132      514.349        0.706        0.189      101.564       23.633        0.054      341.766       16.705      863.477
06/30/2014  06:01:00     -105.327      -80.685        1.174       40.751       31.987       26.369     1660.627     1023.195      695.326        1.049        0.169      132.680       25.520        0.037      341.791       16.750      863.469
06/30/2014  06:02:00     -135.549      -82.385      -10.195       39.309       30.326       16.544     1545.175      919.659      273.703        1.400        0.137      158.621       15.216        0.009      341.747       16.673      863.460
06/30/2014  06:03:00      -74.821      -84.511        4.864       36.351       42.849       24.071     1321.366     1836.073      579.430        0.825        0.187      112.873       27.384        0.059      341.796       16.756      863.448
06/30/2014  06:04:00      -87.270      -71.545        1.844       50.168       37.817       21.582     2516.859     1430.107      465.780        0.857        0.221      112.848       20.884        0.034      341.765       16.705      863.451
06/30/2014  06:05:00      -81.319      -91.171       -2.351       64.207       53.855       30.511     4122.551     2900.375      930.938        1.144        0.398      122.168       36.720        0.090      341.706       16.606      863.453
06/30/2014  06:06:00      -47.727      -62.255       -3.744       52.443       42.188       27.617     2750.294     1779.837      762.688        0.573        0.265       78.444       14.315        0.033      341.720       16.629      863.462
06/30/2014  06:07:00       -9.575      -37.214        4.743       24.226       43.867       23.496      586.908     1924.349      552.060        0.228        0.153       38.426       24.258        0.399      341.832       16.818      863.469
06/30/2014  06:08:00     -109.819      -48.641       -9.318       50.073       37.632       27.027     2507.316     1416.149      730.452        0.958        0.233      120.108       22.335        0.035      341.739       16.660      863.477
06/30/2014  06:09:00     -155.567     -109.164      -23.999       54.642       43.086       30.000     2985.699     1856.417      899.985        2.122        0.287      190.047       21.390        0.013      341.670       16.543      863.482
06/30/2014  06:10:00     -111.577      -64.251       -6.588       98.131       59.727       37.233     9629.737     3567.274     1386.275        1.560        0.729      128.754       47.936        0.139      341.683       16.565      863.480
06/30/2014  06:11:00     -137.575      -86.536       -1.760       79.169       41.164       32.844     6267.662     1694.437     1078.738        1.773        0.452      162.528       40.591        0.062      341.716       16.619      863.487
06/30/2014  06:12:00     -158.185      -94.594      -10.413       47.638       45.553       30.944     2269.418     2075.078      957.559        1.969        0.265      184.311       23.935        0.017      341.654       16.514      863.498
06/30/2014  06:13:00     -131.076     -112.472       -7.435       61.381       40.088       33.883     3767.609     1607.057     1148.059        1.820        0.326      172.716       31.114        0.032      341.652       16.512      863.510
06/30/2014  06:14:00     -159.993     -118.677       -5.486       62.001       59.296       35.458     3844.169     3516.073     1257.237        2.416        0.431      199.204       19.607        0.010      341.615       16.447      863.519
06/30/2014  06:15:00     -132.084      -69.540       -3.717       70.678       54.199       38.538     4995.344     2937.569     1485.161        1.586        0.471      149.271       37.050        0.062      341.628       16.471      863.525
06/30/2014  06:16:00     -137.119     -106.779        6.013       67.362       48.288       31.711     4537.685     2331.697     1005.603        1.906        0.394      173.791       30.596        0.031      341.630       16.474      863.520
06/30/2014  06:17:00     -143.735      -82.751        1.146       61.404       43.449       34.944     3770.490     1887.780     1221.101        1.719        0.344      165.854       31.969        0.037      341.678       16.556      863.524
06/30/2014  06:18:00     -139.865      -88.847       -0.999       44.850       43.324       24.938     2011.548     1876.964      621.914        1.598        0.226      165.698       20.655        0.016      341.718       16.625      863.535
06/30/2014  06:19:00     -167.606     -130.237      -19.482       47.079       36.756       23.935     2216.469     1351.007      572.883        2.479        0.207      212.258       22.255        0.011      341.722       16.629      863.547
06/30/2014  06:20:00     -122.609      -79.696       -3.798       42.457       38.617       21.514     1802.633     1491.293      462.871        1.258        0.188      146.234       19.843        0.018      341.727       16.642      863.562
06/30/2014  06:21:00     -115.076      -67.567        5.680       45.478       31.605       25.404     2068.267      998.880      645.359        1.078        0.186      133.446       23.671        0.031      341.769       16.712      863.562
06/30/2014  06:22:00     -107.285      -81.610       -4.492       29.501       35.482       20.820      870.319     1258.967      433.493        1.038        0.128      134.798       18.036        0.018      341.751       16.681      863.560
06/30/2014  06:23:00     -120.743      -88.999       -4.868       54.011       35.457       27.621     2917.216     1257.174      762.898        1.373        0.247      149.999       25.623        0.029      341.750       16.678      863.558
06/30/2014  06:24:00     -102.861      -74.580        7.276       59.918       41.302       28.095     3590.107     1705.844      789.350        1.114        0.304      127.053       25.708        0.041      341.784       16.739      863.565
06/30/2014  06:25:00     -105.871      -91.605        6.864       53.916       42.884       27.412     2906.920     1839.026      751.442        1.257        0.275      140.001       28.019        0.040      341.839       16.830      863.560
06/30/2014  06:26:00     -106.424      -98.183        3.385       60.763       43.661       28.589     3692.181     1906.276      817.356        1.370        0.321      144.796       32.391        0.050      341.892       16.920      863.561
06/30/2014  06:27:00     -131.702      -95.095        2.423       47.717       45.477       28.380     2276.893     2068.190      805.417        1.577        0.258      162.445       25.423        0.024      341.835       16.822      863.591
06/30/2014  06:28:00      -77.662      -64.155       -6.164       47.009       30.383       21.522     2209.829      923.111      463.201        0.689        0.180      100.733       19.296        0.037      341.880       16.899      863.610
06/30/2014  06:29:00      -57.988      -68.848       -1.654       32.978       21.421       19.247     1087.569      458.853      370.449        0.501        0.096       90.015       15.655        0.030      341.946       17.012      863.627
06/30/2014  06:30:00      -23.092      -56.740        7.949       29.689       25.765       18.231      881.410      663.821      332.359        0.285        0.094       61.259       15.951        0.068      342.022       17.140      863.652
06/30/2014  06:31:00      -26.076      -66.775       -4.723       31.579       35.426       19.017      997.252     1255.032      361.651        0.389        0.131       71.686       15.570        0.047      341.991       17.090      863.677
06/30/2014  06:32:00      -12.690      -48.738      -12.284       35.000       24.756       19.829     1225.009      612.855      393.180        0.246        0.112       50.363       15.538        0.095      341.886       16.910      863.700
06/30/2014  06:33:00      -69.738      -55.231      -16.432       29.483       26.942       21.180      869.221      725.889      448.605        0.511        0.102       88.960       19.644        0.049      341.941       17.003      863.708
06/30/2014  06:34:00      -60.770      -62.818        3.382       37.381       30.019       22.079     1397.304      901.130      487.463        0.522        0.139       87.402       16.091        0.034      341.886       16.908      863.722
06/30/2014  06:35:00      -80.939      -60.221        2.438       40.027       31.440       28.492     1602.170      988.465      811.786        0.679        0.170      100.884       23.064        0.052      341.885       16.909      863.736
06/30/2014  06:36:00      -94.760      -93.355       -1.026       36.901       32.430       26.034     1361.719     1051.697      677.745        1.039        0.155      133.021       23.148        0.030      341.889       16.914      863.739
06/30/2014  06:37:00     -122.911      -83.725       -9.383       24.669       28.897       17.492      608.548      835.011      305.966        1.198        0.087      148.717       13.866        0.009      341.935       16.994      863.753
06/30/2014  06:38:00     -111.580      -82.178       -2.569       32.530       27.506       17.211     1058.232      756.588      296.235        1.066        0.106      138.576       14.476        0.011      341.949       17.017      863.772
06/30/2014  06:39:00     -120.428      -87.575       -8.122       26.637       24.261       18.987      709.508      588.591      360.496        1.195        0.083      148.904       17.273        0.013      341.968       17.048      863.778
06/30/2014  06:40:00      -98.999      -91.440       -6.682       22.808       28.225       16.396      520.190      796.675      268.832        0.990        0.079      134.767       13.353        0.010      342.024       17.145      863.793
06/30/2014  06:41:00      -86.466      -82.692       -3.328       26.085       27.470       14.898      680.421      754.590      221.960        0.799        0.083      119.642       10.584        0.008      342.026       17.149      863.810
06/30/2014  06:42:00      -86.779      -70.357       -9.880       23.360       24.536       17.230      545.673      602.006      296.859        0.701        0.072      111.717       13.258        0.014      342.054       17.196      863.805
06/30/2014  06:43:00      -68.125      -54.189      -11.038       18.879       14.052       13.915      356.432      197.467      193.639        0.422        0.037       87.049        8.185        0.009      342.098       17.271      863.815
06/30/2014  06:44:00      -71.193      -79.028        0.943       33.008       31.590       18.817     1089.533      997.956      354.064        0.688        0.122      106.366       16.009        0.023      342.114       17.296      863.815
06/30/2014  06:45:00      -78.800      -79.585       -2.663       28.103       30.040       21.675      789.802      902.402      469.814        0.736        0.108      111.996       16.860        0.023      342.110       17.289      863.831
06/30/2014  06:46:00      -63.358      -45.264        2.554       41.994       24.918       20.680     1763.509      620.911      427.664        0.444        0.141       77.865       19.957        0.066      342.165       17.385      863.846
06/30/2014  06:47:00      -46.221      -40.330        5.135       39.645       32.927       20.193     1571.762     1084.184      407.743        0.343        0.153       61.343       21.925        0.128      342.269       17.560      863.855
06/30/2014  06:48:00      -72.020      -50.068       -9.901       29.176       26.738       18.150      851.260      714.911      329.406        0.484        0.095       87.714        6.606        0.006      342.209       17.459      863.865
06/30/2014  06:49:00      -89.696     -103.967      -12.007       29.702       30.036       22.143      882.199      902.174      490.293        1.064        0.114      137.312       14.750        0.012      342.173       17.397      863.861
06/30/2014  06:50:00     -102.951     -107.080       -3.287       30.179       33.152       22.167      910.783     1099.086      491.365        1.229        0.125      148.543       15.931        0.012      342.145       17.350      863.861
06/30/2014  06:51:00      -99.726     -100.451       -5.901       32.934       36.864       23.030     1084.633     1358.943      530.394        1.152        0.149      141.547       16.258        0.013      342.182       17.414      863.856
06/30/2014  06:52:00     -116.981      -93.859       -6.039       31.126       35.242       30.950      968.845     1241.983      957.905        1.285        0.158      149.980       17.048        0.013      342.188       17.423      863.847
06/30/2014  06:53:00     -126.050      -94.196       -4.017       32.979       29.366       18.980     1087.594      862.364      360.255        1.354        0.116      157.358       13.717        0.008      342.214       17.467      863.843
06/30/2014  06:54:00     -117.626     -101.197       -3.999       43.773       47.584       24.912     1916.080     2264.224      620.607        1.445        0.240      155.167       26.608        0.029      342.246       17.521      863.840
06/30/2014  06:55:00      -97.910      -94.960       -4.479       44.769       38.345       28.699     2004.277     1470.359      823.607        1.146        0.215      136.396       25.824        0.036      342.305       17.621      863.847
06/30/2014  06:56:00     -109.469      -59.439        6.435       45.407       41.526       24.549     2061.838     1724.423      602.649        0.997        0.219      124.565       20.442        0.027      342.307       17.624      863.851
06/30/2014  06:57:00      -89.964      -80.772       -0.575       47.022       35.019       24.456     2211.068     1226.345      598.110        0.933        0.202      120.903       24.681        0.042      342.352       17.703      863.860
06/30/2014  06:58:00     -106.856     -106.275      -11.037       34.703       26.481       25.338     1204.264      701.265      642.017        1.269        0.127      150.707       21.138        0.020      342.331       17.665      863.852
06/30/2014  06:59:00     -118.106      -81.921       -4.272       40.404       30.092       22.052     1632.469      905.547      486.277        1.185        0.151      143.736       18.888        0.017      342.386       17.757      863.860
06/30/2014  07:00:00      -86.720      -33.389       -5.186       49.963       27.595       19.270     2496.329      761.501      371.315        0.615        0.181       92.926       11.503        0.015      342.451       17.869      863.867
06/30/2014  07:01:00      -91.003      -77.318       -3.124       32.809       21.529       18.649     1076.463      463.499      347.791        0.808        0.094      119.414       15.751        0.017      342.443       17.855      863.891
06/30/2014  07:02:00      -85.754      -72.799        1.988       31.881       27.151       21.278     1016.424      737.164      452.743        0.743        0.110      112.488       16.400        0.021      342.478       17.916      863.904
06/30/2014  07:03:00      -84.801      -48.957       -4.244       44.989       40.896       28.445     2024.018     1672.450      809.090        0.706        0.225       97.918       24.701        0.064      342.546       18.032      863.923
06/30/2014  07:04:00      -79.410      -59.714       -3.646       33.975       26.571       21.735     1154.328      706.029      472.406        0.611        0.117       99.357       16.128        0.026      342.477       17.914      863.930
06/30/2014  07:05:00      -78.352      -68.207        3.153       40.700       30.943       24.563     1656.453      957.479      603.324        0.701        0.161      103.881       24.172        0.054      342.511       17.973      863.957
06/30/2014  07:06:00      -83.586      -82.727       -4.969       34.989       26.755       17.508     1224.201      715.824      306.547        0.805        0.112      117.602       14.985        0.016      342.506       17.964      863.959
06/30/2014  07:07:00      -44.293      -75.869        0.268       35.656       39.795       24.977     1271.377     1583.671      623.842        0.560        0.174       87.852       21.625        0.061      342.595       18.114      863.964
06/30/2014  07:08:00      -53.717      -76.800       -4.224       23.762       23.881       18.050      564.612      570.283      325.803        0.513        0.073       93.722       15.172        0.026      342.546       18.032      863.959
06/30/2014  07:09:00      -32.131      -39.607        3.844       26.821       33.987       19.393      719.387     1155.122      376.081        0.243        0.113       51.001       18.650        0.134      342.842       18.535      863.956
06/30/2014  07:10:00      -41.266      -41.841        6.367       36.666       34.643       20.900     1344.385     1200.143      436.810        0.324        0.149       58.767       20.522        0.122      342.864       18.571      863.947
06/30/2014  07:11:00      -29.540      -33.832        7.532       39.424       31.270       24.797     1554.254      977.840      614.913        0.261        0.157       44.913       22.952        0.261      343.011       18.822      863.953
06/30/2014  07:12:00      -42.649      -55.704        6.850       31.223       32.337       19.230      974.876     1045.684      369.805        0.368        0.120       70.156       16.807        0.057      342.850       18.548      863.944
06/30/2014  07:13:00      -35.724      -53.662       -5.647       14.308       19.713       15.588      204.722      388.598      242.982        0.251        0.042       64.466        9.929        0.024      342.708       18.307      863.950
06/30/2014  07:14:00      -28.766      -64.441        9.067       19.758       26.203       16.552      390.397      686.581      273.953        0.321        0.068       70.570       16.193        0.053      342.879       18.598      863.946
06/30/2014  07:15:00      -24.001      -24.954        4.829       36.865       19.741       14.778     1359.027      389.726      218.394        0.159        0.098       34.623       19.185        0.307      343.017       18.832      863.946
06/30/2014  07:16:00      -27.806      -62.787        7.008       25.852       24.406       18.120      668.317      595.635      328.323        0.318        0.080       68.668       12.552        0.033      342.816       18.492      863.942
06/30/2014  07:17:00      -44.000      -38.900        6.882       29.878       22.835       16.761      892.666      521.446      280.917        0.260        0.085       58.730       16.990        0.084      342.908       18.647      863.941
06/30/2014  07:18:00      -74.071      -82.417       -0.386       26.494       27.677       18.655      701.935      766.033      347.993        0.705        0.091      110.811       17.764        0.026      342.803       18.471      863.939
06/30/2014  07:19:00      -71.070     -103.702       -7.554       16.292       23.506       11.701      265.429      552.514      136.910        0.841        0.048      125.719       13.397        0.011      342.809       18.479      863.943
06/30/2014  07:20:00      -37.718      -61.358        2.075       28.634       19.959       16.488      819.895      398.363      271.859        0.334        0.075       72.024       14.019        0.038      342.884       18.605      863.950
06/30/2014  07:21:00      -65.277     -100.016       -7.137       12.368       15.172       12.066      152.974      230.200      145.598        0.742        0.026      119.433        7.302        0.004      342.896       18.628      863.960
06/30/2014  07:22:00      -36.341      -77.554        2.432       20.675       35.938       11.761      427.442     1291.528      138.315        0.460        0.093       85.646       17.676        0.043      343.025       18.848      863.958
06/30/2014  07:23:00      -31.665      -71.422        4.366       30.444       28.891       16.098      926.824      834.717      259.159        0.407        0.101       78.127       13.147        0.028      343.086       18.948      863.958
06/30/2014  07:24:00      -54.300     -100.275        0.133       26.432       38.395       17.539      698.672     1474.163      307.622        0.774        0.124      114.033       19.310        0.029      342.991       18.787      863.952
06/30/2014  07:25:00      -66.862      -87.969      -11.916       19.593       17.658       14.906      383.880      311.801      222.199        0.663        0.046      110.495        7.098        0.004      343.039       18.869      863.954
06/30/2014  07:26:00      -65.261      -74.792       -0.530       22.775       16.765       13.795      518.685      281.051      190.309        0.542        0.050       99.261       10.666        0.012      343.075       18.931      863.959
06/30/2014  07:27:00      -47.059      -66.012       -3.422       23.103       14.409       18.573      533.749      207.629      344.941        0.383        0.054       81.069       13.598        0.028      343.101       18.975      863.963
06/30/2014  07:28:00      -55.348      -88.079       -1.730       27.787       28.553       16.114      772.095      815.287      259.669        0.634        0.092      104.026       15.912        0.023      343.138       19.039      863.962
06/30/2014  07:29:00      -60.739      -79.415        1.451       31.670       33.632       19.033     1002.991     1131.126      362.270        0.625        0.125       99.980       21.305        0.045      343.238       19.209      863.962
06/30/2014  07:30:00      -46.938      -89.623        1.418       21.909       23.925       14.937      479.997      572.423      223.114        0.576        0.064      101.170       16.360        0.026      343.194       19.135      863.963
06/30/2014  07:31:00      -73.215      -69.584       -7.029       20.227       20.511       11.659      409.133      420.693      135.922        0.561        0.048      101.007        9.296        0.008      343.203       19.148      863.961
06/30/2014  07:32:00      -55.640      -69.907       -2.686       26.913       22.685       16.314      724.294      514.627      266.140        0.475        0.075       89.346       12.811        0.021      343.294       19.305      863.963
06/30/2014  07:33:00      -10.437      -83.223       -0.105       43.136       23.125       20.078     1860.752      534.756      403.123        0.492        0.140       83.875       16.921        0.041      343.371       19.435      863.967
06/30/2014  07:34:00      -19.753      -33.929        7.664       25.494       14.349       13.655      649.957      205.884      186.466        0.132        0.052       39.260       10.519        0.072      343.490       19.638      863.984
06/30/2014  07:35:00      -25.253      -79.385        1.871       10.911       12.013        9.408      119.047      144.302       88.502        0.365        0.018       83.305        6.724        0.007      343.383       19.454      863.992
06/30/2014  07:36:00      -40.272      -72.153       -1.170       15.045       16.532        9.415      226.366      273.319       88.639        0.371        0.029       82.630        2.082        0.001      343.411       19.501      864.002
06/30/2014  07:37:00      -41.175      -38.410        5.042       24.394       29.227       17.203      595.058      854.243      295.949        0.247        0.087       56.310       18.017        0.102      343.576       19.786      864.000
06/30/2014  07:38:00       32.841      -13.056       21.687       29.660       35.751       29.433      879.730     1278.156      866.285        0.237        0.151       35.341       24.407        0.477      343.283       19.286      864.004
06/30/2014  07:39:00       50.224      -21.840       16.601       30.729       26.561       29.426      944.250      705.480      865.864        0.289        0.126       54.767       19.258        0.124      343.433       19.542      864.009
06/30/2014  07:40:00       16.895      -19.570       14.245       23.766       24.390       25.179      564.826      594.892      633.960        0.133        0.090       25.854       19.576        0.573      343.737       20.061      864.009
06/30/2014  07:41:00      -30.381      -23.453        0.286       27.467       23.156       14.289      754.456      536.208      204.171        0.148        0.075       38.380        6.488        0.029      343.599       19.823      864.021
06/30/2014  07:42:00      -60.001      -57.976       -6.263       24.112       24.143       12.432      581.383      582.897      154.544        0.416        0.066       83.434       13.981        0.028      343.581       19.794      864.014
06/30/2014  07:43:00      -52.851      -44.765        1.588       17.990       21.010       11.732      323.653      441.408      137.636        0.285        0.045       69.262       10.452        0.023      343.676       19.954      864.019
06/30/2014  07:44:00      -36.135      -44.217        9.809       33.181       20.003       18.909     1100.957      400.104      357.555        0.261        0.093       57.104       20.981        0.135      343.816       20.194      864.020
06/30/2014  07:45:00      -32.543      -28.484        8.681       21.292       20.263       17.213      453.337      410.577      296.272        0.155        0.058       43.248       14.504        0.112      344.003       20.514      864.030
06/30/2014  07:46:00      -23.545      -24.167       10.951       18.777       26.694       19.681      352.580      712.548      387.350        0.136        0.073       33.740       15.211        0.203      344.254       20.942      864.027
06/30/2014  07:47:00      -45.220      -31.017       -1.963       29.555       23.474       19.252      873.523      551.023      370.645        0.240        0.090       54.835        7.962        0.021      343.714       20.021      864.023
06/30/2014  07:48:00      -51.617      -39.731        1.563       34.253       18.035       16.300     1173.295      325.268      265.700        0.300        0.088       65.137        8.836        0.018      343.783       20.136      864.025
06/30/2014  07:49:00      -25.766      -14.771        7.658       47.797       41.143       26.638     2284.601     1692.718      709.567        0.281        0.234       29.700       20.872        0.494      343.958       20.439      864.025
06/30/2014  07:50:00       67.620       -4.072       24.113       58.616       36.356       41.857     3435.894     1321.793     1752.032        0.584        0.325       67.742       37.356        0.304      343.778       20.131      864.030
06/30/2014  07:51:00       -0.770       -6.462       44.000       27.445       39.233       20.855      753.203     1539.194      434.946        0.235        0.136        6.508       22.438       11.889      344.374       21.149      864.045
06/30/2014  07:52:00      -24.128       -2.576       15.088       19.490       12.131       19.569      379.864      147.167      382.954        0.086        0.045       24.265       15.840        0.426      344.342       21.093      864.047
06/30/2014  07:53:00      -25.660       -7.090        1.408       25.504       15.858       11.940      650.469      251.485      142.567        0.088        0.052       26.622        9.032        0.115      343.986       20.484      864.066
06/30/2014  07:54:00      -39.023      -33.393        9.113       32.550       24.564       17.147     1059.510      603.409      294.024        0.234        0.098       51.361       12.470        0.059      344.004       20.514      864.064
06/30/2014  07:55:00       -9.794        4.021       18.359       20.900       13.564       16.896      436.817      183.990      285.485        0.068        0.045       10.588       14.072        1.766      344.464       21.303      864.071
06/30/2014  07:56:00       11.179       10.118        6.348       17.474       18.549       19.052      305.329      344.075      362.962        0.064        0.051       15.078        8.438        0.313      344.254       20.943      864.067
06/30/2014  07:57:00      -25.314        7.332       13.038       14.914       17.149       17.022      222.414      294.095      289.746        0.084        0.040       26.354       11.508        0.191      344.466       21.306      864.071
06/30/2014  07:58:00      -17.008      -42.600       -1.058       16.358       18.196       17.345      267.595      331.079      300.836        0.150        0.045       45.869       12.730        0.077      344.094       20.668      864.075
06/30/2014  07:59:00      -50.803      -25.537       -9.565       20.462       14.846       11.531      418.700      220.409      132.970        0.205        0.039       56.860        5.670        0.010      344.070       20.626      864.084
06/30/2014  08:00:00      -32.911       -0.531        0.390       14.808        8.789       10.057      219.276       77.244      101.134        0.074        0.020       32.915        5.785        0.031      344.187       20.829      864.093
06/30/2014  08:01:00      -20.958      -15.740       13.168       29.023       18.537       17.553      842.311      343.623      308.124        0.118        0.075       26.210       15.871        0.367      344.635       21.594      864.100
06/30/2014  08:02:00      -14.968      -21.366        3.291       36.109       17.293       23.778     1303.856      299.064      565.383        0.143        0.108       26.088       19.283        0.546      344.324       21.064      864.105
06/30/2014  08:03:00      -59.868      -28.254       -1.901       27.061       20.923       16.620      732.286      437.767      276.218        0.292        0.072       66.200       12.775        0.037      344.172       20.801      864.094
06/30/2014  08:04:00      -57.377      -24.666        1.809       17.822       16.729       11.806      317.615      279.851      139.377        0.232        0.037       62.455        9.025        0.021      344.236       20.912      864.099
06/30/2014  08:05:00      -33.201       12.872        5.830       24.899       16.653       17.734      619.977      277.324      314.501        0.126        0.061       35.609       13.546        0.145      344.560       21.468      864.098
06/30/2014  08:06:00        7.233        2.812       19.296       20.303       19.163       22.040      412.205      367.202      485.743        0.085        0.063        7.761       16.053        4.279      344.579       21.499      864.098
06/30/2014  08:07:00       22.734       10.056       29.842       37.195       29.940       22.754     1383.467      896.398      517.747        0.215        0.140       24.858       18.424        0.549      344.288       21.000      864.106
06/30/2014  08:08:00        0.860        9.367       18.491       23.340       26.686       25.941      544.749      712.153      672.935        0.118        0.096        9.407       18.822        4.004      344.658       21.636      864.099
06/30/2014  08:09:00      -19.409       -5.000       13.762       15.682       16.528       26.384      245.917      273.169      696.116        0.090        0.061       20.043       15.914        0.630      345.060       22.324      864.104
06/30/2014  08:10:00      -18.433        9.774       15.038       18.511       14.973       22.578      342.650      224.185      509.760        0.087        0.054       20.864       14.452        0.480      345.303       22.739      864.094
06/30/2014  08:11:00      -19.603        6.968        5.584       16.000       13.696       14.803      255.992      187.570      219.130        0.056        0.033       20.804       11.956        0.330      344.702       21.710      864.096
06/30/2014  08:12:00       -0.218        7.257       -1.751       20.220       16.811       20.687      408.866      282.594      427.937        0.059        0.056        7.260       12.519        2.974      344.796       21.870      864.099
06/30/2014  08:13:00        4.000        6.937       30.806       15.066       15.593       24.176      226.990      243.140      584.499        0.103        0.053        8.008       16.396        4.192      345.208       22.576      864.105
06/30/2014  08:14:00      -15.589      -15.814       16.995       20.060       19.347       17.571      402.415      374.317      308.745        0.093        0.054       22.206       12.727        0.328      345.117       22.419      864.112
06/30/2014  08:15:00      -31.523      -10.959       13.955       19.299       14.097       13.129      372.442      198.737      172.370        0.103        0.037       33.374       10.659        0.102      344.715       21.731      864.119
06/30/2014  08:16:00      -17.866        2.004       15.075       18.978       16.407       19.427      360.148      269.183      377.417        0.078        0.050       17.978       17.144        0.909      345.348       22.816      864.127
06/30/2014  08:17:00      -33.120      -49.270       -5.023       41.884       34.886       23.464     1754.247     1217.061      550.549        0.354        0.176       59.367       18.522        0.097      344.698       21.701      864.130
06/30/2014  08:18:00       14.730       27.687       45.771       32.036       31.344       22.798     1026.299      982.434      519.769        0.280        0.126       31.362       23.978        0.585      345.197       22.556      864.139
06/30/2014  08:19:00      -12.430        4.567       30.390       15.295       14.226       18.166      233.930      202.375      330.011        0.093        0.038       13.242       12.320        0.866      345.760       23.522      864.144
06/30/2014  08:20:00        1.094      -20.742       13.792       23.428       32.172       33.936      548.852     1035.023     1151.677        0.168        0.137       20.771       30.280        2.125      345.450       22.990      864.152
06/30/2014  08:21:00       -1.562       -7.685       37.136       36.593       59.129       24.483     1339.038     3496.194      599.419        0.344        0.272        7.842       25.460       10.540      345.315       22.759      864.141
06/30/2014  08:22:00        2.551       10.006       49.643       33.463       48.926       20.764     1119.758     2393.756      431.132        0.326        0.197       10.326       20.114        3.794      345.677       23.378      864.128
06/30/2014  08:23:00      -25.204       -9.415       28.350       32.515       36.241       28.628     1057.199     1313.427      819.543        0.236        0.160       26.905       25.475        0.897      345.186       22.537      864.121
06/30/2014  08:24:00       -1.384      -12.130       48.145       21.238       36.581       22.032      451.057     1338.191      485.407        0.237        0.114       12.209       18.453        2.284      345.829       23.638      864.104
06/30/2014  08:25:00        7.551       -9.355       41.564       29.983       42.192       30.337      898.974     1780.174      920.362        0.274        0.180       12.022       31.727        6.965      346.009       23.949      864.106
06/30/2014  08:26:00       86.969       58.831       51.647       70.608       56.278       33.405     4985.429     3167.244     1115.888        1.148        0.463      104.999       23.222        0.049      345.267       22.676      864.111
06/30/2014  08:27:00       64.584       47.003        5.820       26.318       24.516       25.663      692.619      601.045      658.565        0.418        0.098       79.877       14.348        0.032      344.898       22.045      864.126
06/30/2014  08:28:00       12.235       44.014        1.656       16.675       23.240       18.576      278.068      540.088      345.071        0.163        0.058       45.683       10.028        0.048      345.242       22.632      864.132
06/30/2014  08:29:00       22.196       36.825       22.392       37.930       36.954       25.434     1438.718     1365.593      646.889        0.290        0.173       42.997       18.702        0.189      345.861       23.695      864.142
06/30/2014  08:30:00        3.004       25.643       47.350       16.503       34.448       25.785      272.336     1186.644      664.870        0.252        0.106       25.818       21.717        0.708      346.026       23.977      864.143
06/30/2014  08:31:00       11.495       42.924       30.163       27.864       35.731       18.791      776.384     1276.685      353.088        0.264        0.120       44.436       13.284        0.089      345.872       23.714      864.143
06/30/2014  08:32:00        6.594       35.998       53.288       32.179       38.117       28.990     1035.512     1452.888      840.398        0.375        0.166       36.597       19.320        0.279      345.932       23.817      864.155
06/30/2014  08:33:00       58.152       27.912       37.542       41.717       36.314       43.044     1740.339     1318.697     1852.749        0.524        0.246       64.503       30.545        0.224      345.158       22.489      864.172
06/30/2014  08:34:00       20.940       -0.672       32.996       29.862       26.634       15.334      891.711      709.383      235.139        0.168        0.092       20.951       12.429        0.352      345.707       23.431      864.174
06/30/2014  08:35:00        3.071       16.945       25.336       31.108       26.047       19.597      967.694      678.421      384.057        0.148        0.102       17.221       11.266        0.428      345.895       23.753      864.186
06/30/2014  08:36:00       31.009       14.974       18.689       35.893       19.855       23.441     1288.287      394.215      549.478        0.188        0.112       34.436       22.872        0.441      345.904       23.769      864.190
06/30/2014  08:37:00       32.804       93.479       -6.070       35.286       64.115       29.493     1245.104     4110.779      869.811        0.804        0.311       99.068       35.628        0.129      345.451       22.991      864.192
06/30/2014  08:38:00       12.706       35.358      -17.703       33.298       41.092       25.973     1108.743     1688.574      674.597        0.260        0.174       37.572       16.593        0.195      345.345       22.809      864.201
06/30/2014  08:39:00       40.912       57.441        8.670       21.431       31.721       30.650      459.305     1006.237      939.394        0.373        0.120       70.522       15.060        0.046      345.290       22.716      864.206
06/30/2014  08:40:00       57.013       45.089        2.548       46.230       27.878       28.843     2137.256      777.177      831.916        0.452        0.187       72.687       12.586        0.030      345.288       22.713      864.201
06/30/2014  08:41:00       52.629       19.940       34.540       28.760       46.188       31.314      827.151     2133.360      980.576        0.415        0.197       56.280       17.980        0.102      345.439       22.972      864.205
06/30/2014  08:42:00       26.241       -5.347       28.502       29.470       24.959       30.500      868.476      622.961      930.268        0.198        0.121       26.781       21.076        0.619      345.899       23.760      864.195
06/30/2014  08:43:00       28.758        7.403       17.215       22.587       14.912       20.221      510.189      222.362      408.885        0.116        0.057       29.695        7.842        0.070      345.694       23.408      864.210
06/30/2014  08:44:00        8.790       31.734       38.863       24.743       38.141       24.447      612.214     1454.714      597.648        0.263        0.133       32.929        9.317        0.080      346.411       24.640      864.213
06/30/2014  08:45:00       72.517       42.379       13.907       23.438       16.629       27.469      549.351      276.523      754.549        0.441        0.079       83.992       11.328        0.018      345.272       22.685      864.211
06/30/2014  08:46:00       39.144       38.903       -5.398       26.449       30.976       22.938      699.565      959.543      526.147        0.263        0.109       55.188       11.907        0.047      345.307       22.745      864.211
06/30/2014  08:47:00       64.021       65.297       35.000       40.836       36.084       28.657     1667.575     1302.045      821.222        0.669        0.190       91.447        9.878        0.012      345.694       23.408      864.203
06/30/2014  08:48:00       35.015       36.242       -0.764       32.467       27.306       27.091     1054.089      745.624      733.949        0.254        0.127       50.394       11.009        0.048      345.569       23.194      864.198
06/30/2014  08:49:00       23.300       21.005       23.257       30.963       19.515       26.941      958.692      380.827      725.799        0.179        0.103       31.370       17.934        0.327      346.167       24.222      864.192
06/30/2014  08:50:00       -4.111        2.707       -3.624       41.485       19.653       21.289     1720.973      386.238      453.215        0.130        0.128        4.922       14.334        8.481      345.606       23.257      864.185
06/30/2014  08:51:00      -33.479        0.100       10.919       29.328       14.315       17.391      860.122      204.910      302.447        0.130        0.068       33.479       18.625        0.309      345.944       23.838      864.175
06/30/2014  08:52:00      -18.578        5.091       23.039       12.426       13.924       15.229      154.407      193.877      231.923        0.074        0.029       19.263        9.791        0.258      346.253       24.368      864.176
06/30/2014  08:53:00        8.185       25.183       23.077       24.162       32.003       24.443      583.823     1024.211      597.476        0.172        0.110       26.480       24.526        0.858      346.335       24.510      864.179
06/30/2014  08:54:00       37.778       38.689       18.414       50.375       37.204       31.687     2537.648     1384.166     1004.087        0.409        0.246       54.074       20.373        0.142      346.392       24.608      864.177
06/30/2014  08:55:00      116.640       76.990       20.466       40.298       39.889       39.343     1623.914     1591.114     1547.833        1.236        0.238      139.758       12.111        0.008      345.804       23.597      864.175
06/30/2014  08:56:00       73.465       75.913       10.250       43.258       34.336       35.028     1871.291     1178.985     1226.932        0.777        0.214      105.640       20.350        0.037      345.786       23.565      864.173
06/30/2014  08:57:00      125.398       85.451       11.196       50.414       40.003       37.072     2541.541     1600.252     1374.310        1.433        0.276      151.745       19.302        0.016      346.058       24.031      864.165
06/30/2014  08:58:00       80.438       57.600        3.502       28.928       36.808       30.420      836.827     1354.862      925.380        0.646        0.156       98.935       27.209        0.076      345.831       23.642      864.173
06/30/2014  08:59:00        1.091      127.906      -13.659       27.957       51.817       27.428      781.589     2685.039      752.300        1.038        0.211      127.911       27.853        0.047      345.889       23.744      864.174
06/30/2014  09:00:00        3.725      113.595       -8.656       25.809       44.260       21.999      666.130     1958.941      483.969        0.805        0.155      113.656       24.607        0.047      345.841       23.660      864.182
06/30/2014  09:01:00        4.205       18.184       15.817       25.010       23.376       23.060      625.492      546.429      531.753        0.115        0.085       18.664       12.218        0.429      346.741       25.206      864.189
06/30/2014  09:02:00       37.586       46.464       61.755       44.416       40.998       29.667     1972.758     1680.801      880.156        0.596        0.227       59.763       16.514        0.076      346.490       24.776      864.192
06/30/2014  09:03:00       13.358       59.555       93.720       42.101       49.950       34.726     1772.479     2495.038     1205.923        0.899        0.274       61.035       34.677        0.323      346.544       24.869      864.199
06/30/2014  09:04:00       99.029       90.028       39.192       43.867       42.502       47.923     1924.285     1806.456     2296.632        1.274        0.301      133.835       25.161        0.035      345.979       23.897      864.211
06/30/2014  09:05:00       18.479       64.003       31.688       42.487       45.015       27.164     1805.109     2026.393      737.898        0.500        0.228       66.618       18.097        0.074      346.131       24.158      864.210
06/30/2014  09:06:00       34.033       17.402       20.340       26.885       20.741       28.173      722.828      430.203      793.726        0.191        0.097       38.224       14.909        0.152      346.608       24.979      864.212
06/30/2014  09:07:00       40.402       19.238       25.870       59.346       34.219       32.015     3521.892     1170.914     1024.984        0.419        0.286       44.749       27.817        0.386      346.676       25.096      864.214
06/30/2014  09:08:00       31.904       17.746       27.691       36.803       42.049       38.348     1354.498     1768.112     1470.551        0.335        0.230       36.507       19.694        0.291      346.842       25.380      864.214
06/30/2014  09:09:00       30.816       37.015       60.077       50.202       48.604       38.464     2520.259     2362.365     1479.505        0.614        0.318       48.164       37.868        0.618      346.567       24.908      864.222
06/30/2014  09:10:00       35.999       23.310       16.204       36.480       25.612       26.174     1330.789      655.963      685.101        0.239        0.134       42.887       19.073        0.198      346.154       24.197      864.214
06/30/2014  09:11:00      -18.078        4.994        9.917       19.161       20.588       22.875      367.129      423.867      523.250        0.088        0.066       18.755        8.706        0.215      346.570       24.913      864.207
06/30/2014  09:12:00      -19.840       21.175       38.077       34.955       34.819       37.412     1221.883     1212.385     1399.685        0.306        0.192       29.018       35.840        1.525      346.826       25.353      864.205
06/30/2014  09:13:00      148.610      106.109       62.233       78.013       49.016       51.460     6085.975     2402.572     2648.153        2.418        0.557      182.604       44.698        0.060      345.899       23.757      864.195
06/30/2014  09:14:00       44.748       59.194       62.613       33.821       33.649       22.305     1143.843     1132.283      497.534        0.610        0.139       74.205       17.561        0.056      345.854       23.681      864.198
06/30/2014  09:15:00       36.629       23.416       62.945       35.480       40.427       26.653     1258.819     1634.305      710.381        0.473        0.180       43.474       24.688        0.322      346.247       24.359      864.184
06/30/2014  09:16:00       13.752       38.137       69.877       33.043       44.154       17.167     1091.840     1949.595      294.714        0.493        0.167       40.541       19.274        0.226      346.604       24.971      864.173
06/30/2014  09:17:00       -2.037       26.429       48.370       29.895       23.936       17.331      893.720      572.935      300.359        0.240        0.088       26.507       16.224        0.375      346.492       24.779      864.158
06/30/2014  09:18:00       12.281        3.625       49.137       53.653       63.524       39.474     2878.611     4035.273     1558.206        0.552        0.424       12.805       32.317        6.370      346.301       24.450      864.151
06/30/2014  09:19:00      117.566       70.026       45.566       54.727       36.700       51.404     2995.021     1346.910     2642.422        1.389        0.349      136.841       11.047        0.007      345.945       23.839      864.156
06/30/2014  09:20:00      130.929       41.311       24.416       82.045       59.201       44.080     6731.417     3504.770     1943.069        1.581        0.609      137.292       33.323        0.059      346.107       24.117      864.153
06/30/2014  09:21:00       86.173       80.579       48.063       75.316       53.401       63.150     5672.558     2851.643     3987.907        1.437        0.626      117.978       48.499        0.169      346.274       24.403      864.150
06/30/2014  09:22:00      108.319       78.625       16.078       49.238       42.726       39.343     2424.421     1825.508     1547.908        1.198        0.290      133.847       19.649        0.022      346.153       24.196      864.139
06/30/2014  09:23:00      103.014       45.521       57.049       66.672       68.862       50.817     4445.154     4741.960     2582.337        1.385        0.588      112.623       37.023        0.108      346.422       24.658      864.145
06/30/2014  09:24:00      131.963       89.453        8.230       71.739       51.894       49.877     5146.493     2692.960     2487.689        1.790        0.516      159.424       26.213        0.027      346.044       24.007      864.138
06/30/2014  09:25:00       93.537       84.791       45.716       96.359       74.901       55.874     9285.121     5610.220     3121.879        1.802        0.901      126.249       44.716        0.125      346.317       24.478      864.121
06/30/2014  09:26:00       41.762      162.143      174.997       70.625       85.708       50.020     4987.959     7345.847     2501.996        3.674        0.742      167.435       56.694        0.115      346.215       24.298      864.140
06/30/2014  09:27:00       79.632       57.332       22.666       42.843       49.845       34.920     1835.534     2484.562     1219.422        0.784        0.277       98.124       12.380        0.016      345.951       23.848      864.156
06/30/2014  09:28:00       91.325      -16.363        2.625       56.074       85.844       35.000     3144.300     7369.152     1225.028        1.017        0.587       92.779       37.995        0.168      346.236       24.339      864.151
06/30/2014  09:29:00       74.750      -87.454        0.613       75.883       88.057       54.954     5758.166     7754.092     3019.933        1.488        0.827      115.047       58.405        0.258      346.576       24.922      864.137
06/30/2014  09:30:00       30.835      -70.727       -0.032       52.062       55.928       35.324     2710.417     3127.938     1247.761        0.652        0.354       77.156       30.363        0.155      346.476       24.751      864.143
06/30/2014  09:31:00       -5.212      -51.001       35.885       52.680       78.288       44.215     2775.221     6129.063     1954.938        0.739        0.543       51.266       44.590        0.756      346.855       25.402      864.127
06/30/2014  09:32:00       11.379       23.135       59.048       52.278       77.247       53.617     2732.983     5967.128     2874.781        0.786        0.579       25.782       44.128        2.930      347.009       25.669      864.136
06/30/2014  09:33:00       21.121       40.989       53.213       37.334       56.617       36.472     1393.862     3205.468     1330.181        0.544        0.296       46.110       36.692        0.633      346.967       25.596      864.121
06/30/2014  09:34:00       40.889      -86.467       16.643       76.650      123.397       58.558     5875.187    15226.881     3429.081        1.697        1.227       95.648       73.317        0.588      346.888       25.458      864.122
06/30/2014  09:35:00       76.152      -21.120       28.778       97.882      140.753       51.719     9580.818    19811.289     2674.897        1.956        1.603       79.026       47.563        0.362      346.966       25.592      864.095
06/30/2014  09:36:00      175.909      124.590       15.102       66.095       46.840       46.377     4368.574     2194.009     2150.857        2.770        0.436      215.561       32.771        0.023      346.331       24.499      864.114
06/30/2014  09:37:00      173.600       92.697       -4.836       78.209       68.103       34.815     6116.614     4637.970     1212.113        2.536        0.598      196.799       22.749        0.013      346.131       24.155      864.121
06/30/2014  09:38:00       62.381       59.644       17.791       41.870       35.978       28.591     1753.076     1294.419      817.433        0.581        0.193       86.306       28.261        0.107      346.052       24.022      864.105
06/30/2014  09:39:00       52.661       37.391       25.910       40.012       40.112       25.108     1600.997     1608.985      630.428        0.434        0.192       64.586       21.325        0.109      346.855       25.403      864.099
06/30/2014  09:40:00       48.860       25.198       24.075       54.726       38.461       29.831     2994.904     1479.260      889.913        0.448        0.268       54.975       19.501        0.126      346.938       25.545      864.083
06/30/2014  09:41:00       86.707       72.694       19.268       65.524       51.854       43.359     4293.345     2688.805     1880.015        1.102        0.443      113.149       24.978        0.049      346.723       25.176      864.066
06/30/2014  09:42:00       60.462      -54.628       24.253       65.202       90.547       48.765     4251.261     8198.678     2378.011        1.103        0.741       81.486       53.482        0.431      346.902       25.484      864.052
06/30/2014  09:43:00       92.812       53.121       59.120       63.422       86.403       53.794     4022.408     7465.458     2893.804        1.465        0.719      106.939       50.442        0.222      346.782       25.277      864.046
06/30/2014  09:44:00      118.815      101.167       -2.110       68.519       60.938       42.488     4694.812     3713.447     1805.251        1.728        0.511      156.051       32.867        0.044      346.352       24.538      864.053
06/30/2014  09:45:00      179.611      120.809       36.612       57.638       63.250       47.635     3322.159     4000.614     2269.128        2.889        0.480      216.460       35.531        0.027      346.568       24.907      864.038
06/30/2014  09:46:00      113.154      103.012       45.261       72.209       55.305       51.720     5214.165     3058.630     2674.974        1.820        0.547      153.021       11.156        0.005      346.629       25.013      864.039
06/30/2014  09:47:00       22.136      -17.634       31.320       55.156       54.127       42.738     3042.176     2929.734     1826.566        0.479        0.390       28.301       41.988        2.201      347.083       25.795      864.037
06/30/2014  09:48:00       64.020       42.772       27.481       55.252       43.611       41.843     3052.772     1901.961     1750.822        0.669        0.335       76.994       14.770        0.037      347.184       25.970      864.053
06/30/2014  09:49:00      157.743       95.872       10.034       62.163       63.135       63.579     3864.296     3985.985     4042.298        2.303        0.595      184.593       20.090        0.012      346.658       25.062      864.052
06/30/2014  09:50:00      104.438       61.080       -3.746       78.814       49.935       35.636     6211.608     2493.521     1269.944        1.231        0.499      120.988       34.287        0.080      346.346       24.526      864.050
06/30/2014  09:51:00        8.638       41.108        8.077       27.925       34.500       28.008      779.816     1190.223      784.428        0.229        0.138       42.006       18.183        0.187      347.004       25.660      864.040
06/30/2014  09:52:00       85.927       71.609        2.121       64.739       37.197       35.181     4191.145     1383.625     1237.705        0.966        0.341      111.854       25.187        0.051      346.862       25.416      864.033
06/30/2014  09:53:00       63.045       60.612       37.441       67.994       40.926       38.039     4623.135     1674.936     1446.953        0.840        0.387       87.456       32.024        0.134      347.240       26.067      864.019
06/30/2014  09:54:00      142.655       65.994       35.405       75.793       61.778       53.393     5744.552     3816.502     2850.763        1.918        0.621      157.181       39.102        0.062      346.844       25.382      864.017
06/30/2014  09:55:00       98.347       76.803       23.608       94.315       46.011       37.473     8895.367     2117.009     1404.242        1.427        0.621      124.783       18.510        0.022      346.697       25.131      863.992
06/30/2014  09:56:00       76.319       37.093       32.075       46.267       39.203       44.717     2140.602     1536.855     1999.640        0.695        0.284       84.855       29.609        0.122      347.026       25.697      863.980
06/30/2014  09:57:00       67.266       34.438       16.051       37.361       35.979       36.868     1395.814     1294.506     1359.229        0.501        0.202       75.569       26.188        0.120      346.634       25.023      863.964
06/30/2014  09:58:00       88.617       38.715        7.627       50.471       38.223       38.515     2547.293     1461.014     1483.409        0.745        0.275       96.705       26.867        0.077      346.845       25.386      863.955
06/30/2014  09:59:00       40.258      -40.132       28.651       60.680       62.175       38.541     3682.095     3865.744     1485.381        0.654        0.452       56.844       28.277        0.247      347.552       26.605      863.941
06/30/2014  10:00:00      102.095       69.282       63.796       70.528       83.405       59.647     4974.212     6956.418     3557.760        1.739        0.774      123.383       48.046        0.152      347.293       26.157      863.949
06/30/2014  10:01:00      108.608       72.023       58.197       89.203       67.898       54.043     7957.148     4610.173     2920.665        1.793        0.774      130.318       32.074        0.061      347.423       26.380      863.947
06/30/2014  10:02:00      144.324       91.552       68.581       83.236       55.274       69.745     6928.176     3055.246     4864.409        2.438        0.742      170.913       60.916        0.127      346.929       25.528      863.953
06/30/2014  10:03:00      113.998      -48.129       29.377       72.024       88.486       42.173     5187.387     7829.763     1778.532        1.548        0.740      123.741       43.131        0.121      346.715       25.161      863.943
06/30/2014  10:04:00       35.542       34.216       79.554       44.352       83.461       51.425     1967.069     6965.788     2644.542        1.017        0.579       49.335       52.762        1.144      347.347       26.250      863.903
06/30/2014  10:05:00      102.420      -74.488       51.909      122.977      138.386       76.513    15123.380    19150.549     5854.180        2.942        2.006      126.642       85.997        0.461      347.242       26.067      863.887
06/30/2014  10:06:00       84.779       95.315      107.204       65.893       72.392       46.745     4341.872     5240.584     2185.103        1.976        0.588      127.563       20.759        0.026      347.443       26.416      863.892
06/30/2014  10:07:00      197.210      103.244       51.556      110.772       75.397       62.792    12270.390     5684.724     3942.852        3.705        1.095      222.601       54.654        0.060      346.952       25.568      863.918
06/30/2014  10:08:00      158.277       95.596       52.189       72.980       58.859       51.256     5326.099     3464.436     2627.134        2.416        0.571      184.906       39.002        0.044      346.909       25.492      863.918
06/30/2014  10:09:00      157.626       79.079       33.509       66.997       53.344       50.009     4488.646     2845.613     2500.921        2.103        0.492      176.351       35.419        0.040      347.012       25.673      863.913
06/30/2014  10:10:00      145.086       79.281       44.284      107.548       90.306       78.740    11566.646     8155.164     6200.029        2.760        1.296      165.334       49.982        0.091      347.048       25.733      863.895
06/30/2014  10:11:00      125.410      130.205      111.643       78.816       66.359       68.445     6212.004     4403.506     4684.750        3.022        0.765      180.779       55.103        0.093      346.917       25.507      863.895
06/30/2014  10:12:00       60.504       26.645       44.608       70.919       44.494       47.134     5029.473     1979.740     2221.658        0.779        0.462       66.111       37.952        0.330      347.090       25.808      863.883
06/30/2014  10:13:00       42.614      -21.330       40.707       53.850       78.117       54.488     2899.809     6102.298     2968.898        0.795        0.599       47.654       57.320        1.447      347.627       26.734      863.865
06/30/2014  10:14:00       62.280       74.227       -2.330       70.893       53.458       45.870     5025.843     2857.763     2104.060        0.969        0.499       96.894       30.177        0.097      347.364       26.279      863.883
06/30/2014  10:15:00       52.613      187.979      -27.134       52.222       75.493       42.799     2727.176     5699.206     1831.733        2.455        0.513      195.203       36.404        0.035      346.907       25.490      863.898
06/30/2014  10:16:00       13.932       57.454       -6.357       29.709       46.481       29.247      882.599     2160.514      855.396        0.372        0.195       59.119       22.704        0.147      346.958       25.581      863.882
06/30/2014  10:17:00       61.985       74.731        7.473       55.250       55.721       40.176     3052.509     3104.827     1614.102        0.863        0.389       97.092       29.998        0.095      347.086       25.800      863.864
06/30/2014  10:18:00        4.052      145.778      -14.883       85.174       88.110       37.432     7254.589     7763.445     1401.151        1.895        0.821      145.834       42.074        0.083      347.066       25.764      863.858
06/30/2014  10:19:00       12.476       57.042        9.638       35.475       43.991       32.700     1258.467     1935.174     1069.274        0.388        0.213       58.391       27.518        0.222      347.612       26.708      863.850
06/30/2014  10:20:00       70.146       34.898       28.906       35.408       26.064       30.910     1253.744      679.320      955.399        0.493        0.144       78.348       11.575        0.022      347.419       26.375      863.844
06/30/2014  10:21:00      110.218       66.794       49.853       83.440       52.235       56.646     6962.229     2728.491     3208.735        1.599        0.645      128.878       53.606        0.173      347.537       26.577      863.840
06/30/2014  10:22:00      177.452      141.622       81.800      108.957       76.001       79.094    11871.583     5776.116     6255.859        4.107        1.195      227.037       68.274        0.090      347.291       26.151      863.832
06/30/2014  10:23:00      145.535      103.982       16.110       92.546       84.766       73.995     8564.837     7185.223     5475.232        2.674        1.061      178.865       51.815        0.084      347.168       25.939      863.839
06/30/2014  10:24:00      237.390      135.076       34.348       94.490      101.496       65.386     8928.286    10301.407     4275.393        4.964        1.175      273.129       21.612        0.006      347.105       25.829      863.823
06/30/2014  10:25:00      254.213      116.762       54.633       98.420       92.927       63.942     9686.532     8635.435     4088.607        5.182        1.121      279.746       43.358        0.024      347.289       26.146      863.810
06/30/2014  10:26:00      227.569      136.741       62.279      124.244       66.460       64.157    15436.672     4416.901     4116.066        4.916        1.198      265.491       56.802        0.046      347.229       26.044      863.796
06/30/2014  10:27:00      147.146       48.491       56.941      112.605      136.979       60.291    12679.923    18763.269     3635.044        3.116        1.754      154.930       74.372        0.230      347.364       26.278      863.809
06/30/2014  10:28:00       64.093       13.670       89.350       73.835       75.926       57.162     5451.607     5764.815     3267.505        1.338        0.724       65.535       53.774        0.673      347.643       26.762      863.812
06/30/2014  10:29:00       39.555      -90.829        5.310       70.968       95.348       57.464     5036.520     9091.211     3302.142        1.363        0.871       99.068       65.029        0.431      347.656       26.782      863.781
06/30/2014  10:30:00       99.008       74.166       62.157      100.057       71.578       52.298    10011.422     5123.461     2735.095        1.852        0.893      123.706       34.317        0.077      347.714       26.883      863.778
06/30/2014  10:31:00      118.531       85.389       77.909       86.581       58.253       60.452     7496.212     3393.452     3654.426        2.098        0.727      146.086       61.261        0.176      347.520       26.546      863.779
06/30/2014  10:32:00      129.290       72.952       46.798       63.744       77.538       51.593     4063.247     6012.177     2661.793        1.848        0.637      148.452       45.152        0.093      347.408       26.354      863.763
06/30/2014  10:33:00       66.082       20.494       21.842       62.941       46.791       41.547     3961.531     2189.370     1726.189        0.657        0.394       69.187       40.176        0.337      348.078       27.514      863.734
06/30/2014  10:34:00       13.819      -38.706       13.566       50.638       48.249       27.688     2564.189     2327.940      766.653        0.377        0.283       41.099       18.459        0.202      348.083       27.520      863.729
06/30/2014  10:35:00       96.755      -58.750       53.908       88.066       92.880       64.386     7755.657     8626.671     4145.506        1.812        1.026      113.195       54.356        0.231      347.828       27.079      863.714
06/30/2014  10:36:00       82.028      -74.415       34.380       83.434      128.689       75.842     6961.167    16560.807     5751.938        2.136        1.464      110.753       80.734        0.531      347.690       26.839      863.692
06/30/2014  10:37:00       22.307      -19.424       63.162       46.654       81.792       51.355     2176.624     6689.858     2637.286        0.818        0.575       29.579       39.763        1.807      347.917       27.234      863.682
06/30/2014  10:38:00       15.085      -12.909       13.995       28.329       36.704       35.959      802.524     1347.188     1293.015        0.202        0.172       19.855       31.534        2.523      347.781       27.000      863.675
06/30/2014  10:39:00       82.502        2.339       24.299       31.842       39.139       33.357     1013.926     1531.876     1112.663        0.553        0.183       82.535       25.855        0.098      347.537       26.578      863.661
06/30/2014  10:40:00       22.899       60.632       43.935       29.205       29.715       29.399      852.921      883.010      864.323        0.437        0.130       64.812       16.098        0.062      347.862       27.140      863.648
06/30/2014  10:41:00        3.305       19.606       48.396       22.490       26.957       17.224      505.795      726.660      296.662        0.213        0.076       19.882       11.579        0.339      348.413       28.091      863.642
06/30/2014  10:42:00       23.200       45.756       75.476       48.647       58.460       48.962     2366.541     3417.553     2397.308        0.825        0.409       51.302       36.853        0.516      348.404       28.077      863.639
06/30/2014  10:43:00      223.036      161.890       77.302      107.968       67.857       82.844    11657.013     4604.600     6863.052        5.252        1.156      275.597       59.107        0.046      347.693       26.844      863.640
06/30/2014  10:44:00      229.989       81.343       34.729      141.415       97.298       71.117    19998.215     9466.958     5057.558        4.761        1.726      243.950       69.159        0.080      347.591       26.667      863.638
06/30/2014  10:45:00       80.541       50.639       53.654       86.286       79.122       64.778     7445.327     6260.350     4196.221        1.491        0.895       95.138       61.356        0.416      347.871       27.153      863.641
06/30/2014  10:46:00      196.288      155.071       24.390      130.116       93.202       72.316    16930.108     8686.704     5229.572        4.700        1.542      250.152       46.385        0.034      347.711       26.877      863.640
06/30/2014  10:47:00      200.783      115.179       25.932       63.346       57.557       44.020     4012.747     3312.758     1937.754        3.176        0.463      231.473       28.141        0.015      347.478       26.473      863.634
06/30/2014  10:48:00      218.467      110.848       16.438       80.072       69.941       53.819     6411.523     4891.741     2896.517        3.724        0.710      244.979       38.748        0.025      347.626       26.727      863.621
06/30/2014  10:49:00      161.901      120.158       69.323      142.435       82.742       85.674    20287.693     6846.184     7339.978        3.996        1.724      201.618       67.242        0.111      348.011       27.394      863.615
06/30/2014  10:50:00      141.846       91.900       55.032       83.726       70.389       69.430     7010.123     4954.580     4820.516        2.419        0.839      169.014       47.396        0.079      347.920       27.238      863.611
06/30/2014  10:51:00      169.840      110.882       22.765       51.340       46.192       53.990     2635.842     2133.664     2914.959        2.467        0.384      202.832       30.351        0.022      347.505       26.520      863.608
06/30/2014  10:52:00      104.135       78.851       77.789       68.036       51.141       43.600     4628.928     2615.442     1900.984        1.613        0.457      130.620       34.023        0.068      347.574       26.641      863.573
06/30/2014  10:53:00       55.958      102.989        5.323       53.356       52.492       51.841     2846.895     2755.372     2687.541        1.103        0.414      117.209       44.427        0.144      347.670       26.808      863.551
06/30/2014  10:54:00       83.046       58.063       21.961       73.290       47.995       45.109     5371.372     2303.560     2034.844        1.023        0.485      101.331       24.695        0.059      348.130       27.601      863.540
06/30/2014  10:55:00       70.474      142.865        6.690       69.102      109.984       57.619     4775.096    12096.493     3319.906        2.280        1.010      159.301       59.470        0.139      347.851       27.119      863.514
06/30/2014  10:56:00      120.998      165.415      -10.941       84.708      106.899       65.273     7175.506    11427.301     4260.502        3.249        1.143      204.946       50.828        0.062      347.930       27.253      863.492
06/30/2014  10:57:00       88.916       61.221       17.593       46.290       39.276       40.902     2142.759     1542.638     1672.967        0.866        0.268      107.954       20.025        0.034      347.970       27.325      863.492
06/30/2014  10:58:00       77.550      144.383       -4.257       84.095       84.844       66.580     7072.029     7198.420     4432.901        2.279        0.935      163.891       57.209        0.122      347.903       27.207      863.492
06/30/2014  10:59:00       78.313       97.057        1.235       81.699       72.551       48.121     6674.768     5263.579     2315.647        1.490        0.713      124.712       32.178        0.067      347.989       27.357      863.484
06/30/2014  11:00:00       81.842       29.960        8.022       82.388       71.072       55.191     6787.735     5051.209     3046.050        1.127        0.744       87.153       25.723        0.087      348.216       27.750      863.481
06/30/2014  11:01:00       98.098       84.030       54.586       85.698       60.545       55.027     7344.185     3665.650     3028.022        1.685        0.702      129.168       43.003        0.111      348.238       27.787      863.486
06/30/2014  11:02:00      133.251      108.262       29.743       66.555       55.860       47.105     4429.565     3120.306     2218.912        2.006        0.488      171.687       20.453        0.014      347.824       27.071      863.482
06/30/2014  11:03:00       24.598       34.181       32.664       44.077       41.001       37.857     1942.758     1681.067     1433.148        0.395        0.253       42.112       28.895        0.471      348.935       28.996      863.464
06/30/2014  11:04:00       46.145       54.598       52.069       48.836       40.333       40.521     2384.923     1626.770     1641.924        0.674        0.283       71.486       26.639        0.139      348.534       28.301      863.468
06/30/2014  11:05:00       99.922       85.888       45.646       72.927       56.828       38.153     5318.278     3229.374     1455.665        1.472        0.500      131.762       23.868        0.033      348.360       27.998      863.461
06/30/2014  11:06:00       53.591       78.099       57.952       45.305       63.178       38.854     2052.499     3991.432     1509.615        0.994        0.378       94.718       17.533        0.034      348.452       28.159      863.458
06/30/2014  11:07:00       58.599       76.818        5.217       72.088       55.973       56.296     5196.715     3132.950     3169.280        1.043        0.575       96.617       25.869        0.072      347.951       27.293      863.443
06/30/2014  11:08:00       58.738       76.885       12.289       55.299       55.653       42.769     3057.941     3097.245     1829.186        0.875        0.399       96.755       37.720        0.152      348.050       27.463      863.414
06/30/2014  11:09:00      120.610       97.395       89.004       54.383       37.937       53.189     2957.464     1439.223     2829.095        1.959        0.361      155.024       39.185        0.064      347.904       27.210      863.403
06/30/2014  11:10:00       29.520       62.850       37.644       44.905       63.980       45.396     2016.430     4093.498     2060.814        0.720        0.409       69.437       18.886        0.074      348.131       27.604      863.397
06/30/2014  11:11:00      126.023      101.416       16.148       83.593       62.195       48.939     6987.737     3868.207     2395.028        1.984        0.663      161.763       32.599        0.041      348.007       27.388      863.374
06/30/2014  11:12:00       71.397      105.158       86.305       89.613       62.334       83.970     8030.519     3885.537     7051.035        2.128        0.948      127.105       74.288        0.342      348.240       27.792      863.349
06/30/2014  11:13:00       55.439      -43.767       52.230       93.549      146.722       80.964     8751.427    21527.266     6555.231        2.227        1.842       70.633       95.054        1.811      348.203       27.726      863.342
06/30/2014  11:14:00       -6.254      -35.395       44.690       69.792       87.098       44.349     4870.895     7586.113     1966.831        0.885        0.721       35.943       50.144        1.946      348.581       28.383      863.330
06/30/2014  11:15:00       10.927      118.042      149.804       61.160       89.125       50.249     3740.589     7943.350     2524.988        2.535        0.710      118.546       46.456        0.154      348.413       28.088      863.324
06/30/2014  11:16:00       18.307      118.638      145.096       57.542       56.131       46.117     3311.064     3150.672     2126.769        2.202        0.429      120.042       38.306        0.102      348.220       27.757      863.325
06/30/2014  11:17:00        9.655      -29.886       35.281       44.859       68.635       46.432     2012.371     4710.722     2155.934        0.555        0.444       31.407       49.235        2.457      348.480       28.208      863.314
06/30/2014  11:18:00       18.353      -22.702       27.090       48.288       76.041       46.034     2331.775     5782.238     2119.168        0.591        0.512       29.193       33.604        1.325      348.738       28.654      863.298
06/30/2014  11:19:00       13.052      -27.466       24.132       34.360       37.436       33.717     1180.583     1401.491     1136.862        0.261        0.186       30.410       22.594        0.552      348.658       28.515      863.290
06/30/2014  11:20:00       -2.210     -115.170      -10.634       60.445       51.079       38.897     3653.570     2609.044     1512.965        1.058        0.389      115.192       29.032        0.064      348.183       27.693      863.282
06/30/2014  11:21:00       18.077     -137.327       10.589       36.707       97.858       41.206     1347.429     9576.281     1697.961        1.596        0.631      138.512       47.176        0.116      348.228       27.771      863.275
06/30/2014  11:22:00       52.661       55.610       51.512       54.974       47.389       31.654     3022.183     2245.732     1001.954        0.739        0.313       76.588       29.475        0.148      348.898       28.930      863.273
06/30/2014  11:23:00      187.609      119.131       33.098      114.887       72.448       49.214    13199.004     5248.744     2422.051        3.567        1.043      222.237       29.031        0.017      348.500       28.240      863.263
06/30/2014  11:24:00      183.562      138.986       84.984      103.691       73.668       66.055    10751.903     5426.948     4363.230        4.038        1.027      230.244       55.657        0.058      348.481       28.204      863.257
06/30/2014  11:25:00      169.066      107.415       43.507      104.765       74.355       62.128    10975.723     5528.684     3859.939        3.119        1.018      200.303       19.601        0.010      348.462       28.173      863.241
06/30/2014  11:26:00      115.909      114.691        3.080       85.027       76.203       69.793     7229.643     5806.822     4871.009        2.225        0.895      163.061       54.358        0.111      348.347       27.975      863.234
06/30/2014  11:27:00       76.522       65.729       16.640       64.113       56.200       39.515     4110.454     3158.492     1561.398        0.964        0.442      100.876       26.836        0.071      348.483       28.212      863.240
06/30/2014  11:28:00       65.992      118.092        4.303       43.515       67.310       42.798     1893.551     4530.621     1831.675        1.329        0.413      135.280       41.146        0.093      348.246       27.801      863.234
06/30/2014  11:29:00       69.523      101.084      -17.724       49.977       41.249       36.251     2497.654     1701.440     1314.139        1.044        0.276      122.685       18.101        0.022      348.096       27.543      863.222
06/30/2014  11:30:00      -19.792       23.900       18.074       50.678       31.760       31.519     2568.252     1008.698      993.427        0.293        0.229       31.031       21.896        0.498      348.591       28.400      863.207
06/30/2014  11:31:00       67.857      -37.494       23.059       81.658       63.227       37.578     6668.061     3997.621     1412.111        0.931        0.604       77.527       27.173        0.123      348.819       28.793      863.199
06/30/2014  11:32:00       84.855     -196.448       -0.813      102.502      104.413       64.588    10506.755    10902.099     4171.575        3.568        1.279      213.991       61.190        0.082      348.364       28.002      863.188
06/30/2014  11:33:00       45.529     -191.378      -12.174       65.641       68.306       48.403     4308.717     4665.693     2342.814        2.508        0.566      196.719       36.638        0.035      348.681       28.552      863.194
06/30/2014  11:34:00       78.998      -92.898       49.235       90.329      215.077      117.043     8159.383    46258.114    13699.066        4.269        3.406      121.945      150.227        1.518      348.696       28.578      863.193
06/30/2014  11:35:00       10.218       21.057       66.957       37.992       84.085       55.033     1443.420     7070.337     3028.596        0.828        0.577       23.405       58.541        6.256      348.544       28.318      863.196
06/30/2014  11:36:00       45.246      -75.987        2.852       71.433       66.485       54.579     5102.718     4420.278     2978.884        1.016        0.625       88.438       49.439        0.313      348.686       28.564      863.189
06/30/2014  11:37:00      -86.517      -59.602      -14.368       49.737       46.391       25.393     2473.784     2152.140      644.792        0.826        0.264      105.060        8.754        0.007      348.128       27.598      863.179
06/30/2014  11:38:00      -38.477      -14.347      -12.692       26.725       37.507       28.255      714.240     1406.809      798.338        0.238        0.146       41.065       27.369        0.444      348.102       27.554      863.147
06/30/2014  11:39:00        4.771       -6.141       14.139       45.106       45.172       34.071     2034.517     2040.534     1160.858        0.275        0.262        7.777       21.043        7.321      348.758       28.687      863.120
06/30/2014  11:40:00      -23.296      -96.721       -7.122       67.924       47.031       44.365     4613.644     2211.923     1968.228        0.937        0.440       99.487       34.613        0.121      348.608       28.429      863.117
06/30/2014  11:41:00      -10.130       -5.618       69.205       39.063       86.279       64.293     1525.910     7443.995     4133.565        0.901        0.655       11.583       69.140       35.628      349.211       29.473      863.102
06/30/2014  11:42:00      -18.101       -8.530       64.274       37.657       66.524       44.811     1418.085     4425.412     2008.006        0.619        0.393       20.010       43.466        4.719      348.803       28.765      863.084
06/30/2014  11:43:00      -44.945     -103.876       -0.600       56.515       60.631       31.339     3193.919     3676.063      982.143        1.033        0.393      113.182       11.079        0.010      348.575       28.371      863.071
06/30/2014  11:44:00      -58.912     -188.423        2.540       56.406       76.044       35.133     3181.690     5782.711     1234.322        2.459        0.510      197.418       29.136        0.022      348.188       27.699      863.048
06/30/2014  11:45:00       -8.047      -21.478       36.651       68.116       67.790       41.564     4639.822     4595.511     1727.531        0.641        0.548       22.936       40.254        3.080      349.057       29.206      863.023
06/30/2014  11:46:00        4.460       30.328       92.659       46.890       77.849       50.469     2198.626     6060.502     2547.084        1.016        0.540       30.654       51.990        2.876      349.015       29.134      863.012
06/30/2014  11:47:00       87.962       78.341       95.616       94.301       76.977       76.910     8892.649     5925.470     5915.216        2.187        1.037      117.791       64.190        0.297      348.737       28.650      863.017
06/30/2014  11:48:00       43.647       37.911       43.920       71.868       57.155       60.448     5165.017     3266.658     3653.980        0.868        0.604       57.813       50.074        0.750      348.830       28.812      863.013
06/30/2014  11:49:00       61.060       20.148        3.920       43.458       40.459       39.235     1888.613     1636.948     1539.416        0.461        0.253       64.298       16.697        0.067      348.987       29.085      863.010
06/30/2014  11:50:00       28.556      -75.274       32.962       62.881      102.298       44.964     3953.990    10464.831     2021.752        1.200        0.822       80.508       58.544        0.529      348.945       29.011      862.988
06/30/2014  11:51:00       22.805      -81.572       24.373       52.243       80.512       53.169     2729.284     6482.141     2826.911        0.990        0.602       84.700       49.417        0.340      349.008       29.122      862.981
06/30/2014  11:52:00      -27.531      -96.734        5.078       34.814       40.482       29.131     1212.046     1638.809      848.613        0.692        0.185      100.576       21.172        0.044      348.350       27.984      862.967
06/30/2014  11:53:00       -4.337      -64.717       -2.760       43.784       39.584       29.262     1917.022     1566.862      856.259        0.428        0.217       64.862       19.430        0.090      348.790       28.743      862.942
06/30/2014  11:54:00      -22.400      -33.451       25.186       45.255       42.981       33.509     2048.038     1847.384     1122.878        0.364        0.251       40.258       26.895        0.446      348.977       29.067      862.931
06/30/2014  11:55:00       15.630       -4.631       53.762       60.763       89.529       62.760     3692.154     8015.411     3938.793        0.940        0.782       16.302       63.447       15.147      348.954       29.026      862.937
06/30/2014  11:56:00      115.492     -110.632       19.021       70.026      121.893       56.123     4903.610    14857.880     3149.777        2.442        1.146      159.931       78.070        0.238      348.667       28.528      862.926
06/30/2014  11:57:00       75.151     -102.560       19.197       68.823      109.082       61.664     4736.574    11898.888     3802.490        1.848        1.022      127.146       58.760        0.214      348.844       28.835      862.919
06/30/2014  11:58:00       67.697      -93.760       -5.103       65.049       79.284       52.064     4231.386     6286.025     2710.637        1.331        0.661      115.646       57.185        0.245      348.889       28.914      862.929
06/30/2014  11:59:00       41.508       -5.217       40.253       51.496       92.221       80.875     2651.882     8504.644     6540.831        1.053        0.885       41.835       79.847        3.643      348.834       28.819      862.922
06/30/2014  12:00:00      178.029      120.688      143.473      150.409      148.124      102.185    22622.784    21940.863    10441.692        6.092        2.750      215.081      103.524        0.232      348.872       28.881      862.907
06/30/2014  12:01:00       41.927      139.772      158.340       59.879       82.988       61.923     3585.510     6886.985     3834.443        3.033        0.715      145.925       51.862        0.126      349.457       29.895      862.909
06/30/2014  12:02:00       44.969       10.131       92.294       64.755      125.093       77.703     4193.212    15648.256     6037.760        1.826        1.294       46.096       86.966        3.559      349.210       29.469      862.923
06/30/2014  12:03:00       94.755        5.601       47.137       76.370       82.209       52.082     5832.318     6758.352     2712.521        1.326        0.765       94.921       51.993        0.300      348.997       29.101      862.911
06/30/2014  12:04:00       28.937       38.436       45.184       23.791       41.781       24.373      566.023     1745.663      594.034        0.363        0.145       48.111       22.076        0.211      348.776       28.718      862.890
06/30/2014  12:05:00      119.758       74.415       20.573       60.054       58.636       42.828     3606.424     3438.128     1834.266        1.459        0.444      140.994       26.777        0.036      348.776       28.718      862.871
06/30/2014  12:06:00       90.963       85.994        8.299       51.146       31.268       34.788     2615.938      977.706     1210.182        1.027        0.240      125.177       26.129        0.044      348.462       28.176      862.861
06/30/2014  12:07:00       -4.299       15.399       29.685       23.800       33.530       43.442      566.456     1124.237     1887.211        0.236        0.179       15.988       22.936        2.058      349.128       29.330      862.850
06/30/2014  12:08:00      -15.936      -25.649       13.957       44.160       61.723       44.489     1950.123     3809.759     1979.308        0.442        0.387       30.196       38.068        1.589      349.180       29.419      862.832
06/30/2014  12:09:00       28.138      -20.864       72.388       75.792       81.486       54.035     5744.464     6639.973     2919.765        1.088        0.765       35.029       47.576        1.845      349.629       30.196      862.821
06/30/2014  12:10:00       86.994       49.314       86.719      122.170       88.112       71.350    14925.568     7763.701     5090.796        2.265        1.389      100.000       48.038        0.231      349.380       29.765      862.816
06/30/2014  12:11:00      153.413       17.932       87.232      119.139      103.281       71.866    14194.007    10666.872     5164.675        3.074        1.501      154.458       78.572        0.259      349.130       29.329      862.836
06/30/2014  12:12:00      143.766     -113.115       14.013       79.896       96.363       64.113     6383.427     9285.850     4110.477        2.672        0.989      182.931       65.115        0.127      348.720       28.619      862.826
06/30/2014  12:13:00      102.077      -18.363       63.394       99.839      135.386       67.388     9967.757    18329.385     4541.129        2.380        1.642      103.715       88.603        0.730      349.047       29.187      862.808
06/30/2014  12:14:00       77.644       85.797      105.112      107.627      107.613       79.634    11583.611    11580.579     6341.575        2.697        1.475      115.714       74.303        0.412      349.135       29.339      862.779
06/30/2014  12:15:00      220.990      173.854       98.973      116.375       98.029       99.357    13543.190     9609.680     9871.872        6.094        1.651      281.179       79.721        0.080      348.641       28.482      862.756
06/30/2014  12:16:00      113.165       72.124       51.110       99.624       80.779       56.561     9924.883     6525.183     3199.180        2.013        0.982      134.195       39.790        0.088      348.925       28.977      862.752
06/30/2014  12:17:00       70.560       97.007       59.768       69.430       61.822       66.617     4820.550     3821.972     4437.873        1.552        0.654      119.955       28.033        0.055      349.120       29.313      862.724
06/30/2014  12:18:00       48.010       27.803       68.754       66.104       63.066       59.736     4369.756     3977.304     3568.441        0.986        0.596       55.479       30.731        0.307      349.481       29.941      862.698
06/30/2014  12:19:00      126.944      126.867       67.075      125.902       64.344       78.854    15851.387     4140.194     6218.001        3.145        1.310      179.472       72.041        0.161      349.164       29.388      862.690
06/30/2014  12:20:00      110.728      110.167       93.820      102.445       72.621       56.107    10494.921     5273.804     3148.032        2.606        0.946      156.197       46.694        0.089      349.267       29.566      862.687
06/30/2014  12:21:00       36.508       73.410      109.414       80.484      117.579       72.393     6477.604    13824.773     5240.810        2.211        1.277       81.987       61.079        0.555      349.337       29.690      862.658
06/30/2014  12:22:00       31.236       36.789       55.106      104.891       72.916       43.347    11002.122     5316.708     1878.998        1.178        0.910       48.261       31.828        0.435      349.697       30.315      862.677
06/30/2014  12:23:00       49.342       71.520       70.007       71.487       43.576       34.945     5110.357     1898.859     1221.158        1.034        0.412       86.889       22.413        0.067      349.926       30.714      862.675
06/30/2014  12:24:00       81.256       71.533        7.937       45.169       43.749       36.942     2040.207     1914.017     1364.725        0.855        0.266      108.257       21.307        0.039      348.922       28.971      862.652
06/30/2014  12:25:00       47.624       41.522        3.024       34.238       45.019       30.036     1172.225     2026.690      902.150        0.405        0.205       63.183       22.532        0.127      348.973       29.061      862.635
06/30/2014  12:26:00       10.166       39.376       16.567       24.063       21.399       20.725      579.008      457.907      429.509        0.170        0.073       40.668        7.239        0.032      349.169       29.400      862.635
06/30/2014  12:27:00       53.206       48.847       47.882       43.338       33.678       27.393     1878.147     1134.191      750.375        0.564        0.188       72.228       18.270        0.064      349.397       29.796      862.618
06/30/2014  12:28:00        0.179       14.425       38.089       89.465       60.887       40.118     8004.065     3707.181     1609.480        0.749        0.666       14.426       26.208        3.300      349.835       30.555      862.585
06/30/2014  12:29:00       -4.479      -37.508        1.118       32.003       54.981       45.166     1024.171     3022.907     2039.972        0.376        0.304       37.774       20.601        0.297      349.268       29.572      862.578
06/30/2014  12:30:00       29.569       12.219       49.150       43.745       77.044       36.465     1913.654     5935.730     1329.679        0.631        0.459       31.994       43.372        1.838      349.428       29.850      862.566
06/30/2014  12:31:00       66.823     -135.729       -8.788       46.755       48.072       34.687     2186.041     2310.935     1203.158        1.433        0.285      151.287       31.070        0.042      349.011       29.126      862.537
06/30/2014  12:32:00       21.271       26.627       33.868       36.858       73.149       41.133     1358.519     5350.740     1691.925        0.535        0.420       34.080       30.956        0.825      349.671       30.271      862.516
06/30/2014  12:33:00       -3.651       53.766        1.166       50.752       36.430       30.035     2575.800     1327.132      902.084        0.385        0.240       53.890       18.981        0.124      349.774       30.450      862.522
06/30/2014  12:34:00       -2.048       85.627        0.160       37.931       57.524       30.922     1438.755     3309.045      956.199        0.652        0.285       85.651       30.865        0.130      349.584       30.119      862.508
06/30/2014  12:35:00      -21.157       52.546        7.901       43.485       37.946       31.985     1890.923     1439.906     1023.013        0.381        0.218       56.645       28.072        0.246      349.777       30.455      862.493
06/30/2014  12:36:00       20.971       18.333       29.953       49.892       34.437       41.856     2489.256     1185.932     1751.948        0.355        0.271       27.854       24.167        0.753      350.007       30.853      862.480
06/30/2014  12:37:00        8.548      125.097       -6.878       47.645       70.083       30.046     2270.039     4911.617      902.735        1.193        0.404      125.389       22.291        0.032      349.612       30.168      862.462
06/30/2014  12:38:00        5.706       97.473       -1.661       43.216       44.578       40.558     1867.628     1987.172     1644.982        0.752        0.275       97.640       12.226        0.016      349.844       30.570      862.450
06/30/2014  12:39:00       -6.490       50.015       40.485       39.022       39.467       51.392     1522.721     1557.618     2641.146        0.495        0.286       50.434       19.597        0.151      349.945       30.745      862.429
06/30/2014  12:40:00        2.058      -48.599       38.041       26.495       53.081       25.214      702.006     2817.596      635.730        0.398        0.208       48.643       23.348        0.230      349.564       30.085      862.420
06/30/2014  12:41:00      -32.965      -31.398       25.038       31.084       34.008       26.155      966.230     1156.511      684.074        0.275        0.140       45.525       22.955        0.254      349.828       30.543      862.405
06/30/2014  12:42:00       -8.475        2.277       17.108       30.693       26.912       28.556      942.050      724.277      815.458        0.143        0.124        8.776       16.503        3.536      350.060       30.946      862.398
06/30/2014  12:43:00       38.749       33.270       53.652       36.490       34.095       26.403     1331.491     1162.459      697.124        0.434        0.160       51.072       22.211        0.189      349.939       30.736      862.384
06/30/2014  12:44:00       41.754        0.334       22.903       50.021       73.508       38.016     2502.125     5403.477     1445.227        0.581        0.468       41.755       30.907        0.548      349.762       30.427      862.377
06/30/2014  12:45:00       25.953      -97.636       15.538       48.563       85.522       52.350     2358.412     7313.996     2740.527        1.143        0.621      101.027       47.511        0.221      349.510       29.990      862.344
06/30/2014  12:46:00       16.777      -22.143       53.145       36.633       60.888       30.889     1341.971     3707.310      954.140        0.480        0.300       27.781       32.769        1.391      350.268       31.307      862.320
06/30/2014  12:47:00       41.093       14.906       24.762       47.071       39.055       41.460     2215.634     1525.270     1718.912        0.399        0.273       43.713       15.554        0.127      350.121       31.053      862.299
06/30/2014  12:48:00      163.122       81.255       70.201       73.964       87.722       73.827     5470.670     7695.067     5450.377        2.837        0.931      182.240       59.777        0.108      349.468       29.915      862.284
06/30/2014  12:49:00       87.265       53.590       70.948       74.184       56.912       56.705     5503.200     3239.009     3215.435        1.374        0.598      102.407       37.463        0.134      349.725       30.364      862.264
06/30/2014  12:50:00       70.793       59.863       77.703       75.809       74.877       47.298     5747.057     5606.607     2237.103        1.411        0.680       92.710       38.127        0.169      349.722       30.358      862.258
06/30/2014  12:51:00       79.003       52.855       29.165       68.293       46.522       52.818     4663.917     2164.335     2789.779        0.975        0.481       95.053       35.908        0.143      350.168       31.132      862.246
06/30/2014  12:52:00      104.017      108.347      108.635       98.345       75.671       59.189     9671.651     5726.163     3503.325        2.663        0.945      150.195       53.941        0.129      349.769       30.438      862.247
06/30/2014  12:53:00       78.752       79.089       61.082       48.060       63.744       52.123     2309.787     4063.288     2716.765        1.264        0.454      111.611       27.821        0.062      349.703       30.326      862.235
06/30/2014  12:54:00       68.724       88.505       71.910       65.106       55.192       56.955     4238.854     3046.160     3243.922        1.413        0.526      112.054       41.783        0.139      349.591       30.131      862.242
06/30/2014  12:55:00       41.383       33.964       18.561       46.248       41.307       39.350     2138.909     1706.293     1548.402        0.430        0.270       53.536       21.628        0.163      349.883       30.640      862.230
06/30/2014  12:56:00      -13.228       -2.266       43.645       54.429       51.078       31.589     2962.533     2608.968      997.856        0.433        0.328       13.420       31.582        5.538      350.339       31.430      862.218
06/30/2014  12:57:00      -16.092       -0.864       24.685       35.415       29.000       24.671     1254.190      840.971      608.673        0.179        0.135       16.115       24.088        2.234      350.682       32.027      862.208
06/30/2014  12:58:00        2.426        4.636       25.690       16.517       22.994       26.666      272.812      528.723      711.091        0.110        0.076        5.233       11.248        4.620      350.917       32.435      862.207
06/30/2014  12:59:00       10.243       30.337       48.796       40.387       55.745       44.029     1631.122     3107.525     1938.531        0.504        0.334       32.020       24.789        0.599      350.616       31.913      862.203
06/30/2014  13:00:00      101.556      153.304      127.010      117.134       63.690       67.222    13720.260     4056.424     4518.852        3.612        1.115      183.890       68.692        0.140      349.761       30.424      862.195
06/30/2014  13:01:00       74.399       34.687       21.788       66.479       60.301       47.032     4419.453     3636.192     2212.053        0.874        0.513       82.087       31.240        0.145      349.582       30.116      862.181
06/30/2014  13:02:00      119.749       79.910       32.437       92.199       77.225       46.913     8500.610     5963.632     2200.874        1.922        0.833      143.963       27.099        0.035      349.782       30.460      862.159
06/30/2014  13:03:00      195.300       63.936       44.832      107.568       83.299       68.502    11570.865     6938.778     4692.468        3.372        1.160      205.499       27.320        0.018      349.972       30.788      862.125
06/30/2014  13:04:00      175.090       99.043       97.476      154.946      122.425       97.701    24008.123    14987.972     9545.416        4.925        2.427      201.161       85.507        0.181      349.831       30.545      862.087
06/30/2014  13:05:00      191.137     -154.493       18.432      148.042      206.615      106.116    21916.546    42689.769    11260.637        6.829        3.793      245.767      146.542        0.356      349.735       30.379      862.096
06/30/2014  13:06:00      101.777       -1.551       79.443       92.017      116.950       71.486     8467.075    13677.213     5110.280        2.196        1.363      101.789       81.015        0.633      349.994       30.830      862.083
06/30/2014  13:07:00        3.976       67.157      103.069       62.277       93.599       78.663     3878.417     8760.694     6187.805        1.698        0.941       67.275       78.285        1.354      350.149       31.100      862.089
06/30/2014  13:08:00      115.142     -107.194       26.876      116.788      161.435       94.404    13639.528    26061.359     8912.034        3.703        2.431      157.316      105.883        0.453      350.147       31.097      862.069
06/30/2014  13:09:00       20.100       65.348      107.154       57.475       88.403       52.331     3303.373     7815.147     2738.526        1.500        0.693       68.369       49.636        0.527      350.369       31.481      862.079
06/30/2014  13:10:00       -3.721       14.883       71.732       64.395       88.989       60.761     4146.695     7919.098     3691.906        1.057        0.788       15.341       60.821       15.718      350.442       31.609      862.072
06/30/2014  13:11:00       22.389        5.396       30.035       42.342       66.899       54.813     1792.869     4475.510     3004.481        0.535        0.464       23.030       32.357        1.974      350.216       31.218      862.067
06/30/2014  13:12:00       87.079       73.396       91.211      116.745       98.365       85.913    13629.474     9675.711     7381.104        2.598        1.534      113.885       80.120        0.495      349.868       30.612      862.069
06/30/2014  13:13:00      124.159      -16.337       28.152       57.470      113.526       51.107     3302.812    12888.240     2611.891        1.764        0.940      125.229       67.590        0.291      349.567       30.090      862.066
06/30/2014  13:14:00       19.142       46.223       80.176       49.775       61.016       45.517     2477.534     3722.895     2071.802        0.860        0.414       50.030       41.641        0.693      350.180       31.154      862.036
06/30/2014  13:15:00       71.748       26.429       58.557       75.937       92.088       44.986     5766.470     8480.201     2023.783        1.277        0.814       76.460       45.962        0.361      349.975       30.796      862.030
06/30/2014  13:16:00       83.823       74.071       76.195       79.135       50.742       59.299     6262.276     2574.797     3516.423        1.533        0.618      111.861       53.882        0.232      350.124       31.055      862.046
06/30/2014  13:17:00       65.393        9.302       69.914       83.873      109.912       74.176     7034.731    12080.728     5502.042        1.693        1.231       66.051       81.199        1.511      350.547       31.793      862.035
06/30/2014  13:18:00      121.326      -30.549       17.869       86.981      141.349       74.797     7565.733    19979.631     5594.634        2.455        1.657      125.113       91.250        0.532      350.093       31.000      862.027
06/30/2014  13:19:00       54.359        5.882       40.531       56.099       91.224       46.027     3147.112     8321.775     2118.465        0.911        0.679       54.676       20.158        0.136      350.291       31.346      862.018
06/30/2014  13:20:00      164.816      123.197       10.683       77.332       57.526       54.009     5980.171     3309.186     2916.921        2.733        0.610      205.771       29.046        0.020      349.954       30.758      862.031
06/30/2014  13:21:00      170.774      119.598       37.728       79.875       53.282       47.589     6380.019     2838.943     2264.681        2.819        0.574      208.488       12.283        0.003      349.582       30.113      862.017
06/30/2014  13:22:00       44.372       28.592       43.260       65.247       48.563       34.439     4257.188     2358.393     1186.039        0.623        0.390       52.786       24.472        0.215      350.379       31.500      862.021
06/30/2014  13:23:00       98.326       -5.445       35.252       77.739       67.144       51.227     6043.294     4508.262     2624.173        1.206        0.659       98.476       49.869        0.256      349.918       30.700      862.011
06/30/2014  13:24:00       78.688        3.862       51.082       77.783       84.043       52.265     6050.192     7063.305     2731.673        1.233        0.792       78.783       49.735        0.399      350.157       31.114      862.001
06/30/2014  13:25:00      155.177      154.447      145.034      107.314      100.515       92.714    11516.256    10103.337     8595.831        4.959        1.511      218.938       73.445        0.113      349.982       30.805      861.971
06/30/2014  13:26:00      188.822       79.254       53.771      132.695      140.267       99.714    17607.950    19674.964     9942.862        4.602        2.361      204.780       77.778        0.144      349.943       30.741      861.954
06/30/2014  13:27:00      115.418      -18.351       73.642      104.333      144.778       92.533    10885.330    20960.533     8562.328        2.974        2.020      116.868      107.820        0.851      350.214       31.210      861.951
06/30/2014  13:28:00      112.542      -54.102       58.942      114.284      144.726       87.956    13060.914    20945.591     7736.303        3.040        2.087      124.871       83.478        0.447      350.264       31.298      861.924
06/30/2014  13:29:00      121.476       72.138      124.557       86.716      115.716       82.478     7519.698    13390.262     6802.641        3.159        1.386      141.281       89.765        0.404      349.912       30.686      861.946
06/30/2014  13:30:00       66.304       51.962       97.898       81.609       72.823       54.970     6659.950     5303.257     3021.685        1.583        0.749       84.239       53.733        0.407      349.922       30.706      861.946
06/30/2014  13:31:00       40.027       31.508       82.751       55.686      110.750       66.599     3100.933    12265.591     4435.423        1.462        0.990       50.940       78.796        2.393      349.872       30.618      861.908
06/30/2014  13:32:00      -19.598      -26.111       13.091       30.425       28.933       25.096      925.674      837.106      629.797        0.181        0.120       32.647       16.826        0.266      349.979       30.806      861.871
06/30/2014  13:33:00       18.938        4.760       17.836       25.038       22.533       18.913      626.895      507.722      357.714        0.110        0.075       19.527       10.577        0.293      350.489       31.690      861.856
06/30/2014  13:34:00       37.013       26.965       24.123       37.834       39.881       34.280     1431.414     1590.518     1175.096        0.344        0.210       45.794       27.311        0.356      350.052       30.932      861.856
06/30/2014  13:35:00       96.425      103.646       76.315      103.918       96.587       77.933    10798.925     9329.051     6073.485        2.603        1.310      141.564       65.875        0.217      349.853       30.584      861.846
06/30/2014  13:36:00      158.247       93.759       75.727       92.412       72.499       80.273     8539.986     5256.054     6443.810        2.990        1.012      183.937       71.247        0.150      349.894       30.654      861.844
06/30/2014  13:37:00       85.805       90.512        9.652       85.924       57.268       37.443     7382.878     3279.658     1401.986        1.385        0.603      124.720       27.246        0.048      349.753       30.411      861.839
06/30/2014  13:38:00       53.534      -13.606       51.857       51.193       89.850       43.020     2620.717     8073.026     1850.760        0.914        0.627       55.236       49.137        0.791      350.259       31.291      861.818
06/30/2014  13:39:00      223.867     -265.709      -49.345       56.253       67.962       45.226     3164.423     4618.891     2045.385        6.649        0.491      347.444       30.915        0.008      349.812       30.510      861.788
06/30/2014  13:40:00       67.920       -0.814       39.714       74.716       93.109       76.613     5582.477     8669.204     5869.539        1.315        1.006       67.925       85.149        1.571      350.332       31.420      861.810
06/30/2014  13:41:00       25.146       14.816       26.223       72.964       62.231       57.631     5323.710     3872.712     3321.278        0.703        0.626       29.187       28.390        0.946      349.957       30.766      861.801
06/30/2014  13:42:00      -61.221       28.047       10.854       43.109       33.745       32.662     1858.380     1138.715     1066.830        0.436        0.203       67.340       24.173        0.129      350.397       31.531      861.755
06/30/2014  13:43:00       32.493       20.809       35.926       31.270       25.714       21.207      977.810      661.216      449.718        0.243        0.104       38.585       10.108        0.069      350.332       31.419      861.743
06/30/2014  13:44:00       18.553      -17.694        2.659       25.026       38.781       24.016      626.285     1503.963      576.792        0.169        0.135       25.638       18.186        0.503      350.304       31.370      861.736
06/30/2014  13:45:00       71.445     -179.545       -6.169       80.720       93.165       42.750     6515.657     8679.731     1827.567        2.720        0.851      193.238       38.489        0.040      349.919       30.699      861.741
06/30/2014  13:46:00       -0.708     -100.596      -14.829       78.753       84.307       44.884     6202.008     7107.752     2014.578        1.283        0.766      100.599       46.671        0.215      350.137       31.078      861.718
06/30/2014  13:47:00      -27.960      -50.364       38.230       53.240       97.913       50.474     2834.501     9586.914     2547.593        0.987        0.748       57.605       59.505        1.067      350.728       32.107      861.701
06/30/2014  13:48:00      -29.539     -138.919      -15.349       60.293       95.290       50.593     3635.192     9080.182     2559.645        1.784        0.764      142.025       44.944        0.100      350.053       30.932      861.686
06/30/2014  13:49:00      -70.993      -99.443       -3.089       48.332       38.483       24.291     2335.935     1480.961      590.045        0.967        0.220      122.184       15.018        0.015      349.842       30.567      861.675
06/30/2014  13:50:00       -8.351      -64.469       11.895       62.893       54.651       37.243     3955.484     2986.728     1387.073        0.635        0.416       65.008       30.478        0.220      350.111       31.035      861.647
06/30/2014  13:51:00      -91.284      -57.374        3.243       63.111       45.369       31.391     3982.970     2058.318      985.393        0.933        0.351      107.817       30.573        0.080      350.202       31.193      861.620
06/30/2014  13:52:00      -72.356        5.812      -13.498       69.963       21.584       23.412     4894.760      465.886      548.120        0.568        0.295       72.589       12.842        0.031      349.988       30.821      861.622
06/30/2014  13:53:00       35.467      -43.956       40.648       80.309       68.974       67.817     6449.536     4757.437     4599.149        1.032        0.790       56.480       50.050        0.785      350.719       32.092      861.612
06/30/2014  13:54:00      161.603        7.273       70.622      103.755      117.303       65.868    10765.108    13759.982     4338.531        3.000        1.443      161.767       52.813        0.107      350.292       31.346      861.579
06/30/2014  13:55:00      101.737      124.147      131.973      111.612       89.901       75.112    12457.343     8082.122     5641.813        3.468        1.309      160.508       68.408        0.182      350.614       31.905      861.567
06/30/2014  13:56:00      166.762      -23.996       93.180      130.813      125.170       85.879    17111.914    15667.421     7375.217        3.860        2.008      168.479       83.220        0.244      350.256       31.284      861.561
06/30/2014  13:57:00      120.060      107.549      166.691      128.777      108.213       76.816    16583.443    11710.094     5900.742        4.397        1.710      161.187       87.695        0.296      350.270       31.308      861.560
06/30/2014  13:58:00       93.049        5.780       43.597       54.384       80.792       66.355     2957.607     6527.324     4403.044        1.224        0.694       93.228       58.455        0.393      349.944       30.743      861.555
06/30/2014  13:59:00       43.188       32.477       61.579       43.843       49.476       46.892     1922.247     2447.876     2198.905        0.664        0.328       54.036       32.904        0.371      350.544       31.787      861.541
06/30/2014  14:00:00       94.758      -74.841       60.131       95.179      139.247       94.001     9059.116    19389.863     8836.106        2.773        1.864      120.749      100.177        0.688      350.695       32.047      861.536
06/30/2014  14:01:00      122.051     -110.041       20.909       96.322      112.338       66.271     9277.880    12619.912     4391.797        2.686        1.314      164.333       63.942        0.151      350.545       31.786      861.521
06/30/2014  14:02:00      149.994      -48.091       38.193       99.129      166.848       92.025     9826.545    27838.310     8468.597        3.619        2.307      157.515      112.572        0.511      350.520       31.742      861.519
06/30/2014  14:03:00      166.451       42.260       27.198      116.469      118.160       67.729    13564.937    13961.903     4587.176        3.117        1.606      171.732       49.847        0.084      350.384       31.507      861.518
06/30/2014  14:04:00       70.272       19.180       61.758       70.532       88.594       49.456     4974.722     7848.904     2445.869        1.219        0.763       72.842       45.319        0.387      350.812       32.253      861.503
06/30/2014  14:05:00       61.018       45.559       64.994       73.855      130.223       58.460     5454.513    16958.147     3417.524        1.792        1.292       76.150       70.082        0.847      350.616       31.911      861.505
06/30/2014  14:06:00       92.618      -93.924       30.361       51.011      128.447       60.065     2602.087    16498.508     3607.848        2.051        1.135      131.909       76.539        0.337      350.407       31.546      861.493
06/30/2014  14:07:00       76.017       87.950       86.287      134.778       69.608       65.939    18165.169     4845.252     4347.915        2.415        1.368      116.249       70.461        0.367      350.493       31.698      861.497
06/30/2014  14:08:00      178.081      104.700       34.701       79.661       54.930       55.256     6345.807     3017.341     3053.265        2.815        0.621      206.579       33.027        0.026      350.092       30.997      861.497
06/30/2014  14:09:00       85.116       77.545       22.623       82.845       57.990       35.659     6863.214     3362.862     1271.538        1.263        0.575      115.143       30.421        0.070      350.260       31.291      861.483
06/30/2014  14:10:00      214.051      138.647       35.849      121.502       71.879       48.741    14762.700     5166.520     2375.685        4.431        1.115      255.031       31.169        0.015      350.272       31.311      861.477
06/30/2014  14:11:00       68.910      219.380      -23.144       75.704      127.371       50.960     5731.171    16223.306     2596.901        3.898        1.228      229.948       53.528        0.054      350.073       30.964      861.487
06/30/2014  14:12:00       16.318      217.156      -37.963       34.734       40.204       21.585     1206.469     1616.380      465.913        2.608        0.164      217.768       18.507        0.007      349.852       30.579      861.482
06/30/2014  14:13:00      -53.981      128.329      -31.417       31.549       29.548       17.674      995.341      873.074      312.372        1.127        0.109      139.220        7.757        0.003      349.803       30.500      861.454
06/30/2014  14:14:00      -32.749      161.154      -16.470       43.386       40.472       28.504     1882.310     1638.022      812.450        1.582        0.217      164.448       19.667        0.014      350.111       31.034      861.429
06/30/2014  14:15:00       92.264       94.249        4.901       70.947       92.281       54.030     5033.512     8515.846     2919.287        1.694        0.823      131.892       41.806        0.100      350.304       31.368      861.419
06/30/2014  14:16:00       66.921      -12.440       19.938       78.268       70.762       31.844     6125.930     5007.190     1014.027        0.859        0.607       68.068       19.287        0.080      350.321       31.398      861.396
06/30/2014  14:17:00      140.092       77.903        9.463       66.817       57.929       38.852     4464.553     3355.725     1509.488        1.756        0.466      160.296       23.636        0.022      350.427       31.582      861.387
06/30/2014  14:18:00       83.447       85.288       33.901      165.694      107.486       78.320    27454.478    11553.236     6133.984        3.026        2.257      119.320       14.508        0.015      350.941       32.478      861.343
06/30/2014  14:19:00      182.431      141.942       96.424      145.194      113.171      105.045    21081.425    12807.636    11034.368        5.382        2.246      231.147       75.788        0.108      350.475       31.663      861.345
06/30/2014  14:20:00      217.264      141.691       30.104      119.532       93.919       87.995    14287.915     8820.736     7743.091        4.951        1.543      259.384       53.233        0.042      350.483       31.677      861.335
06/30/2014  14:21:00      270.846      151.943       54.937      151.958      125.400       91.827    23091.202    15725.167     8432.274        7.335        2.362      310.554       51.095        0.027      350.668       31.999      861.332
06/30/2014  14:22:00      265.217      180.752       35.784       96.711       81.608       66.142     9353.054     6659.835     4374.793        6.234        1.019      320.954       27.784        0.007      350.275       31.315      861.326
06/30/2014  14:23:00      295.208      173.109       25.838       75.247       72.644       54.313     5662.078     5277.151     2949.888        6.583        0.694      342.220       31.118        0.008      350.292       31.344      861.318
06/30/2014  14:24:00       50.454       58.514        8.590       88.251       59.207       40.699     7788.309     3505.453     1656.378        0.949        0.648       77.263       24.122        0.097      350.645       31.964      861.293
06/30/2014  14:25:00       50.399      174.289      -20.884       80.467       74.452       50.529     6474.877     5543.066     2553.200        2.396        0.729      181.430       46.431        0.065      350.420       31.569      861.281
06/30/2014  14:26:00       45.088       73.048       12.779       93.117      114.599       47.805     8670.849    13133.008     2285.360        1.581        1.204       85.842       42.685        0.247      350.669       32.002      861.258
06/30/2014  14:27:00       25.576       78.807      117.013       78.825       98.983       67.470     6213.403     9797.577     4552.248        2.056        1.028       82.853       69.728        0.708      350.513       31.731      861.239
06/30/2014  14:28:00      122.971       80.772       58.423      126.784       79.169       56.435    16074.146     6267.758     3184.910        2.529        1.276      147.126       60.108        0.167      350.470       31.657      861.234
06/30/2014  14:29:00       83.707      155.569      -10.149      106.518      115.014       72.012    11346.004    13228.132     5185.680        3.053        1.488      176.660       66.325        0.141      350.822       32.268      861.219
06/30/2014  14:30:00       42.129      154.244      -14.198       54.825       79.967       56.345     3005.777     6394.733     3174.752        1.917        0.629      159.894       48.952        0.094      350.393       31.524      861.214
06/30/2014  14:31:00       65.339       65.196        5.182       72.533       52.278       48.787     5261.106     2732.952     2380.157        0.946        0.519       92.302       33.728        0.134      350.631       31.939      861.192
06/30/2014  14:32:00      174.320       78.918       44.105      121.532       97.962       68.002    14770.143     9596.519     4624.249        3.377        1.450      191.351       57.832        0.091      350.619       31.914      861.180
06/30/2014  14:33:00      134.421       59.890       34.759       88.594       75.063       55.537     7848.857     5634.440     3084.402        1.971        0.828      147.160       21.176        0.021      350.850       32.318      861.186
06/30/2014  14:34:00      162.053       87.019       72.582      100.984       74.008       85.032    10197.819     5477.230     7230.431        3.100        1.145      183.939       56.639        0.095      350.698       32.051      861.186
06/30/2014  14:35:00      199.962      129.655       48.468       69.643       85.071       65.428     4850.101     7237.075     4280.840        3.775        0.818      238.318       38.749        0.026      350.828       32.278      861.180
06/30/2014  14:36:00      161.906       78.471       36.547       93.707       69.390       57.568     8781.039     4815.026     3314.123        2.531        0.846      179.921       31.688        0.031      350.471       31.657      861.181
06/30/2014  14:37:00       97.362       84.445       55.798       89.078       75.368       52.419     7934.814     5680.315     2747.769        1.804        0.818      128.881       43.713        0.115      350.433       31.595      861.169
06/30/2014  14:38:00      120.649       47.362       16.681       61.659       39.329       43.663     3801.892     1546.752     1906.481        1.217        0.363      129.612       33.123        0.065      350.453       31.629      861.153
06/30/2014  14:39:00      168.437      101.190       29.469       62.837       45.787       45.687     3948.520     2096.419     2087.332        2.380        0.407      196.496       33.693        0.029      350.423       31.573      861.132
06/30/2014  14:40:00       79.039       24.643       20.369       62.069       37.290       38.096     3852.520     1390.569     1451.339        0.698        0.335       82.791       32.527        0.154      350.509       31.727      861.108
06/30/2014  14:41:00       72.039       33.801       55.429       74.708       58.557       65.440     5581.291     3428.876     4282.390        1.135        0.665       79.575       52.486        0.435      350.481       31.677      861.095
06/30/2014  14:42:00       79.270       59.892       83.715       56.917       80.664       54.904     3239.530     6506.686     3014.413        1.482        0.638       99.352       60.263        0.368      350.505       31.719      861.100
06/30/2014  14:43:00       27.791       -0.234        5.954       33.020       31.336       26.305     1090.311      981.966      691.928        0.179        0.138       27.791       12.738        0.210      350.647       31.966      861.091
06/30/2014  14:44:00       13.336       14.005        5.374       43.739       48.434       32.269     1913.063     2345.889     1041.289        0.285        0.265       19.339       17.100        0.782      350.618       31.915      861.075
06/30/2014  14:45:00      -48.140       30.931        3.627       37.029       31.488       24.763     1371.124      991.481      613.193        0.313        0.149       57.220       19.869        0.121      350.990       32.564      861.039
06/30/2014  14:46:00      -19.521       14.582       31.636       38.752       25.296       31.149     1501.743      639.896      970.280        0.235        0.156       24.366       19.856        0.664      351.137       32.819      861.039
06/30/2014  14:47:00       44.196        8.093       34.689       41.879       26.111       26.140     1753.823      681.780      683.296        0.317        0.156       44.931       23.203        0.267      351.104       32.762      861.041
06/30/2014  14:48:00       99.496      -28.601       34.720       73.644       65.208       51.089     5423.495     4252.124     2610.069        1.210        0.614      103.525       21.664        0.044      350.726       32.103      861.025
06/30/2014  14:49:00       76.582      -35.005        8.719       67.342       47.319       40.197     4534.952     2239.109     1615.802        0.778        0.419       84.203       27.009        0.103      350.527       31.758      861.018
06/30/2014  14:50:00       90.330       53.181       13.740       75.474       61.770       37.097     5696.376     3815.550     1376.159        1.103        0.544      104.822       15.791        0.023      350.772       32.184      861.017
06/30/2014  14:51:00      244.729      128.257       50.089      157.632      112.097       93.351    24847.716    12565.682     8714.483        6.248        2.306      276.301       89.241        0.104      350.730       32.108      860.991
06/30/2014  14:52:00      222.508      120.954       23.290      152.704       98.125       85.635    23318.596     9628.463     7333.426        5.247        2.014      253.258       51.830        0.042      350.855       32.326      860.998
06/30/2014  14:53:00      158.121      116.444       32.706       92.846       74.708       44.152     8620.326     5581.326     1949.416        2.789        0.808      196.371       54.830        0.078      350.380       31.502      861.035
06/30/2014  14:54:00       25.442       -7.467       -1.446       45.523       53.943       25.304     2072.318     2909.863      640.306        0.316        0.281       26.515        8.979        0.115      350.581       31.850      861.011
06/30/2014  14:55:00      -70.799        3.792      -13.831       38.805       35.291       27.280     1505.800     1245.437      744.217        0.436        0.175       70.900       17.408        0.060      350.845       32.311      860.960
06/30/2014  14:56:00      -58.066      180.292      -19.392       34.023       85.281       34.559     1157.595     7272.771     1194.305        2.294        0.481      189.412       41.460        0.048      350.675       32.012      860.945
06/30/2014  14:57:00       17.472      253.958      -34.398       79.191       98.354       55.778     6271.168     9673.516     3111.230        4.252        0.953      254.558       54.706        0.046      350.725       32.099      860.915
06/30/2014  14:58:00       34.873      130.872       -2.522       57.158       82.320       50.299     3266.989     6776.628     2529.976        1.546        0.629      135.439       49.287        0.132      350.901       32.408      860.895
06/30/2014  14:59:00       18.254      191.793      -23.780       52.145       78.496       47.053     2719.141     6161.570     2214.016        2.439        0.555      192.660       47.384        0.060      350.898       32.401      860.887
06/30/2014  15:00:00       14.525      273.412      -36.334       45.807       41.067       25.337     2098.243     1686.535      641.985        4.036        0.221      273.798       19.456        0.005      350.606       31.889      860.872
06/30/2014  15:01:00      147.249      136.002       24.683      140.656      113.131       94.611    19784.038    12798.637     8951.234        4.115        2.077      200.446       71.594        0.128      351.106       32.763      860.864
06/30/2014  15:02:00      279.724      182.944       49.118      116.936      110.220       87.964    13674.032    12148.397     7737.623        7.384        1.678      334.236       53.329        0.025      350.698       32.052      860.869
06/30/2014  15:03:00      157.337      117.387       12.623      110.472       88.117       63.960    12204.138     7764.563     4090.905        3.137        1.203      196.302       45.270        0.053      350.753       32.148      860.861
06/30/2014  15:04:00      120.037       72.285       37.961       96.251       57.728       50.082     9264.217     3332.468     2508.218        1.809        0.755      140.121       34.573        0.061      350.904       32.414      860.867
06/30/2014  15:05:00       88.661       72.125       35.771      126.909       66.512       43.179    16105.960     4423.806     1864.415        1.836        1.120      114.292       36.623        0.103      350.875       32.362      860.856
06/30/2014  15:06:00        7.417      151.074      -11.120       61.754       59.604       38.956     3813.531     3552.646     1517.607        1.594        0.444      151.255       25.678        0.029      350.983       32.551      860.823
06/30/2014  15:07:00       67.057       98.204       17.092       86.519       69.653       49.507     7485.571     4851.495     2450.938        1.461        0.739      118.915       42.535        0.128      351.017       32.609      860.810
06/30/2014  15:08:00       78.047       69.087       17.453       75.261       49.862       40.164     5664.226     2486.237     1613.162        1.046        0.488      104.232       39.730        0.145      351.035       32.640      860.798
06/30/2014  15:09:00        4.868       28.520       -5.247       68.140       27.029       32.707     4643.040      730.555     1069.770        0.365        0.322       28.932       25.724        0.791      350.951       32.495      860.774
06/30/2014  15:10:00      -45.457       21.209      -25.565       30.605       20.240       20.205      936.695      409.677      408.256        0.246        0.088       50.161       12.032        0.058      350.834       32.291      860.748
06/30/2014  15:11:00        6.315       25.000      -15.223       28.887       32.325       15.303      834.480     1044.910      234.189        0.150        0.106       25.785       15.736        0.372      350.813       32.255      860.738
06/30/2014  15:12:00       36.080       12.948       18.071       25.766       18.396       19.749      663.871      338.407      390.025        0.159        0.070       38.333       11.419        0.089      350.536       31.773      860.740
06/30/2014  15:13:00       24.222       13.973        9.023       25.985       19.530       21.425      675.210      381.434      459.016        0.119        0.076       27.963        4.401        0.025      350.893       32.395      860.723
06/30/2014  15:14:00       11.000       82.871       -2.244       43.406       46.997       36.862     1884.115     2208.713     1358.837        0.622        0.273       83.598       25.846        0.096      351.323       33.143      860.714
06/30/2014  15:15:00       33.937      138.917       -5.501       56.296       85.785       42.867     3169.215     7358.987     1837.571        1.642        0.618      143.002       46.222        0.104      351.459       33.380      860.703
06/30/2014  15:16:00       31.432       61.205       -0.418       64.671       60.608       33.278     4182.350     3673.294     1107.403        0.685        0.448       68.804       25.443        0.137      351.036       32.644      860.682
06/30/2014  15:17:00       -9.426      215.563      -29.402       67.530       77.848       41.989     4560.360     6060.272     1763.095        2.990        0.619      215.769       36.119        0.028      351.204       32.932      860.654
06/30/2014  15:18:00       14.004      234.575      -30.714       35.737       63.368       29.463     1277.102     4015.560      868.078        3.116        0.308      234.993       28.909        0.015      350.746       32.136      860.655
06/30/2014  15:19:00       52.631       57.527       -4.308       43.168       52.333       24.719     1863.471     2738.771      611.008        0.565        0.261       77.970       25.320        0.105      350.906       32.417      860.641
06/30/2014  15:20:00       62.892       28.895       20.163       36.369       32.121       33.134     1322.703     1031.761     1097.858        0.432        0.173       69.213       22.262        0.103      350.804       32.239      860.605
06/30/2014  15:21:00       79.229       65.567       26.326       38.253       43.614       33.179     1463.278     1902.183     1100.875        0.787        0.223      102.842       17.795        0.030      350.541       31.782      860.589
06/30/2014  15:22:00       71.964       44.421       36.772       78.472       47.275       32.251     6157.780     2234.934     1040.133        0.897        0.472       84.570       25.642        0.092      350.949       32.492      860.579
06/30/2014  15:23:00      135.973       53.389       94.746      118.120      133.949       83.848    13952.340    17942.293     7030.512        3.461        1.946      146.079       85.964        0.346      351.108       32.767      860.560
06/30/2014  15:24:00      239.302      129.163       66.803      136.011      110.323       92.135    18499.124    12171.199     8488.791        5.878        1.958      271.935       52.893        0.038      351.182       32.894      860.567
06/30/2014  15:25:00      237.310      109.965       30.283       83.227       74.775       72.898     6926.778     5591.308     5314.108        4.358        0.892      261.550       43.856        0.028      350.929       32.453      860.604
06/30/2014  15:26:00      144.678       95.440       10.978       86.115       59.485       41.005     7415.808     3538.493     1681.413        2.140        0.632      173.323       23.065        0.018      351.054       32.673      860.592
06/30/2014  15:27:00       85.101       54.721        7.856       47.997       50.958       39.272     2303.710     2596.685     1542.254        0.837        0.322      101.176       26.707        0.070      350.911       32.425      860.584
06/30/2014  15:28:00        2.088       21.310        5.512       18.152       22.219       15.074      329.489      493.666      227.233        0.077        0.053       21.412       10.124        0.224      351.321       33.141      860.553
06/30/2014  15:29:00       80.869      -40.313       -2.250       40.366       34.468       45.863     1629.378     1188.028     2103.439        0.654        0.246       90.360       30.859        0.117      350.986       32.556      860.541
06/30/2014  15:30:00      -83.874      -60.726      -27.977       52.753       59.310       30.171     2782.901     3517.711      910.282        0.936        0.361      103.549       24.183        0.055      350.786       32.209      860.510
06/30/2014  15:31:00     -105.782      -94.441       -4.877       73.971       72.179       36.901     5471.715     5209.831     1361.712        1.609        0.602      141.806       29.995        0.045      351.099       32.752      860.451
06/30/2014  15:32:00      -43.626     -141.106        9.931       49.349       54.182       33.180     2435.352     2935.660     1100.925        1.419        0.324      147.696       20.845        0.020      350.971       32.530      860.445
06/30/2014  15:33:00      -34.823     -102.601       -1.538       46.987       56.528       25.599     2207.781     3195.380      655.325        0.890        0.303      108.349       22.262        0.042      350.986       32.556      860.472
06/30/2014  15:34:00       33.041       61.661       10.670       22.451       42.592       32.702      504.028     1814.087     1069.410        0.420        0.169       69.956       28.856        0.170      351.192       32.915      860.478
06/30/2014  15:35:00       69.028       39.853        6.203       82.626       47.691       31.752     6827.138     2274.420     1008.159        0.825        0.505       79.707       27.003        0.115      351.279       33.066      860.486
06/30/2014  15:36:00      204.603      152.005       25.273      100.138       64.654       58.728    10027.695     4180.174     3448.956        4.163        0.883      254.888       40.154        0.025      351.102       32.754      860.477
06/30/2014  15:37:00      170.882      102.370       33.913      118.763       80.787       55.277    14104.572     6526.520     3055.548        3.225        1.184      199.199       50.194        0.063      351.417       33.306      860.440
06/30/2014  15:38:00       46.774       60.724       42.693       88.934       77.787       74.205     7909.301     6050.813     5506.363        1.358        0.973       76.650       53.555        0.488      351.064       32.691      860.439
06/30/2014  15:39:00      137.507       87.183       44.157       64.139       51.182       57.430     4113.822     2619.593     3298.182        1.924        0.502      162.815       27.863        0.029      351.228       32.976      860.439
06/30/2014  15:40:00      310.159      183.452       36.756      102.618       88.932       64.086    10530.478     7908.831     4107.077        7.687        1.127      360.352       33.316        0.009      351.279       33.062      860.414
06/30/2014  15:41:00      157.570       84.745      100.752      126.108       89.380       92.365    15903.257     7988.799     8531.340        3.729        1.621      178.914       60.452        0.114      351.372       33.226      860.393
06/30/2014  15:42:00      131.038      150.813      -11.822      107.324       76.281       57.944    11518.356     5818.735     3357.499        3.037        1.035      199.789       45.828        0.053      351.312       33.122      860.410
06/30/2014  15:43:00      116.606       84.508       38.516       63.438       46.692       52.027     4024.434     2180.124     2706.813        1.557        0.446      144.009       18.952        0.017      351.180       32.894      860.405
06/30/2014  15:44:00      123.604       68.314       27.234       85.947       66.875       44.278     7386.926     4472.216     1960.498        1.725        0.691      141.225       32.480        0.053      351.465       33.390      860.376
06/30/2014  15:45:00       60.276       95.709       -2.239       78.964       51.467       37.373     6235.245     2648.831     1396.731        1.154        0.514      113.109       29.722        0.069      351.321       33.139      860.377
06/30/2014  15:46:00      201.001       57.106       35.794      144.080      117.911       70.655    20759.091    13902.994     4992.101        4.229        1.983      208.955       64.251        0.095      351.170       32.874      860.361
06/30/2014  15:47:00       62.330      135.899      165.553       96.427       92.068       74.407     9298.180     8476.606     5536.375        3.653        1.166      149.511       60.193        0.162      351.024       32.620      860.353
06/30/2014  15:48:00      149.678       77.797       80.806      132.980       82.931       79.861    17683.676     6877.519     6377.798        3.296        1.547      168.689       79.912        0.224      351.092       32.739      860.365
06/30/2014  15:49:00      119.938       67.557       14.767       86.627       86.068       46.494     7504.155     7407.779     2161.729        1.812        0.854      137.655       37.992        0.076      351.096       32.745      860.366
06/30/2014  15:50:00       42.720       20.913       25.936       35.004       33.732       26.024     1225.268     1137.836      677.258        0.299        0.152       47.564       15.886        0.112      351.295       33.095      860.354
06/30/2014  15:51:00       40.028       41.643       38.208       55.756       53.652       40.968     3108.696     2878.510     1678.360        0.623        0.383       57.761       34.334        0.353      351.495       33.445      860.340
06/30/2014  15:52:00      145.284       93.657       73.295       80.153       72.537       68.741     6424.479     5261.619     4725.333        2.583        0.821      172.856       50.400        0.085      351.427       33.323      860.322
06/30/2014  15:53:00       38.731       41.498       51.273       58.850       40.669       47.234     3463.364     1653.990     2231.043        0.660        0.367       56.764       24.719        0.190      351.377       33.237      860.298
06/30/2014  15:54:00       86.543       59.211       19.188       58.837       50.525       44.654     3461.783     2552.730     1993.987        0.968        0.400      104.860       26.929        0.066      351.306       33.115      860.294
06/30/2014  15:55:00      140.446       83.746        9.592       66.268       41.272       35.493     4391.514     1703.383     1259.777        1.709        0.368      163.519       24.812        0.023      351.236       32.990      860.278
06/30/2014  15:56:00       61.296       89.018       -1.263       74.467       47.679       29.746     5545.378     2273.307      884.804        1.019        0.435      108.081       24.529        0.052      351.319       33.137      860.270
06/30/2014  15:57:00      -15.647      111.164        7.817       58.824       90.731       38.489     3460.224     8232.171     1481.427        1.292        0.659      112.260       49.931        0.198      351.495       33.445      860.257
06/30/2014  15:58:00       19.516      136.135      -28.849       44.562       91.718       26.574     1985.776     8412.251      706.200        1.542        0.555      137.527       21.700        0.025      351.154       32.847      860.241
06/30/2014  15:59:00        6.683       85.286      -10.173       50.054       70.200       31.143     2505.405     4928.047      969.889        0.791        0.420       85.548       36.133        0.178      351.384       33.250      860.233
06/30/2014  16:00:00       44.748      210.923      -27.863       95.410      118.284       47.568     9103.107    13991.049     2262.744        3.631        1.268      215.617       50.991        0.056      351.551       33.540      860.213
06/30/2014  16:01:00       29.903      115.006       -3.912       88.827      112.498       49.685     7890.280    12655.741     2468.627        1.857        1.151      118.830       62.799        0.279      351.628       33.675      860.196
06/30/2014  16:02:00       90.817      162.292        5.949      122.090       93.347       67.134    14905.890     8713.674     4506.940        3.137        1.406      185.974       54.933        0.087      351.568       33.569      860.198
06/30/2014  16:03:00      256.033      133.868       34.132      133.685       95.141       82.237    17871.550     9051.734     6762.886        5.916        1.684      288.917       53.749        0.035      351.474       33.404      860.221
06/30/2014  16:04:00      176.409       56.042       57.785      120.525       88.284       90.187    14526.209     7794.031     8133.660        3.402        1.523      185.097       65.590        0.126      351.393       33.262      860.205
06/30/2014  16:05:00      103.429       55.959       90.697       86.884       70.760       52.144     7548.810     5006.974     2719.029        1.866        0.764      117.597       44.593        0.144      351.189       32.909      860.203
06/30/2014  16:06:00       82.531       71.313       64.459       73.300       59.649       46.699     5372.934     3557.964     2180.841        1.358        0.556      109.073       32.735        0.090      351.308       33.118      860.185
06/30/2014  16:07:00       85.689       85.683      115.032      132.977      106.799       73.910    17682.937    11405.990     5462.717        3.123        1.728      121.178       77.816        0.412      351.368       33.221      860.179
06/30/2014  16:08:00      192.881      179.787       22.009      142.612      111.658       84.325    20338.162    12467.476     7110.677        5.496        1.996      263.679       57.735        0.048      351.301       33.103      860.219
06/30/2014  16:09:00      108.814      114.014       19.877       99.799       62.041       45.675     9959.775     3849.135     2086.177        2.056        0.795      157.606       37.289        0.056      351.298       33.098      860.217
06/30/2014  16:10:00      152.606       87.573       37.759      121.706       91.215       51.956    14812.356     8320.216     2699.389        2.910        1.292      175.948       45.052        0.066      351.261       33.035      860.194
06/30/2014  16:11:00      202.543      150.356       49.679      100.187       71.753       69.541    10037.511     5148.524     4835.882        4.306        1.001      252.251       53.453        0.045      351.332       33.155      860.184
06/30/2014  16:12:00      124.258      105.096       -3.372       98.018       72.547       48.982     9607.502     5263.136     2399.231        2.188        0.863      162.743       41.515        0.065      351.415       33.301      860.179
06/30/2014  16:13:00       19.498      240.270      -32.872       72.969       84.432       56.123     5324.409     7128.791     3149.779        3.739        0.780      241.060       51.583        0.046      351.144       32.827      860.157
06/30/2014  16:14:00      -84.318      172.489      -23.048       68.354       50.198       33.240     4672.226     2519.864     1104.882        2.284        0.415      191.995       30.698        0.026      351.164       32.864      860.139
06/30/2014  16:15:00       94.331      153.077      -14.115       85.503       62.186       46.610     7310.820     3867.047     2172.464        2.294        0.668      179.808       37.971        0.045      351.113       32.776      860.137
06/30/2014  16:16:00       61.461       93.849       -2.251       88.278       36.017       36.067     7793.030     1297.212     1300.801        1.149        0.520      112.183       30.809        0.075      351.117       32.785      860.116
06/30/2014  16:17:00       69.338       72.379        6.960       53.901       46.115       40.470     2905.276     2126.633     1637.793        0.838        0.333      100.233       31.923        0.101      351.179       32.894      860.117
06/30/2014  16:18:00        4.570       11.895        1.433       57.701       66.558       31.333     3329.366     4429.941      981.747        0.445        0.437       12.743       24.552        3.712      351.399       33.276      860.098
06/30/2014  16:19:00       15.736     -107.221       11.520       39.157       38.565       24.869     1533.307     1487.282      618.458        0.776        0.182      108.369       11.216        0.011      351.131       32.809      860.067
06/30/2014  16:20:00       69.149     -147.409       -7.277       41.811       48.142       31.248     1748.132     2317.653      976.420        1.580        0.252      162.823       20.853        0.016      351.232       32.983      860.040
06/30/2014  16:21:00       33.502      -10.513       28.286       25.716       34.772       30.357      661.332     1209.083      921.555        0.241        0.140       35.112       21.216        0.365      351.603       33.632      860.018
06/30/2014  16:22:00       39.740       85.597       -7.266       52.315       52.577       38.364     2736.908     2764.349     1471.773        0.796        0.349       94.372       36.362        0.148      351.392       33.265      860.031
06/30/2014  16:23:00      101.167       68.237        7.969       69.712       61.567       49.347     4859.821     3790.550     2435.101        1.302        0.554      122.029       28.705        0.055      351.470       33.399      860.028
06/30/2014  16:24:00      143.429      114.420       54.327       92.264       83.552       60.632     8512.660     6980.857     3676.197        2.789        0.958      183.477       43.515        0.056      351.544       33.528      860.008
06/30/2014  16:25:00      213.708       87.248       32.161      111.412       62.028       57.425    12412.732     3847.518     3297.640        3.693        0.978      230.832       32.340        0.020      351.488       33.428      860.005
06/30/2014  16:26:00      112.608       -3.032       24.109       58.983       51.504       42.369     3479.007     2652.635     1795.161        1.060        0.396      112.649       35.645        0.100      351.275       33.062      860.004
06/30/2014  16:27:00       71.141        1.773       46.422       68.691       69.658       41.577     4718.400     4852.253     1728.607        0.926        0.565       71.163       33.748        0.225      351.214       32.954      859.976
06/30/2014  16:28:00       57.296       78.266      101.288       80.245       68.530       56.702     6439.270     4696.384     3215.148        1.701        0.718       96.997       42.512        0.192      351.149       32.839      859.957
06/30/2014  16:29:00       11.890       31.406       25.889       33.885       25.131       29.856     1148.176      631.564      891.366        0.223        0.134       33.581       18.135        0.292      351.123       32.796      859.966
06/30/2014  16:30:00       16.182       34.012       -3.315       32.764       23.286       19.655     1073.505      542.252      386.320        0.172        0.100       37.665       15.211        0.163      351.412       33.300      859.960
06/30/2014  16:31:00       32.377       24.017       30.453       42.794       29.523       24.809     1831.313      871.579      615.493        0.293        0.166       40.312       16.830        0.174      351.301       33.105      859.951
06/30/2014  16:32:00       39.869       44.007        7.495       40.620       38.401       34.008     1649.963     1474.602     1156.559        0.393        0.214       59.381       24.607        0.172      351.143       32.831      859.939
06/30/2014  16:33:00       18.032      119.590        5.462       76.299       62.883       37.813     5821.479     3954.305     1429.810        1.293        0.560      120.942       31.535        0.068      351.493       33.440      859.939
06/30/2014  16:34:00       76.132      103.356       10.288       93.158       72.330       53.294     8678.496     5231.588     2840.272        1.666        0.838      128.369       40.546        0.100      351.563       33.561      859.942
06/30/2014  16:35:00       77.738      126.728       14.415       73.743       69.819       60.449     5438.074     4874.680     3654.038        1.814        0.698      148.672       50.847        0.117      351.561       33.558      859.936
06/30/2014  16:36:00       42.716       67.486       -3.849       81.491       51.264       35.389     6640.787     2627.960     1252.396        0.846        0.526       79.869       31.472        0.155      351.596       33.619      859.936
06/30/2014  16:37:00      -24.285      184.533      -38.080       76.615       97.899       31.934     5869.856     9584.271     1019.758        2.628        0.824      186.124       35.079        0.036      351.396       33.270      859.906
06/30/2014  16:38:00        6.918      249.767      -17.331       97.800      153.929       60.322     9564.889    23693.984     3638.719        4.981        1.845      249.862       67.560        0.073      351.765       33.913      859.888
06/30/2014  16:39:00      130.270      176.809       -4.978      115.467      102.665       69.460    13332.652    10540.036     4824.757        3.847        1.435      219.617       56.405        0.066      351.589       33.605      859.901
06/30/2014  16:40:00      181.754      110.927       19.330      125.697       98.055       71.534    15799.846     9614.719     5117.140        3.812        1.527      212.931       46.629        0.048      351.514       33.475      859.915
06/30/2014  16:41:00      125.682      114.062       13.737      109.075       66.226       65.243    11897.294     4385.846     4256.664        2.476        1.027      169.724       43.203        0.065      351.481       33.419      859.918
06/30/2014  16:42:00      102.158      109.239       -4.444      102.724       71.232       46.834    10552.294     5074.013     2193.452        2.010        0.891      149.564       44.396        0.088      351.478       33.412      859.922
06/30/2014  16:43:00       37.794       50.207       12.922       31.190       40.375       34.591      972.844     1630.129     1196.532        0.396        0.190       62.842       26.178        0.174      351.577       33.588      859.917
06/30/2014  16:44:00       59.931       66.630        6.215       41.937       36.765       29.780     1758.720     1351.653      886.864        0.603        0.200       89.618       20.688        0.053      351.399       33.275      859.922
06/30/2014  16:45:00       30.138      113.268       -0.253       60.086       79.764       36.056     3610.274     6362.281     1300.006        1.250        0.564      117.209       31.484        0.072      351.483       33.422      859.917
06/30/2014  16:46:00      118.971       90.627        8.153       58.796       54.898       41.480     3457.028     3013.823     1720.577        1.531        0.410      149.557       23.344        0.024      351.494       33.442      859.905
06/30/2014  16:47:00      124.884      100.603       22.854      123.938       74.517       57.000    15360.650     5552.713     3248.958        2.520        1.208      160.365       39.652        0.061      351.626       33.672      859.900
06/30/2014  16:48:00      129.052      193.726      -14.303      139.947       97.956       58.212    19585.051     9595.373     3388.668        4.347        1.628      232.774       61.791        0.070      351.650       33.710      859.886
06/30/2014  16:49:00       36.730      221.467      -17.609       66.973      108.546       62.809     4485.443    11782.228     3944.994        3.546        1.011      224.492       70.496        0.099      351.484       33.422      859.881
06/30/2014  16:50:00       35.805      172.449      -14.621       69.991       98.989       54.122     4898.680     9798.854     2929.163        2.443        0.881      176.126       59.782        0.115      351.506       33.461      859.872
06/30/2014  16:51:00       19.362       94.990        5.200       82.763       79.856       46.272     6849.775     6377.053     2141.093        1.239        0.768       96.943       50.215        0.268      351.676       33.758      859.865
06/30/2014  16:52:00       58.755      150.497       -4.386      105.602      112.660       50.246    11151.693    12692.288     2524.632        2.624        1.318      161.560       40.975        0.064      351.723       33.839      859.867
06/30/2014  16:53:00      175.526      167.023       21.862      109.563       89.112       92.991    12003.995     7940.983     8647.356        4.388        1.430      242.293       66.430        0.075      351.536       33.513      859.846
06/30/2014  16:54:00       63.816      212.743       -9.942       94.351      127.555       84.527     8902.126    16270.250     7144.770        4.087        1.616      222.108       85.850        0.149      351.611       33.645      859.829
06/30/2014  16:55:00       94.263      139.011        2.256      104.721       97.003       67.846    10966.557     9409.629     4603.078        2.659        1.249      167.957       55.022        0.107      351.688       33.778      859.831
06/30/2014  16:56:00      193.120      157.620       23.340      128.952      100.391       88.898    16628.495    10078.268     7902.798        4.864        1.730      249.278       65.471        0.069      351.540       33.519      859.832
06/30/2014  16:57:00      200.729      151.017       27.802      136.567       88.976       66.757    18650.642     7916.668     4456.504        4.744        1.551      251.194       40.807        0.026      351.551       33.539      859.838
06/30/2014  16:58:00      160.589      144.086        5.038      115.404       87.465       52.896    13318.075     7650.209     2798.025        3.517        1.188      215.754       34.067        0.025      351.565       33.565      859.846
06/30/2014  16:59:00      164.445      137.822       10.215       85.423       58.188       53.600     7297.064     3385.808     2872.998        2.985        0.678      214.562       30.142        0.020      351.440       33.345      859.858
06/30/2014  17:00:00       19.418      101.251       -9.098       57.455       78.920       38.291     3301.073     6228.337     1466.204        1.085        0.550      103.096       38.138        0.137      351.550       33.540      859.834
06/30/2014  17:01:00      104.923       49.130       36.931       77.401       57.607       46.817     5990.985     3318.585     2191.790        1.314        0.575      115.856       30.882        0.071      351.536       33.515      859.830
06/30/2014  17:02:00      239.686       98.846       36.620      119.339      102.855       75.999    14241.718    10579.082     5775.781        4.957        1.530      259.268       48.214        0.035      351.542       33.523      859.824
06/30/2014  17:03:00      232.839      155.185       30.758       92.527       76.058       64.363     8561.154     5784.771     4142.557        4.886        0.924      279.815       44.523        0.025      351.602       33.628      859.813
06/30/2014  17:04:00       99.958       57.344       21.213       67.195       64.919       56.327     4515.204     4214.512     3172.772        1.281        0.595      115.239       36.735        0.102      351.611       33.646      859.813
06/30/2014  17:05:00       55.391       49.123       16.949       69.508       66.405       53.292     4831.336     4409.563     2840.066        0.892        0.604       74.035       34.503        0.217      351.701       33.803      859.804
06/30/2014  17:06:00       61.226      107.022       -7.870       71.490       91.089       41.043     5110.878     8297.189     1684.534        1.518        0.755      123.298       45.487        0.136      351.524       33.492      859.786
06/30/2014  17:07:00       45.827       92.659        3.654       45.203       74.461       43.785     2043.342     5544.430     1917.157        1.010        0.475      103.373       47.588        0.212      351.636       33.689      859.769
06/30/2014  17:08:00       66.393      -12.455        1.444       50.814       34.852       29.716     2582.107     1214.679      883.018        0.462        0.234       67.551       19.850        0.086      351.330       33.157      859.758
06/30/2014  17:09:00       48.973       39.709       29.174       62.663       59.097       48.030     3926.646     3492.428     2306.866        0.727        0.486       63.049       39.822        0.399      351.572       33.577      859.747
06/30/2014  17:10:00       30.600        1.609       21.976       60.912       83.888       45.192     3710.315     7037.153     2042.284        0.710        0.639       30.643       24.843        0.657      351.821       34.014      859.732
06/30/2014  17:11:00       53.117      -15.112       32.717       87.486       74.501       47.430     7653.742     5550.404     2249.599        0.978        0.773       55.225       21.228        0.148      351.532       33.508      859.715
06/30/2014  17:12:00       65.987      -31.104       23.312       74.464       62.585       37.693     5544.865     3916.921     1420.788        0.837        0.544       72.950       36.612        0.252      351.775       33.930      859.706
06/30/2014  17:13:00      152.789       37.684       34.348       85.746      100.578       46.782     7352.370    10116.029     2188.517        2.280        0.983      157.368       45.576        0.084      351.751       33.887      859.684
06/30/2014  17:14:00      132.468       80.503       21.533      117.739       95.590       55.665    13862.589     9137.505     3098.621        2.529        1.305      155.011       30.394        0.038      351.683       33.772      859.686
06/30/2014  17:15:00      226.253      148.110       12.481      109.748       95.557       57.443    12044.697     9131.091     3299.723        4.888        1.224      270.420       43.644        0.026      351.555       33.547      859.676
06/30/2014  17:16:00      207.219      162.986       23.062      102.159       71.851       71.388    10436.553     5162.516     5096.206        4.536        1.035      263.636       53.120        0.041      351.490       33.431      859.654
06/30/2014  17:17:00      166.880      147.356       20.287      147.374       96.539       83.022    21718.954     9319.850     6892.655        4.395        1.897      222.627       60.949        0.075      351.663       33.735      859.631
06/30/2014  17:18:00      253.638      185.198       15.372      115.759       87.960       73.178    13400.167     7736.909     5355.071        6.267        1.325      314.055       48.150        0.024      351.673       33.752      859.635
06/30/2014  17:19:00      281.227      187.254       20.207       78.010       76.004       48.493     6085.566     5776.567     2351.554        6.438        0.711      337.865       30.079        0.008      351.591       33.608      859.638
06/30/2014  17:20:00      150.969       91.168        6.363       82.399       56.280       46.678     6789.597     3167.411     2178.844        2.164        0.607      176.361       23.384        0.018      351.569       33.570      859.632
06/30/2014  17:21:00       30.954      251.922      -22.844       85.600      143.098       60.245     7327.410    20477.030     3629.513        4.818        1.572      253.817       83.744        0.109      351.533       33.509      859.613
06/30/2014  17:22:00        0.544      222.862      -38.263       59.153       47.724       27.784     3499.113     2277.618      771.934        2.884        0.327      222.863       25.141        0.013      351.494       33.439      859.626
06/30/2014  17:23:00        1.538      142.307      -17.818       51.955       72.560       36.420     2699.370     5264.924     1326.381        1.493        0.465      142.315       40.175        0.080      351.551       33.541      859.619
06/30/2014  17:24:00       65.966      153.267       -3.688       59.378       97.344       61.827     3525.753     9475.891     3822.548        2.234        0.841      166.860       54.463        0.107      351.558       33.552      859.607
06/30/2014  17:25:00      108.702       85.000        9.921       81.515       65.409       44.435     6644.715     4278.377     1974.506        1.602        0.645      137.990       37.332        0.073      351.603       33.631      859.585
06/30/2014  17:26:00       15.455      222.726      -24.476       64.417      111.887       46.934     4149.571    12518.635     2202.758        3.465        0.944      223.262       56.541        0.064      351.546       33.530      859.573
06/30/2014  17:27:00       19.723      166.145      -32.922       41.675       52.836       27.721     1736.782     2791.692      768.468        1.719        0.265      167.311       27.649        0.027      351.469       33.398      859.556
06/30/2014  17:28:00       78.530       41.255        6.959       41.397       47.786       28.745     1713.747     2283.460      826.262        0.637        0.241       88.707       26.035        0.086      351.487       33.428      859.530
06/30/2014  17:29:00        9.825      118.618      -10.658       33.054       39.565       29.075     1092.561     1565.415      845.336        0.889        0.175      119.024       23.282        0.038      351.484       33.425      859.538
06/30/2014  17:30:00       22.249      111.612      -16.154       34.233       29.987       20.130     1171.928      899.230      405.224        0.784        0.124      113.808       12.498        0.012      351.607       33.639      859.534
06/30/2014  17:31:00       75.163       69.334        1.673      109.224       50.758       38.484    11929.828     2576.414     1481.011        1.322        0.799      102.258       26.352        0.066      351.758       33.901      859.521
06/30/2014  17:32:00      141.582       68.148       13.348       80.552       59.555       55.291     6488.620     3546.741     3057.058        1.898        0.655      157.129       30.261        0.037      351.777       33.935      859.498
06/30/2014  17:33:00      130.392       71.611       16.923       57.342       59.703       46.371     3288.094     3564.443     2150.294        1.571        0.450      148.762       12.827        0.007      351.753       33.893      859.494
06/30/2014  17:34:00       69.964       34.321       16.871       78.250       64.457       34.123     6123.064     4154.706     1164.385        0.890        0.572       77.929       27.899        0.128      351.756       33.898      859.487
06/30/2014  17:35:00       39.728        5.909       20.107       50.827       45.006       38.945     2583.341     2025.513     1516.704        0.407        0.306       40.166       35.158        0.766      351.137       32.820      859.481
06/30/2014  17:36:00       91.576       85.174       71.327       83.923       47.245       66.218     7043.141     2232.110     4384.873        1.719        0.683      125.063       57.790        0.214      351.229       32.980      859.468
06/30/2014  17:37:00       70.131       22.489       23.324       62.741       42.957       42.815     3936.449     1845.314     1833.115        0.679        0.381       73.648       21.116        0.082      351.562       33.561      859.470
06/30/2014  17:38:00       26.572       52.617       84.204       57.066       52.311       42.939     3256.510     2736.424     1843.748        0.920        0.392       58.946       47.331        0.645      350.926       32.452      859.462
06/30/2014  17:39:00       48.230       60.632       81.758       72.888       54.491       47.809     5312.618     2969.215     2285.748        1.163        0.528       77.475       46.467        0.360      351.216       32.956      859.456
06/30/2014  17:40:00       85.377       52.731       59.152       61.764       47.516       38.662     3814.820     2257.814     1494.759        1.057        0.378      100.349       31.308        0.097      351.127       32.803      859.450
06/30/2014  17:41:00      165.524      116.964       19.793       61.252       56.231       44.366     3751.866     3161.874     1968.319        2.517        0.444      202.679       29.619        0.021      351.526       33.494      859.439
06/30/2014  17:42:00       48.641       58.440       -2.641       62.225       33.939       29.877     3871.913     1151.881      892.665        0.585        0.296       76.034       20.465        0.072      351.620       33.663      859.429
06/30/2014  17:43:00      -11.194       48.319        4.445       39.161       21.026       26.554     1533.566      442.086      705.119        0.258        0.134       49.599       26.797        0.292      351.821       34.013      859.414
06/30/2014  17:44:00       18.277        9.315        9.046       24.520       17.084       17.293      601.226      291.860      299.055        0.085        0.060       20.514       11.429        0.310      351.490       33.436      859.409
06/30/2014  17:45:00      -14.231       40.627        6.503       44.412       32.998       31.720     1972.448     1088.882     1006.137        0.298        0.203       43.047       26.951        0.392      351.814       34.001      859.404
06/30/2014  17:46:00       59.120       18.594       37.121       63.937       56.898       28.296     4087.941     3237.423      800.666        0.667        0.406       61.975       27.342        0.195      351.352       33.195      859.392
06/30/2014  17:47:00      121.461       53.765       26.292       59.426       45.047       38.799     3531.504     2029.190     1505.398        1.270        0.353      132.829       28.939        0.047      351.534       33.511      859.382
06/30/2014  17:48:00      124.747      101.323        5.352       65.430       53.177       44.212     4281.040     2827.830     1954.673        1.746        0.453      160.712       29.402        0.033      351.658       33.727      859.370
06/30/2014  17:49:00       52.739       54.254        8.874       53.300       54.133       36.006     2840.890     2930.342     1296.436        0.643        0.353       75.664       28.872        0.146      351.690       33.785      859.363
06/30/2014  17:50:00       22.385       26.401        1.414       34.104       51.554       25.319     1163.059     2657.767      641.043        0.283        0.223       34.614       18.740        0.293      351.421       33.315      859.359
06/30/2014  17:51:00        8.449      121.875      -16.766       59.694       66.853       31.313     3563.316     4469.345      980.515        1.211        0.451      122.167       25.999        0.045      351.581       33.594      859.360
06/30/2014  17:52:00      135.077       96.201        8.930       78.441       67.111       55.838     6152.945     4503.891     3117.883        2.068        0.689      165.833       28.415        0.029      351.671       33.749      859.358
06/30/2014  17:53:00      145.211      109.250       19.462       90.158       70.393       55.962     8128.472     4955.131     3131.756        2.481        0.811      181.719       40.264        0.049      351.709       33.815      859.360
06/30/2014  17:54:00       51.575      175.685      -32.290       41.660       46.913       31.273     1735.551     2200.800      977.997        1.974        0.246      183.099       25.712        0.020      351.552       33.544      859.366
06/30/2014  17:55:00       64.758      173.810       -6.643      101.717       87.112       55.992    10346.437     7588.426     3135.079        2.776        1.053      185.482       53.632        0.084      351.613       33.650      859.359
06/30/2014  17:56:00      156.926      124.435       18.880      115.456       66.600       65.350    13330.087     4435.505     4270.666        3.125        1.102      200.274       49.859        0.062      351.595       33.618      859.346
06/30/2014  17:57:00      185.320      153.192       17.421       80.682       64.881       53.776     6509.604     4209.574     2891.908        3.586        0.681      240.439       32.228        0.018      351.531       33.504      859.358
06/30/2014  17:58:00       50.075      159.226       -7.812       61.141       67.288       47.143     3738.188     4527.675     2222.422        1.920        0.524      166.914       45.293        0.074      351.602       33.629      859.357
06/30/2014  17:59:00       26.078      161.453      -24.048       39.560       47.585       25.552     1565.031     2264.324      652.920        1.590        0.224      163.545       23.619        0.021      351.650       33.714      859.354
06/30/2014  18:00:00       19.562      166.241      -21.560       38.517       47.670       30.605     1483.598     2272.430      936.678        1.659        0.235      167.388       24.881        0.022      351.627       33.675      859.351
06/30/2014  18:01:00       37.166      155.582       -9.798       45.219       74.073       43.436     2044.713     5486.785     1886.720        1.755        0.471      159.960       45.732        0.082      351.593       33.613      859.342
06/30/2014  18:02:00        5.307      161.850      -29.319       49.017       29.850       20.990     2402.654      891.000      440.590        1.541        0.187      161.937       18.470        0.013      351.515       33.478      859.342
06/30/2014  18:03:00       60.703       95.547       -0.354       59.273       52.130       39.762     3513.308     2717.531     1581.036        1.031        0.391      113.200       34.398        0.092      351.609       33.644      859.341
06/30/2014  18:04:00       66.302       57.973       -1.201       53.490       40.998       35.938     2861.147     1680.817     1291.551        0.679        0.292       88.073       30.791        0.122      351.673       33.755      859.331
06/30/2014  18:05:00       16.647       42.417        6.762       39.832       25.380       24.376     1586.591      644.128      594.211        0.247        0.141       45.566       19.500        0.183      351.735       33.862      859.325
06/30/2014  18:06:00        8.994       75.827      -16.602       31.479       26.691       13.890      990.939      712.412      192.926        0.400        0.095       76.359        8.373        0.012      351.783       33.945      859.308
06/30/2014  18:07:00        1.129       56.247       -6.319       26.256       32.476       18.359      689.376     1054.677      337.037        0.264        0.104       56.258        7.760        0.019      351.662       33.736      859.298
06/30/2014  18:08:00       14.219       78.246      -11.575       18.324       29.994       15.936      335.752      899.625      253.960        0.397        0.074       79.527       17.853        0.050      351.621       33.663      859.282
06/30/2014  18:09:00      -19.541       44.455      -10.402       22.933       25.395       14.151      525.904      644.924      200.255        0.192        0.069       48.560       10.965        0.051      351.656       33.726      859.269
06/30/2014  18:10:00      -59.164      104.810      -12.706       41.682       40.226       22.454     1737.373     1618.095      504.164        0.925        0.193      120.356       16.742        0.019      351.673       33.754      859.265
06/30/2014  18:11:00      -65.877       62.918       -7.936       32.405       36.911       19.950     1050.054     1362.449      398.016        0.559        0.141       91.095       17.953        0.039      351.686       33.775      859.264
06/30/2014  18:12:00      -60.798       83.471      -19.753       26.610       48.220       22.652      708.075     2325.156      513.128        0.730        0.177      103.266       13.344        0.017      351.633       33.685      859.269
06/30/2014  18:13:00      -34.809       85.829       -9.376       23.015       41.198       19.927      529.695     1697.305      397.072        0.564        0.131       92.619       18.888        0.042      351.654       33.723      859.262
06/30/2014  18:14:00       -1.693      111.959      -19.397       39.025       35.442       20.143     1522.978     1256.167      405.746        0.805        0.159      111.972       19.980        0.032      351.663       33.737      859.254
06/30/2014  18:15:00       15.377       25.614       -2.027       23.923       32.335       13.461      572.317     1045.550      181.196        0.135        0.090       29.875       14.759        0.244      351.580       33.592      859.246
06/30/2014  18:16:00       13.048      -11.725        1.520       12.289       11.783        9.384      151.024      138.838       88.052        0.034        0.019       17.542        8.555        0.238      351.737       33.865      859.231
06/30/2014  18:17:00       -9.932       74.559        0.818       16.367       23.124       14.692      267.876      534.723      215.864        0.334        0.051       75.217       11.091        0.022      351.544       33.530      859.219
06/30/2014  18:18:00       27.221       91.002      -11.224       13.241       16.994       14.132      175.328      288.807      199.709        0.491        0.033       94.986        9.729        0.010      351.540       33.520      859.228
06/30/2014  18:19:00      -26.390       63.298      -19.179       46.276       52.597       24.545     2141.449     2766.460      602.453        0.529        0.276       68.578       23.535        0.118      351.642       33.701      859.218
06/30/2014  18:20:00       25.187      176.892      -13.265       57.025      111.814       49.928     3251.839    12502.377     2492.801        2.517        0.912      178.677       52.651        0.087      351.667       33.743      859.196
06/30/2014  18:21:00       73.457       45.479       36.049       69.444       61.450       53.404     4822.515     3776.141     2851.948        1.011        0.573       86.396       42.318        0.240      351.393       33.265      859.195
06/30/2014  18:22:00       68.620        6.475       11.539       43.384       53.779       40.152     1882.155     2892.203     1612.146        0.563        0.319       68.925       20.413        0.088      351.396       33.270      859.202
06/30/2014  18:23:00      175.127       98.390       36.443      107.707       86.189       54.770    11600.811     7428.477     2999.721        3.185        1.101      200.873       25.044        0.016      351.487       33.430      859.204
06/30/2014  18:24:00      228.880      159.900        9.746       61.243       65.164       52.165     3750.720     4246.395     2721.184        4.438        0.536      279.203       39.199        0.020      351.654       33.716      859.214
06/30/2014  18:25:00      172.496      124.303       25.784       98.420       84.770       68.239     9686.436     7185.915     4656.578        3.370        1.076      212.617       47.854        0.051      351.638       33.692      859.211
06/30/2014  18:26:00      191.998      111.618       34.909       78.223       55.152       49.891     6118.872     3041.779     2489.143        3.109        0.582      222.085       37.048        0.028      351.649       33.711      859.221
06/30/2014  18:27:00       50.941      -29.991       15.941       42.385       43.177       26.864     1796.526     1864.264      721.650        0.406        0.219       59.114       22.476        0.145      351.618       33.659      859.217
06/30/2014  18:28:00        7.979       10.983       35.855       18.700       19.841       16.141      349.680      393.647      260.531        0.124        0.050       13.576       11.061        0.664      351.777       33.936      859.199
06/30/2014  18:29:00        7.129       13.246       17.458       14.669       13.794       14.073      215.179      190.288      198.043        0.057        0.030       15.043       11.942        0.630      351.836       34.038      859.209
06/30/2014  18:30:00       57.207       37.874        5.955       78.292       44.120       29.827     6129.563     1946.578      889.677        0.685        0.448       68.608       28.757        0.176      351.775       33.932      859.196
06/30/2014  18:31:00      103.490       24.283       18.581       63.757       62.580       42.240     4064.957     3916.228     1784.188        1.070        0.488      106.300       31.729        0.089      351.658       33.728      859.197
06/30/2014  18:32:00      224.844      138.722       59.942      164.263      112.115       74.514    26982.424    12569.684     5552.333        5.924        2.255      264.195       46.746        0.031      351.614       33.651      859.201
06/30/2014  18:33:00      233.207      168.789       24.928      162.446      105.308       81.817    26388.777    11089.861     6694.085        6.383        2.209      287.880       66.232        0.053      351.538       33.516      859.188
06/30/2014  18:34:00      138.991      112.805        4.677      110.959      101.672       82.631    12311.978    10337.265     6827.858        3.077        1.474      179.006       57.505        0.103      351.577       33.585      859.197
06/30/2014  18:35:00      124.864       73.991       32.204      109.578       77.634       57.387    12007.428     6027.100     3293.267        2.171        1.066      145.141       18.044        0.015      351.622       33.663      859.208
06/30/2014  18:36:00      168.550       93.479       56.341      104.141       93.593       73.685    10845.412     8759.572     5429.510        3.267        1.252      192.737       49.197        0.065      351.619       33.659      859.219
06/30/2014  18:37:00      139.061      114.232       13.662       96.169       72.235       58.449     9248.511     5217.847     3416.248        2.523        0.894      179.963       42.456        0.056      351.681       33.767      859.244
06/30/2014  18:38:00      138.838      161.043        5.266      116.404       78.808       68.229    13549.876     6210.716     4655.197        3.482        1.221      212.628       59.973        0.080      351.599       33.622      859.259
06/30/2014  18:39:00      125.786       72.752       28.207      111.297       84.175       45.305    12386.966     7085.446     2052.534        2.171        1.076      145.309       23.115        0.025      351.564       33.562      859.259
06/30/2014  18:40:00      200.246      134.745       27.143       98.615       79.977       75.069     9724.825     6396.399     5635.412        4.037        1.088      241.360       51.170        0.045      351.521       33.487      859.260
06/30/2014  18:41:00      183.411       93.700       25.351       66.733       55.151       47.129     4453.262     3041.621     2221.133        2.639        0.486      205.959       13.051        0.004      351.551       33.538      859.244
06/30/2014  18:42:00      248.682      147.336       54.951      134.792       95.187       79.010    18168.992     9060.472     6242.564        6.002        1.674      289.051       31.222        0.012      351.568       33.568      859.242
06/30/2014  18:43:00      258.615      158.890       54.586      114.188      100.909       74.565    13038.985    10182.667     5559.891        6.194        1.439      303.526       41.816        0.019      351.547       33.532      859.223
06/30/2014  18:44:00      150.623       82.486       17.519      109.307       78.815       58.252    11948.079     6211.854     3393.337        2.567        1.078      171.731       32.731        0.036      351.558       33.553      859.232
06/30/2014  18:45:00       71.078      228.140      -14.474       97.072      117.241       68.991     9422.884    13745.421     4759.745        4.261        1.396      238.956       69.398        0.084      351.513       33.474      859.235
06/30/2014  18:46:00       82.370      146.054       -4.409       78.863       89.264       68.425     6219.313     7968.056     4682.027        2.350        0.943      167.679       58.719        0.123      351.509       33.466      859.238
06/30/2014  18:47:00       40.307      147.018      -16.195       70.613       78.891       54.867     4986.148     6223.774     3010.407        1.886        0.711      152.443       56.409        0.137      351.549       33.537      859.240
06/30/2014  18:48:00       45.320       96.112        5.111       55.019       63.101       39.465     3027.048     3981.683     1557.468        0.994        0.428      106.261       40.965        0.149      351.589       33.608      859.245
06/30/2014  18:49:00      107.204       88.501       -3.983       70.986       55.097       41.010     5039.032     3035.686     1681.861        1.455        0.488      139.015       32.050        0.053      351.534       33.511      859.251
06/30/2014  18:50:00       90.154       80.733       -1.140       70.788       74.046       46.884     5010.928     5482.820     2198.149        1.367        0.635      121.019       36.289        0.090      351.588       33.605      859.248
06/30/2014  18:51:00      101.779       79.415        4.418      107.399       65.969       40.913    11534.485     4351.883     1673.859        1.712        0.878      129.095       29.481        0.052      351.565       33.565      859.254
06/30/2014  18:52:00       31.161      115.341      -21.015       32.088       32.890       22.272     1029.640     1081.725      496.037        0.866        0.130      119.476       21.442        0.032      351.626       33.673      859.249
06/30/2014  18:53:00       64.109      120.401        1.970       69.375       67.455       60.385     4812.957     4550.194     3646.384        1.581        0.650      136.405       49.039        0.129      351.616       33.656      859.247
06/30/2014  18:54:00       72.985      125.031        1.614       81.232       69.628       64.821     6598.596     4848.117     4201.819        1.830        0.782      144.775       48.661        0.113      351.580       33.589      859.248
06/30/2014  18:55:00      153.916      116.896        2.628       91.818       71.310       54.253     8430.599     5085.081     2943.425        2.691        0.823      193.274       36.737        0.036      351.572       33.576      859.247
06/30/2014  18:56:00      127.070       68.209       35.160       76.063       66.422       48.531     5785.650     4411.843     2355.217        1.729        0.628      144.219       19.854        0.019      351.391       33.262      859.247
06/30/2014  18:57:00       65.066       44.767       43.759       56.134       40.437       40.547     3150.974     1635.127     1644.096        0.729        0.322       78.979       32.867        0.173      351.212       32.951      859.242
06/30/2014  18:58:00       84.693        6.200       27.212       45.510       35.109       32.204     2071.189     1232.640     1037.103        0.615        0.217       84.920       24.254        0.082      351.192       32.916      859.239
06/30/2014  18:59:00      160.999       79.621       23.992       61.221       50.664       48.409     3748.049     2566.852     2343.444        2.075        0.433      179.611       23.756        0.017      351.271       33.051      859.238
06/30/2014  19:00:00       52.681       33.321       11.264       52.358       42.774       31.390     2741.310     1829.582      985.330        0.478        0.278       62.335       12.404        0.040      351.311       33.124      859.248
06/30/2014  19:01:00       52.944       70.968        7.380       55.639       65.494       38.029     3095.710     4289.429     1446.205        0.836        0.442       88.541       33.303        0.141      351.549       33.537      859.255
06/30/2014  19:02:00      124.235       94.484       12.518       95.037       55.962       37.352     9031.951     3131.777     1395.136        1.904        0.678      156.082       31.491        0.041      351.522       33.490      859.265
06/30/2014  19:03:00       68.284      184.263      -29.003       53.888      104.571       43.242     2903.901    10935.070     1869.899        2.758        0.785      196.509       52.650        0.072      351.524       33.492      859.276
06/30/2014  19:04:00       41.693      125.874        0.765       53.647       81.758       40.693     2877.977     6684.379     1655.897        1.440        0.561      132.599       44.965        0.115      351.521       33.489      859.270
06/30/2014  19:05:00       62.488       97.460       -7.826       65.945       67.750       39.104     4348.723     4590.098     1529.150        1.196        0.523      115.772       35.341        0.093      351.550       33.540      859.264
06/30/2014  19:06:00       14.740      237.355      -38.588       35.829       81.389       33.057     1283.692     6624.192     1092.787        3.352        0.450      237.812       37.353        0.025      351.573       33.576      859.258
06/30/2014  19:07:00       34.186      123.181      -13.817       56.765       79.681       42.467     3222.209     6349.141     1803.464        1.395        0.569      127.837       43.122        0.114      351.536       33.515      859.259
06/30/2014  19:08:00       28.817      156.103      -25.977       38.850       84.632       29.848     1509.340     7162.624      890.904        1.772        0.478      158.741       42.006        0.070      351.606       33.635      859.274
06/30/2014  19:09:00       62.394       74.538        1.488       48.031       58.374       37.341     2306.934     3407.527     1394.386        0.828        0.355       97.205       33.727        0.120      351.454       33.371      859.264
06/30/2014  19:10:00      118.952       99.612       15.340       85.179       43.346       46.580     7255.539     1878.918     2169.671        1.780        0.565      155.153       24.619        0.025      351.504       33.458      859.263
06/30/2014  19:11:00       98.925       95.099       12.356       76.194       48.748       39.047     5805.472     2376.391     1524.702        1.434        0.485      137.223       27.407        0.040      351.498       33.448      859.267
06/30/2014  19:12:00       75.068      100.249       -5.468       66.447       45.094       37.741     4415.241     2033.448     1424.412        1.179        0.394      125.240       27.940        0.050      351.504       33.458      859.269
06/30/2014  19:13:00       72.704      167.497       -5.910       90.582      103.715       55.871     8205.073    10756.842     3121.582        2.773        1.104      182.596       60.793        0.111      351.530       33.503      859.269
06/30/2014  19:14:00       67.629      213.588      -16.087       67.406       85.565       60.998     4543.554     7321.308     3720.698        3.302        0.779      224.039       56.382        0.063      351.452       33.366      859.275
06/30/2014  19:15:00       34.467      168.216      -15.649       39.500       85.387       43.613     1560.229     7290.884     1902.116        2.024        0.538      171.711       51.122        0.089      351.474       33.407      859.278
06/30/2014  19:16:00       15.680      184.332      -23.335       63.969       80.657       46.134     4092.077     6505.503     2128.322        2.375        0.636      184.998       44.765        0.059      351.461       33.384      859.282
06/30/2014  19:17:00        8.175      218.036      -18.607       66.011      117.660       57.603     4357.404    13843.795     3318.143        3.473        1.076      218.189       54.351        0.062      351.448       33.361      859.283
06/30/2014  19:18:00       94.164       60.534        3.463       70.162       52.935       36.219     4922.667     2802.135     1311.810        1.079        0.452      111.943       21.509        0.037      351.370       33.224      859.294
06/30/2014  19:19:00      208.136      127.750       27.289      105.536       68.269       56.162    11137.884     4660.646     3154.179        3.967        0.948      244.214       32.300        0.017      351.335       33.162      859.288
06/30/2014  19:20:00      273.657      194.085       49.158       98.320       95.706       80.638     9666.901     9159.597     6502.428        7.015        1.266      335.495       56.052        0.028      351.368       33.217      859.279
06/30/2014  19:21:00      118.099       85.098        4.744      115.572       75.486       51.629    13356.960     5698.183     2665.562        2.146        1.086      145.564       20.686        0.020      351.303       33.107      859.304
06/30/2014  19:22:00        2.417       97.701       -5.664       36.759       50.794       23.326     1351.249     2580.072      544.085        0.703        0.224       97.731       23.039        0.056      351.305       33.112      859.340
06/30/2014  19:23:00       -4.461      153.340      -23.416       41.460       72.140       23.721     1718.917     5204.215      562.689        1.578        0.374      153.405       27.127        0.031      351.333       33.161      859.343
06/30/2014  19:24:00        4.561      220.525      -29.203       69.978       72.110       37.148     4896.964     5199.896     1379.981        3.049        0.574      220.572       38.080        0.030      351.301       33.102      859.353
06/30/2014  19:25:00       15.483       97.394      -11.056       41.973       61.204       31.152     1761.721     3745.915      970.466        0.816        0.324       98.617       31.605        0.103      351.259       33.032      859.351
06/30/2014  19:26:00       44.579      171.597      -13.716       77.636      122.342       63.047     6027.393    14967.664     3974.986        2.829        1.249      177.293       77.248        0.190      351.283       33.072      859.354
06/30/2014  19:27:00      157.508      110.911       21.979       92.556       72.134       56.708     8566.565     5203.348     3215.827        2.729        0.849      192.639       41.105        0.046      351.170       32.875      859.366
06/30/2014  19:28:00      236.956      162.997       24.169       98.223      102.369       69.780     9647.806    10479.377     4869.231        5.414        1.250      287.604       45.172        0.025      351.188       32.904      859.358
06/30/2014  19:29:00       62.449       68.963       -5.732       45.757       47.779       35.052     2093.671     2282.789     1228.668        0.715        0.280       93.036       26.831        0.083      351.091       32.738      859.378
06/30/2014  19:30:00       41.806      146.220       -8.020       68.987       76.665       43.009     4759.156     5877.537     1849.800        1.784        0.624      152.079       44.574        0.086      351.149       32.839      859.379
06/30/2014  19:31:00       82.054      193.779      -25.193       89.001       91.005       45.789     7921.109     8281.821     2096.595        3.161        0.915      210.436       52.451        0.062      351.166       32.868      859.367
06/30/2014  19:32:00       27.119      285.857      -35.235       83.502      183.786       62.932     6972.572    33777.345     3960.416        6.419        2.236      287.140       91.499        0.102      351.154       32.846      859.367
06/30/2014  19:33:00       60.525      256.508      -22.975       73.688      192.420       77.623     5429.863    37025.391     6025.302        5.923        2.424      263.552      103.983        0.156      351.102       32.755      859.378
06/30/2014  19:34:00       43.034      198.231      -10.286       73.615      101.630       69.926     5419.194    10328.710     4889.615        3.094        1.032      202.849       64.522        0.101      351.098       32.748      859.393
06/30/2014  19:35:00       14.601      262.976      -19.427       86.921      128.372       72.850     7555.277    16479.395     5307.062        4.954        1.467      263.381       72.855        0.077      351.078       32.711      859.388
06/30/2014  19:36:00       25.256      374.247      -47.814       68.171      135.192       46.095     4647.311    18276.909     2124.720        8.401        1.252      375.098       56.281        0.023      351.076       32.708      859.374
06/30/2014  19:37:00       38.334      249.832      -18.949       71.331      159.028       79.772     5088.127    25289.896     6363.641        5.049        1.837      252.756       97.174        0.148      351.073       32.703      859.395
06/30/2014  19:38:00       52.711      254.499      -30.511       76.554      122.279       59.432     5860.588    14952.042     3532.142        4.641        1.217      259.900       67.873        0.068      351.052       32.666      859.413
06/30/2014  19:39:00       54.858      227.167      -33.751       68.711      102.351       63.597     4721.268    10475.723     4044.553        3.749        0.962      233.697       63.195        0.073      351.023       32.616      859.427
06/30/2014  19:40:00       45.149      182.471       -4.231       79.699      106.075       60.010     6351.911    11251.875     3601.151        2.827        1.060      187.974       61.153        0.106      351.005       32.587      859.433
06/30/2014  19:41:00       73.261      179.527      -10.524       84.780      129.350       70.883     7187.645    16731.395     5024.431        3.332        1.447      193.900       71.212        0.135      350.983       32.546      859.447
06/30/2014  19:42:00       45.569      211.164      -21.664       60.530      139.254       49.651     3663.899    19391.677     2465.219        3.632        1.276      216.025       64.203        0.088      350.947       32.486      859.464
06/30/2014  19:43:00       59.674      118.661       -3.404       69.042       82.780       60.756     4766.814     6852.523     3691.351        1.648        0.766      132.821       51.610        0.151      350.922       32.443      859.472
06/30/2014  19:44:00      101.156      216.454        5.167       96.964      130.504       83.768     9402.026    17031.238     7017.079        4.528        1.673      238.925       86.503        0.131      350.905       32.412      859.470
06/30/2014  19:45:00       48.149      251.861      -22.623       71.272      102.084       61.946     5079.658    10421.199     3837.294        4.280        0.967      256.422       62.986        0.060      350.873       32.358      859.477
06/30/2014  19:46:00       27.594      232.106      -32.015       69.877       88.852       50.849     4882.794     7894.641     2585.664        3.551        0.768      233.740       51.685        0.049      350.834       32.289      859.499
06/30/2014  19:47:00       32.985      215.624      -19.566       76.263      116.147       57.377     5815.988    13490.117     3292.103        3.528        1.130      218.132       67.111        0.095      350.815       32.257      859.498
06/30/2014  19:48:00       44.334      139.452        7.304       86.691      111.629       65.438     7515.345    12461.120     4282.115        2.286        1.213      146.329       61.618        0.177      350.777       32.190      859.490
06/30/2014  19:49:00       39.750      213.501      -11.511       80.422      176.352       77.312     6467.623    31099.965     5977.087        4.541        2.177      217.169       96.420        0.197      350.787       32.209      859.494
06/30/2014  19:50:00       23.481      249.940      -16.060       88.087      119.812       64.657     7759.384    14354.818     4180.496        4.478        1.315      251.040       68.656        0.075      350.749       32.139      859.506
06/30/2014  19:51:00       43.267      197.824      -22.891       67.048       88.839       65.941     4495.483     7892.322     4348.271        2.913        0.837      202.501       61.868        0.093      350.737       32.121      859.505
06/30/2014  19:52:00       31.175      189.221      -14.929       70.558       89.375       49.844     4978.481     7987.938     2484.430        2.622        0.773      191.772       46.626        0.059      350.713       32.078      859.504
06/30/2014  19:53:00       39.170      146.406      -19.311       52.047       74.206       36.870     2708.857     5506.526     1359.368        1.646        0.479      151.555       35.796        0.056      350.673       32.010      859.515
06/30/2014  19:54:00       23.679      184.521      -23.399       48.757      100.249       42.688     2377.260    10049.821     1822.252        2.470        0.712      186.034       55.235        0.088      350.685       32.030      859.516
06/30/2014  19:55:00       70.099      145.478      -19.189       56.991       86.860       53.346     3247.948     7544.728     2845.763        2.004        0.682      161.486       50.546        0.098      350.621       31.921      859.523
06/30/2014  19:56:00       46.009      174.002      -16.113       59.961       91.146       58.470     3595.266     8307.598     3418.765        2.398        0.766      179.982       59.511        0.109      350.608       31.897      859.545
06/30/2014  19:57:00       45.246      161.146      -16.062       66.588       96.663       48.246     4433.976     9343.722     2327.680        2.219        0.805      167.377       50.584        0.091      350.541       31.780      859.551
06/30/2014  19:58:00       17.857      164.493      -23.263       54.034       61.869       33.712     2919.627     3827.822     1136.491        1.790        0.394      165.460       29.624        0.032      350.526       31.755      859.560
06/30/2014  19:59:00       11.972      151.908       -6.206       58.276      113.250       45.422     3396.078    12825.638     2063.116        2.077        0.914      152.379       49.357        0.105      350.501       31.711      859.574
06/30/2014  20:00:00       62.478      190.362      -22.013       65.366      150.052       50.836     4272.715    22515.491     2584.336        3.499        1.469      200.353       74.287        0.137      350.547       31.791      859.584
06/30/2014  20:01:00       29.337      242.235      -36.165       52.642       72.104       32.545     2771.161     5198.934     1059.179        3.494        0.451      244.006       31.792        0.017      350.552       31.797      859.595
06/30/2014  20:02:00       26.953      186.398      -30.007       38.061       44.131       23.062     1448.659     1947.554      531.868        2.015        0.196      188.336       18.516        0.010      350.551       31.798      859.602
06/30/2014  20:03:00        3.638      181.257      -35.392       56.040       45.852       23.940     3140.508     2102.429      573.131        1.997        0.291      181.294       16.831        0.009      350.511       31.730      859.608
06/30/2014  20:04:00       24.849      255.376      -29.372       78.720       78.432       52.805     6196.784     6151.506     2788.379        4.091        0.757      256.582       46.156        0.032      350.539       31.774      859.612
06/30/2014  20:05:00       10.186      205.416      -40.442       65.480       61.873       32.666     4287.607     3828.250     1067.039        2.656        0.459      205.669       26.186        0.016      350.498       31.703      859.607
06/30/2014  20:06:00      -14.777      157.397      -31.242       49.204       59.415       23.423     2421.020     3530.104      548.622        1.623        0.325      158.089       27.128        0.029      350.440       31.606      859.617
06/30/2014  20:07:00      -20.186      124.378      -18.581       35.812       54.349       24.463     1282.493     2953.826      598.441        1.053        0.242      126.005       27.627        0.048      350.311       31.381      859.629
06/30/2014  20:08:00      -10.907      246.154      -31.368       53.786       75.510       27.423     2892.947     5701.820      752.032        3.552        0.467      246.396       32.009        0.017      350.465       31.648      859.637
06/30/2014  20:09:00      -17.361      254.126      -26.951       68.714       83.370       37.637     4721.563     6950.562     1416.516        3.935        0.654      254.718       38.119        0.022      350.478       31.668      859.656
06/30/2014  20:10:00      -15.636      250.863      -31.490       52.439       70.756       41.649     2749.843     5006.363     1734.618        3.683        0.475      251.350       40.822        0.026      350.448       31.616      859.651
06/30/2014  20:11:00       28.079      262.081      -39.469       69.622       67.374       41.580     4847.223     4539.298     1728.862        4.107        0.556      263.581       36.266        0.019      350.462       31.639      859.654
06/30/2014  20:12:00        0.364      204.826      -23.239       73.355       78.319       48.933     5381.023     6133.796     2394.478        2.820        0.695      204.826       44.834        0.048      350.378       31.495      859.651
06/30/2014  20:13:00       13.767      230.886      -30.876       71.112       88.103       44.298     5056.954     7762.087     1962.279        3.461        0.739      231.296       44.958        0.038      350.408       31.548      859.657
06/30/2014  20:14:00       14.302      198.775      -20.796       56.474       87.320       43.986     3189.297     7624.844     1934.749        2.645        0.637      199.289       49.640        0.062      350.332       31.416      859.660
06/30/2014  20:15:00        9.209      166.998      -21.569       51.425       76.858       39.806     2644.504     5907.209     1584.507        1.929        0.507      167.252       36.176        0.047      350.350       31.448      859.654
06/30/2014  20:16:00       -8.164      272.594      -44.313       73.635       72.964       34.137     5422.044     5323.776     1165.353        4.412        0.596      272.716       32.687        0.014      350.418       31.562      859.648
06/30/2014  20:17:00      -29.205      228.694      -31.334       50.995       78.675       31.186     2600.465     6189.717      972.594        3.195        0.488      230.551       26.055        0.013      350.348       31.443      859.640
06/30/2014  20:18:00       19.966      231.866      -31.525       66.436      154.700       49.665     4413.757    23932.068     2466.637        4.298        1.541      232.724       71.610        0.095      350.291       31.345      859.655
06/30/2014  20:19:00       67.027      211.199      -29.989       63.114      105.687       48.170     3983.378    11169.795     2320.350        3.373        0.874      221.580       56.983        0.066      350.313       31.384      859.675
06/30/2014  20:20:00       31.324      166.178      -18.901       54.878       88.032       41.435     3011.599     7749.549     1716.898        2.071        0.624      169.104       41.606        0.061      350.236       31.250      859.680
06/30/2014  20:21:00       34.787      303.253      -49.774       47.680       61.436       32.110     2273.336     3774.408     1031.053        5.136        0.354      305.242       30.234        0.010      350.400       31.533      859.686
06/30/2014  20:22:00       18.472      151.255      -15.146       56.801       79.626       47.236     3226.316     6340.361     2231.258        1.762        0.590      152.379       47.652        0.098      350.241       31.259      859.697
06/30/2014  20:23:00       28.821      291.253      -47.499       66.973       48.011       37.303     4485.318     2305.036     1391.516        4.805        0.409      292.675       33.716        0.013      350.311       31.377      859.704
06/30/2014  20:24:00       -8.899      161.659      -16.243       44.998       49.947       33.306     2024.809     2494.705     1109.278        1.605        0.281      161.904       20.778        0.016      350.141       31.085      859.719
06/30/2014  20:25:00        7.523      167.880      -20.775       45.844       84.030       42.229     2101.641     7060.995     1783.263        1.981        0.547      168.049       50.874        0.092      350.169       31.134      859.719
06/30/2014  20:26:00       23.120      223.968      -35.806       53.529       53.568       35.420     2865.319     2869.491     1254.545        2.948        0.349      225.158       27.743        0.015      350.217       31.215      859.733
06/30/2014  20:27:00       15.116      210.851      -32.257       46.580       64.365       40.061     2169.679     4142.840     1604.918        2.682        0.396      211.392       37.775        0.032      350.196       31.179      859.733
06/30/2014  20:28:00       16.434      205.116      -30.638       48.806       42.196       28.516     2382.065     1780.544      813.152        2.413        0.249      205.773       21.213        0.011      350.221       31.223      859.731
06/30/2014  20:29:00       35.678      141.338        2.243       76.669       72.037       56.121     5878.120     5189.282     3149.549        1.773        0.711      145.771       55.298        0.144      350.180       31.153      859.708
06/30/2014  20:30:00       -8.428      198.073      -19.504       77.062      101.432       43.308     5938.526    10288.486     1875.592        2.889        0.905      198.253       41.705        0.044      350.163       31.122      859.718
06/30/2014  20:31:00       36.875      163.686      -25.769       47.151       60.659       35.304     2223.185     3679.551     1246.382        1.798        0.357      167.788       35.275        0.044      350.100       31.015      859.725
06/30/2014  20:32:00       48.624      154.566       -9.402       45.379       70.570       41.483     2059.283     4980.148     1720.870        1.755        0.438      162.034       40.256        0.062      350.062       30.948      859.748
06/30/2014  20:33:00       40.238      166.876      -11.737       47.262       76.960       52.932     2233.680     5922.805     2801.749        2.028        0.548      171.659       51.737        0.091      350.065       30.953      859.745
06/30/2014  20:34:00       17.658      108.271      -12.084       34.360       63.996       33.210     1180.643     4095.527     1102.871        0.928        0.319      109.701       38.601        0.124      349.904       30.675      859.746
06/30/2014  20:35:00       34.193      177.989      -33.712       45.872       77.683       31.501     2104.216     6034.677      992.302        2.156        0.457      181.243       42.149        0.054      350.035       30.900      859.737
06/30/2014  20:36:00       23.814      165.418      -20.914       37.013       50.749       25.904     1369.996     2575.492      671.040        1.649        0.231      167.123       17.439        0.011      349.955       30.762      859.739
06/30/2014  20:37:00       41.044      155.170      -25.463       45.122       42.155       25.645     2035.988     1777.018      657.662        1.544        0.224      160.507       20.579        0.016      349.930       30.720      859.745
06/30/2014  20:38:00       25.566      152.058      -13.853       50.931       90.249       48.701     2593.922     8144.908     2371.783        1.854        0.656      154.192       53.572        0.121      349.956       30.763      859.758
06/30/2014  20:39:00       29.041      166.167      -21.653       52.614       65.552       39.080     2768.190     4297.029     1527.240        1.876        0.430      168.686       39.476        0.055      349.909       30.681      859.770
06/30/2014  20:40:00       17.886      168.313      -26.011       36.688       45.228       25.366     1345.991     2045.606      643.437        1.668        0.202      169.261       22.570        0.018      349.948       30.751      859.772
06/30/2014  20:41:00       25.421      187.838      -27.649       37.424       48.529       31.065     1400.530     2355.088      965.061        2.071        0.236      189.550       28.228        0.022      349.969       30.785      859.782
06/30/2014  20:42:00      -16.154      216.360      -36.389       56.334       66.962       30.960     3173.516     4483.847      958.505        2.850        0.431      216.963       26.769        0.015      350.003       30.845      859.778
06/30/2014  20:43:00       -1.082      232.567      -33.039       50.963       73.923       37.909     2597.234     5464.617     1437.122        3.234        0.475      232.569       34.615        0.022      349.974       30.792      859.788
06/30/2014  20:44:00        1.354      150.918      -16.663       46.244       40.424       26.048     2138.526     1634.113      678.514        1.375        0.223      150.924       14.278        0.009      349.919       30.700      859.779
06/30/2014  20:45:00       -7.319      202.815      -38.684       62.294       68.393       25.823     3880.493     4677.633      666.847        2.595        0.461      202.947       31.620        0.024      350.020       30.875      859.776
06/30/2014  20:46:00      -30.486      181.351      -19.695       66.795       82.527       36.917     4461.558     6810.681     1362.839        2.342        0.632      183.895       41.473        0.051      349.915       30.689      859.778
06/30/2014  20:47:00      -24.893      237.909      -33.938       51.012       50.047       27.493     2602.229     2504.706      755.881        3.212        0.293      239.208       17.283        0.005      350.081       30.979      859.785
06/30/2014  20:48:00       -2.003      255.533      -37.011       62.671       60.834       34.840     3927.629     3700.731     1213.860        3.776        0.442      255.541       30.478        0.014      349.997       30.832      859.787
06/30/2014  20:49:00      -22.507      241.217      -36.788       52.962       51.122       28.982     2804.921     2613.474      839.943        3.315        0.313      242.265       16.782        0.005      350.036       30.900      859.803
06/30/2014  20:50:00      -14.630      174.856      -25.012       37.100       43.237       33.041     1376.401     1869.470     1091.691        1.788        0.217      175.467       23.659        0.018      349.933       30.725      859.796
06/30/2014  20:51:00       -7.290      194.302      -29.441       36.974       57.723       20.795     1367.081     3331.922      432.421        2.190        0.257      194.439       22.046        0.013      349.992       30.825      859.793
06/30/2014  20:52:00      -12.348      171.391      -28.302       61.292       58.346       32.714     3756.705     3404.234     1070.195        1.928        0.412      171.835       27.530        0.026      349.840       30.563      859.787
06/30/2014  20:53:00      -11.899      145.581      -18.732       48.079       31.091       31.434     2311.578      966.629      988.070        1.298        0.213      146.067       26.078        0.032      349.865       30.605      859.792
06/30/2014  20:54:00      -23.619      178.050      -26.152       42.512       55.869       23.596     1807.306     3121.380      556.760        1.921        0.274      179.609       17.653        0.010      349.915       30.692      859.803
06/30/2014  20:55:00      -39.207      161.362      -25.322       54.256       47.465       22.729     2943.736     2252.923      516.602        1.696        0.286      166.057       20.305        0.015      349.902       30.669      859.812
06/30/2014  20:56:00      -43.966      143.760      -18.937       47.618       42.783       26.157     2267.489     1830.368      684.187        1.387        0.239      150.333       25.583        0.029      349.826       30.540      859.826
06/30/2014  20:57:00       -3.677      128.371      -17.136       37.169       36.258       17.704     1381.513     1314.652      313.449        0.990        0.150      128.423       11.775        0.008      349.806       30.504      859.833
06/30/2014  20:58:00        5.500      156.754      -22.102       54.393       85.442       31.613     2958.637     7300.366      999.367        1.817        0.563      156.850       42.702        0.074      349.821       30.528      859.842
06/30/2014  20:59:00      -53.202      139.839      -25.491       38.376       33.228       24.282     1472.722     1104.093      589.637        1.310        0.158      149.617       17.688        0.014      349.740       30.389      859.839
06/30/2014  21:00:00      -36.614      173.999      -21.955       46.579       50.268       24.990     2169.581     2526.907      624.506        1.871        0.266      177.810       17.453        0.010      349.785       30.466      859.844
06/30/2014  21:01:00      -57.649      130.774       -7.942       41.618       65.883       32.394     1732.097     4340.597     1049.400        1.380        0.356      142.917       37.662        0.069      349.655       30.243      859.848
06/30/2014  21:02:00      -75.880       83.501      -18.264       37.431       39.405       26.061     1401.063     1552.736      679.170        0.835        0.182      112.828       19.347        0.029      349.694       30.308      859.861
06/30/2014  21:03:00      -44.966       19.985        1.568       36.491       31.721       22.090     1331.618     1006.231      487.974        0.262        0.141       49.207       18.491        0.141      349.673       30.274      859.871
06/30/2014  21:04:00      -58.836       26.960      -11.799       26.899       20.808       12.929      723.581      432.958      167.167        0.283        0.066       64.719        9.942        0.024      349.496       29.969      859.890
06/30/2014  21:05:00      -77.026        9.650      -12.248       30.077       23.090       15.112      904.606      533.147      228.365        0.392        0.083       77.629       14.289        0.034      349.379       29.763      859.905
06/30/2014  21:06:00      -37.287       -3.332       -9.503       31.945       20.753       15.546     1020.464      430.673      241.675        0.159        0.085       37.435        7.463        0.040      349.098       29.277      859.905
06/30/2014  21:07:00      -93.683      -25.695      -12.216       41.019       21.433       13.150     1682.573      459.368      172.912        0.595        0.116       97.143       13.871        0.020      348.976       29.065      859.917
06/30/2014  21:08:00      -97.607      -30.296       -8.078       33.304       24.347       18.709     1109.130      592.782      350.038        0.628        0.103      102.201       15.702        0.024      348.881       28.900      859.926
06/30/2014  21:09:00     -106.558        1.369       -6.909       58.154       25.933       22.367     3381.830      672.528      500.276        0.798        0.228      106.567       25.009        0.055      348.895       28.925      859.943
06/30/2014  21:10:00     -113.216      -23.798       -6.430       23.638       25.133       17.847      558.763      631.665      318.511        0.747        0.075      115.690       12.695        0.012      348.921       28.970      859.958
06/30/2014  21:11:00      -95.959      -19.401       -9.210       24.861       27.594       15.700      618.070      761.455      246.500        0.565        0.081       97.900       14.329        0.021      348.912       28.955      859.971
06/30/2014  21:12:00     -115.211       -4.558      -11.472       41.278       26.591       22.206     1703.914      707.101      493.095        0.816        0.145      115.301       22.998        0.040      348.914       28.959      859.975
06/30/2014  21:13:00     -111.035       21.929      -15.229       31.927       42.119       30.399     1019.353     1774.017      924.126        0.838        0.186      113.180       20.006        0.031      348.921       28.970      859.987
06/30/2014  21:14:00     -102.767      125.391      -21.695       47.841       59.081       30.888     2288.767     3490.618      954.094        1.674        0.337      162.123       31.988        0.039      348.909       28.950      859.975
06/30/2014  21:15:00      -83.578       31.462      -10.823       29.623       55.523       25.404      877.545     3082.767      645.352        0.635        0.230       89.304       21.677        0.059      348.884       28.906      859.992
06/30/2014  21:16:00      -81.424       35.531      -12.927       30.285       38.877       24.371      917.209     1511.400      593.970        0.554        0.151       88.838       14.908        0.028      348.877       28.894      859.993
06/30/2014  21:17:00     -121.955       46.661      -23.607       35.771       52.383       32.384     1279.590     2743.975     1048.713        1.134        0.254      130.577       24.835        0.036      348.940       29.003      860.003
06/30/2014  21:18:00      -64.738       -4.309       -1.658       37.071       49.065       21.396     1374.229     2407.364      457.773        0.423        0.212       64.882       19.315        0.089      348.887       28.912      860.019
06/30/2014  21:19:00     -111.293       35.977      -13.259       38.674       50.632       28.926     1495.700     2563.568      836.708        0.938        0.245      116.964       12.452        0.011      349.011       29.125      860.024
06/30/2014  21:20:00     -124.880       74.909      -23.188       43.098       39.644       27.752     1857.462     1571.613      770.190        1.297        0.210      145.624       21.437        0.022      348.931       28.988      860.042
06/30/2014  21:21:00      -99.879      113.765      -19.474       53.423       45.449       31.330     2854.034     2065.631      981.561        1.460        0.295      151.388       22.331        0.022      348.944       29.012      860.058
06/30/2014  21:22:00     -136.742      100.981      -17.185       46.237       66.448       31.517     2137.838     4415.312      993.353        1.837        0.377      169.987       26.153        0.024      348.957       29.032      860.073
06/30/2014  21:23:00     -112.877      122.652      -23.007       46.818       67.927       41.726     2191.887     4614.046     1741.066        1.843        0.427      166.688       36.754        0.049      348.994       29.094      860.092
06/30/2014  21:24:00     -119.035      139.662      -20.479       94.130      106.737       48.120     8860.381    11392.839     2315.530        2.833        1.128      183.507       64.880        0.125      349.036       29.168      860.094
06/30/2014  21:25:00     -130.802      113.371      -26.193       44.914       53.865       32.499     2017.274     2901.414     1056.187        1.831        0.299      173.096       33.878        0.038      348.981       29.074      860.112
06/30/2014  21:26:00     -148.869      146.269      -35.399       51.129       71.125       42.050     2614.137     5058.710     1768.230        2.712        0.472      208.702       38.936        0.035      349.064       29.215      860.133
06/30/2014  21:27:00     -134.177      126.252      -21.951       44.754       62.712       47.031     2002.912     3932.831     2211.941        2.128        0.407      184.236       35.678        0.038      349.001       29.106      860.143
06/30/2014  21:28:00     -102.102      125.377      -18.592       55.760       47.647       36.834     3109.133     2270.214     1356.751        1.661        0.337      161.691       40.366        0.062      348.993       29.093      860.165
06/30/2014  21:29:00     -153.282      113.993      -29.483       59.066       53.009       36.898     3488.829     2809.939     1361.473        2.251        0.383      191.023       39.001        0.042      349.068       29.222      860.173
06/30/2014  21:30:00     -172.235      129.513      -33.071       71.053       54.199       32.990     5048.501     2937.501     1088.353        2.830        0.454      215.496       21.488        0.010      349.122       29.316      860.191
06/30/2014  21:31:00     -124.082      175.630      -23.895       60.171       63.276       43.491     3620.527     4003.849     1891.452        2.816        0.476      215.040       44.614        0.043      349.057       29.203      860.212
06/30/2014  21:32:00     -134.538      147.329      -35.703       52.617       49.966       33.337     2768.510     2496.562     1111.387        2.373        0.319      199.515       33.446        0.028      349.131       29.332      860.229
06/30/2014  21:33:00     -138.827      135.209      -33.493       60.696       71.407       36.288     3683.992     5098.907     1316.842        2.439        0.505      193.790       36.683        0.036      349.135       29.337      860.255
06/30/2014  21:34:00     -150.701      124.549      -27.633       72.009       78.356       40.183     5185.349     6139.681     1614.654        2.596        0.647      195.508       40.957        0.044      349.168       29.396      860.278
06/30/2014  21:35:00     -142.345      159.000      -30.850       49.080       85.959       38.098     2408.843     7388.971     1451.493        2.887        0.562      213.408       34.434        0.026      349.196       29.444      860.295
06/30/2014  21:36:00     -137.661       87.761      -27.031       48.303       53.815       34.046     2333.177     2896.021     1159.154        1.688        0.319      163.256       33.661        0.043      349.096       29.272      860.306
06/30/2014  21:37:00     -127.642      146.552      -43.097       45.817       53.501       28.071     2099.218     2862.358      787.994        2.269        0.287      194.345       17.969        0.009      349.110       29.297      860.324
06/30/2014  21:38:00     -134.833       73.230      -23.062       51.966       84.370       41.324     2700.473     7118.379     1707.677        1.780        0.576      153.436       47.463        0.096      349.127       29.327      860.343
06/30/2014  21:39:00      -81.062       62.339       -9.378       37.168       53.441       27.365     1381.466     2855.983      748.817        0.776        0.249      102.261       28.526        0.078      349.032       29.161      860.363
06/30/2014  21:40:00     -131.118      123.407      -25.156       51.269       48.389       37.301     2628.501     2341.524     1391.365        1.971        0.318      180.059       32.393        0.032      349.137       29.343      860.390
06/30/2014  21:41:00      -72.212       86.393       -9.718       38.232       50.603       29.066     1461.684     2560.712      844.835        0.882        0.243      112.598       23.196        0.042      348.953       29.026      860.401
06/30/2014  21:42:00      -63.424       69.289      -12.065       33.023       28.508       21.945     1090.516      812.727      481.577        0.568        0.119       93.934       14.528        0.024      348.929       28.984      860.412
06/30/2014  21:43:00      -35.651       57.740       -1.368       38.576       30.052       24.107     1488.135      903.096      581.146        0.379        0.149       67.859       20.716        0.093      348.873       28.887      860.415
06/30/2014  21:44:00      -29.094       21.383       -2.351       19.192       26.611       17.188      368.348      708.161      295.432        0.134        0.069       36.106       14.235        0.155      348.890       28.917      860.439
06/30/2014  21:45:00      -42.837       16.852       -8.204       23.571       40.103       17.297      555.592     1608.267      299.185        0.232        0.123       46.032       15.131        0.108      348.954       29.029      860.447
06/30/2014  21:46:00      -48.880       33.829       -1.155       60.998       30.570       29.800     3720.764      934.538      888.049        0.454        0.277       59.445       21.348        0.129      348.824       28.802      860.438
06/30/2014  21:47:00      -58.806       15.059      -10.517       20.016       26.226       14.419      400.648      687.785      207.905        0.255        0.065       60.703       11.006        0.033      348.865       28.874      860.450
06/30/2014  21:48:00      -60.629       45.637       -4.397       42.166       31.726       30.027     1777.953     1006.549      901.618        0.473        0.184       75.886       24.183        0.102      348.912       28.954      860.452
06/30/2014  21:49:00      -30.047       -3.930        1.392       31.161       19.200       16.873      971.016      368.647      284.686        0.127        0.081       30.303       12.853        0.180      348.740       28.657      860.461
06/30/2014  21:50:00      -22.651        9.084       -0.066       20.729       17.136       10.240      429.674      293.659      104.860        0.071        0.041       24.404        9.998        0.168      348.432       28.123      860.480
06/30/2014  21:51:00      -23.919      -13.003       -8.572       18.816       13.608        8.971      354.047      185.167       80.481        0.072        0.031       27.225        7.816        0.082      348.398       28.064      860.484
06/30/2014  21:52:00      -33.508      -40.282       -0.127       21.177       13.419       15.144      448.455      180.078      229.345        0.180        0.043       52.397        2.254        0.002      348.382       28.036      860.502
06/30/2014  21:53:00      -31.139      -23.323       -0.984       13.569       14.180        6.670      184.131      201.080       44.483        0.097        0.021       38.905        2.835        0.005      348.433       28.125      860.517
06/30/2014  21:54:00      -54.330      -31.617       -4.893       20.977       18.286       14.165      440.036      334.364      200.652        0.248        0.049       62.860       10.797        0.030      348.220       27.756      860.528
06/30/2014  21:55:00      -23.751      -77.777       -1.921       14.200       33.656       11.195      201.649     1132.711      125.329        0.404        0.073       81.322       13.279        0.027      348.439       28.136      860.544
06/30/2014  21:56:00      -40.279     -125.095       -7.165       21.598       24.706       18.112      466.492      610.372      328.059        0.936        0.070      131.419        9.687        0.005      348.553       28.332      860.557
06/30/2014  21:57:00      -24.600      -85.863        2.908       19.265       18.805       18.859      371.124      353.613      355.677        0.453        0.054       89.317       11.242        0.016      348.487       28.220      860.563
06/30/2014  21:58:00      -17.928      -63.745        2.143       19.392       36.839       15.295      376.032     1357.080      233.947        0.318        0.098       66.218        7.960        0.014      348.401       28.071      860.576
06/30/2014  21:59:00      -32.230      -71.428       -6.520       21.110       29.056       17.533      445.638      844.262      307.422        0.389        0.080       78.363       15.981        0.042      348.432       28.121      860.569
06/30/2014  22:00:00      -26.280      -43.614       11.312       37.432       29.208       24.300     1401.137      853.132      590.482        0.278        0.142       50.920       18.573        0.133      348.332       27.951      860.571
06/30/2014  22:01:00      -31.974      -46.293       -0.681       29.512       30.148       13.825      870.946      908.896      191.131        0.257        0.099       56.261        5.877        0.011      348.332       27.951      860.579
06/30/2014  22:02:00      -33.856      -23.723        1.474       49.673       40.555       21.640     2467.414     1644.743      468.268        0.315        0.229       41.340       25.573        0.383      348.182       27.691      860.577
06/30/2014  22:03:00      -19.450      -13.309       18.374       34.469       26.955       17.295     1188.092      726.584      299.113        0.155        0.111       23.568       16.602        0.496      348.107       27.561      860.593
06/30/2014  22:04:00      -30.155       -9.197        6.811       33.549       13.809       13.659     1125.546      190.695      186.564        0.127        0.075       31.527        9.780        0.096      347.871       27.154      860.587
06/30/2014  22:05:00      -59.684       -9.635       -0.964       13.309       15.343        8.988      177.123      235.416       80.777        0.207        0.025       60.457        9.783        0.026      348.177       27.681      860.582
06/30/2014  22:06:00      -57.467        7.699        5.230       16.049       11.050        8.151      257.557      122.107       66.438        0.192        0.022       57.981        6.595        0.013      348.162       27.657      860.589
06/30/2014  22:07:00      -57.017      -34.954       -0.832       19.456       17.428       10.931      378.530      303.744      119.489        0.264        0.040       66.878        9.288        0.019      348.063       27.485      860.585
06/30/2014  22:08:00      -74.749      -37.107      -11.871       10.235       10.079       10.970      104.755      101.592      120.333        0.372        0.016       83.453        5.781        0.005      348.039       27.444      860.595
06/30/2014  22:09:00      -68.489      -31.541       -9.667       10.030        7.016        8.863      100.591       49.228       78.544        0.300        0.011       75.403        2.879        0.001      347.939       27.272      860.597
06/30/2014  22:10:00      -77.907      -37.263      -14.111       14.563       12.866        9.005      212.082      165.531       81.095        0.406        0.023       86.360        6.570        0.006      348.056       27.473      860.591
06/30/2014  22:11:00      -93.561      -45.780      -15.359        7.955        7.701        8.248       63.283       59.306       68.026        0.564        0.010      104.161        4.289        0.002      347.986       27.353      860.600
06/30/2014  22:12:00      -65.688      -44.757      -18.665       19.872       12.239       11.919      394.897      149.804      142.062        0.368        0.034       79.486       11.096        0.019      348.027       27.425      860.603
06/30/2014  22:13:00      -79.984      -44.124      -10.285       20.188        8.660        8.071      407.535       74.988       65.145        0.450        0.027       91.348        8.327        0.008      347.874       27.160      860.596
06/30/2014  22:14:00     -106.180      -20.648      -16.804       15.335       18.891       10.900      235.155      356.878      118.814        0.635        0.036      108.169        6.001        0.003      347.789       27.013      860.605
06/30/2014  22:15:00      -97.031      -39.331      -12.712        9.101       13.488        9.067       82.832      181.938       82.211        0.574        0.017      104.700        4.662        0.002      347.732       26.915      860.602
06/30/2014  22:16:00      -85.677      -28.844      -17.383        8.881       11.556       10.056       78.870      133.539      101.118        0.439        0.016       90.402        5.552        0.004      347.832       27.089      860.608
06/30/2014  22:17:00     -102.584      -24.176      -16.365       13.062       12.118        9.946      170.619      146.854       98.932        0.590        0.021      105.394        4.046        0.001      347.758       26.961      860.599
06/30/2014  22:18:00     -123.881      -51.728      -18.340       15.822       18.282       13.224      250.346      334.222      174.875        0.956        0.038      134.247        7.521        0.003      347.695       26.849      860.586
06/30/2014  22:19:00     -126.159      -41.342      -17.287       14.910       14.440       12.488      222.315      208.503      155.961        0.926        0.029      132.761        9.872        0.006      347.657       26.783      860.588
06/30/2014  22:20:00      -83.266      -36.471       -6.949       19.503       24.096       14.918      380.379      580.640      222.537        0.475        0.059       90.903       12.052        0.018      347.538       26.579      860.588
06/30/2014  22:21:00      -89.852      -40.560      -11.196       19.970       21.840       14.893      398.816      476.986      221.810        0.547        0.055       98.582        7.469        0.006      347.381       26.310      860.587
06/30/2014  22:22:00      -91.537      -25.398      -10.299       22.679       18.833       14.648      514.336      354.681      214.559        0.511        0.054       94.995       14.573        0.024      347.400       26.343      860.578
06/30/2014  22:23:00      -76.044      -27.234       -6.367       26.089       27.935       14.581      680.646      780.340      212.597        0.412        0.084       80.774       15.849        0.039      347.359       26.271      860.582
06/30/2014  22:24:00      -63.975      -26.264       -1.097       18.786       19.656       15.035      352.898      386.363      226.063        0.287        0.048       69.156        9.955        0.021      347.435       26.402      860.572
06/30/2014  22:25:00      -62.821       -4.712       -5.331       30.180       20.680       15.247      910.830      427.663      232.465        0.278        0.079       62.997       15.598        0.061      347.340       26.239      860.575
06/30/2014  22:26:00      -78.256       10.265      -12.989       15.843       20.858       13.124      251.002      435.063      172.230        0.363        0.043       78.926        9.161        0.013      347.733       26.916      860.574
06/30/2014  22:27:00      -74.396        1.499      -10.120       20.048       19.545       14.543      401.903      382.017      211.487        0.332        0.050       74.411       13.240        0.032      347.714       26.884      860.573
06/30/2014  22:28:00      -53.303        3.272       -5.160       29.225       18.251       15.776      854.072      333.116      248.869        0.216        0.072       53.403       18.260        0.117      347.685       26.833      860.588
06/30/2014  22:29:00      -76.424       11.068      -10.791       21.039       19.169       13.965      442.651      367.447      195.031        0.354        0.050       77.221       10.458        0.018      347.907       27.215      860.579
06/30/2014  22:30:00      -90.758        7.140      -13.580       23.052       19.294        9.969      531.396      372.246       99.374        0.474        0.050       91.039        5.872        0.004      347.644       26.762      860.582
06/30/2014  22:31:00      -71.472       -5.903       -6.160       33.179       25.077       15.017     1100.830      628.856      225.502        0.357        0.098       71.716       16.735        0.054      347.440       26.410      860.570
06/30/2014  22:32:00      -90.920       -1.520       -4.710       43.233       25.913       21.706     1869.119      671.496      471.155        0.565        0.151       90.932       23.102        0.065      347.592       26.672      860.575
06/30/2014  22:33:00      -89.574      -13.770       -6.068       26.572       19.613       16.017      706.095      384.676      256.534        0.480        0.067       90.626       14.472        0.026      347.491       26.498      860.583
06/30/2014  22:34:00      -93.351      -28.223       -2.263       21.006       21.242       13.842      441.255      451.234      191.591        0.530        0.054       97.524        9.873        0.010      347.454       26.435      860.578
06/30/2014  22:35:00      -76.343      -13.827        1.724       30.586       25.530       14.841      935.507      651.786      220.241        0.391        0.090       77.585       15.157        0.038      347.307       26.181      860.586
06/30/2014  22:36:00      -77.142      -25.167        5.481       38.888       23.248       15.471     1512.276      540.491      239.340        0.445        0.115       81.144       10.035        0.015      347.198       25.994      860.586
06/30/2014  22:37:00      -77.398      -26.346        2.934       21.307       17.238       12.006      453.992      297.159      144.134        0.379        0.045       81.759       10.063        0.015      347.274       26.124      860.590
06/30/2014  22:38:00      -80.348      -38.946        1.653       30.905       17.529       12.210      955.104      307.254      149.078        0.469        0.071       89.289       11.449        0.016      347.150       25.912      860.589
06/30/2014  22:39:00      -48.384      -36.447        4.820       40.104       29.909       15.378     1608.328      894.577      236.482        0.322        0.137       60.576       19.639        0.105      347.073       25.777      860.596
06/30/2014  22:40:00      -92.053      -73.663       -6.330       37.621       23.626       18.028     1415.357      558.187      325.004        0.812        0.115      117.898       15.019        0.016      347.139       25.894      860.587
06/30/2014  22:41:00      -97.572      -77.339       -7.371       30.666       30.475       20.155      940.432      928.700      406.222        0.892        0.114      124.505       19.386        0.024      347.180       25.963      860.579
06/30/2014  22:42:00     -102.780      -82.439       -5.131       37.476       24.799       21.638     1404.458      614.974      468.224        0.994        0.124      131.757       16.544        0.016      347.094       25.815      860.576
06/30/2014  22:43:00     -116.628      -75.914       -0.696       46.565       34.919       26.961     2168.333     1219.339      726.878        1.174        0.206      139.158       26.429        0.036      347.128       25.872      860.558
06/30/2014  22:44:00     -138.233      -80.087      -10.870       32.143       24.806       21.488     1033.173      615.335      461.722        1.387        0.106      159.757       11.412        0.005      347.221       26.033      860.559
06/30/2014  22:45:00     -119.163      -73.414       -7.796       31.850       22.127       16.368     1014.435      489.622      267.902        1.071        0.089      139.962       14.599        0.011      347.107       25.836      860.552
06/30/2014  22:46:00     -114.115      -65.267        1.896       55.062       37.516       24.983     3031.831     1407.434      624.145        1.117        0.253      131.461       25.186        0.037      347.125       25.868      860.546
06/30/2014  22:47:00     -166.909      -80.486       -3.646       38.113       24.581       20.778     1452.637      604.229      431.724        1.842        0.124      185.301       20.008        0.012      347.205       26.006      860.559
06/30/2014  22:48:00     -117.016      -35.729       -1.965       44.774       38.161       20.266     2004.734     1456.279      410.699        0.942        0.194      122.349       15.100        0.015      347.183       25.967      860.557
06/30/2014  22:49:00      -64.419      -46.287        7.990       46.848       34.981       22.711     2194.729     1223.690      515.782        0.514        0.197       79.324       23.092        0.085      347.070       25.773      860.565
06/30/2014  22:50:00     -112.969      -78.839        1.498       38.220       29.285       23.927     1460.793      857.623      572.512        1.093        0.145      137.759       22.177        0.026      347.150       25.912      860.557
06/30/2014  22:51:00      -91.999      -53.010        4.176       44.435       26.656       22.910     1974.474      710.544      524.856        0.725        0.160      106.179       19.091        0.032      347.015       25.679      860.556
06/30/2014  22:52:00      -84.338      -75.218       -7.647       56.959       33.839       26.231     3244.343     1145.053      688.050        0.895        0.254      113.007       17.586        0.024      346.975       25.609      860.549
06/30/2014  22:53:00     -145.139      -82.752       -0.713       46.341       22.373       20.958     2147.505      500.566      439.235        1.550        0.154      167.072       22.320        0.018      347.154       25.919      860.542
06/30/2014  22:54:00     -144.989      -66.704        1.196       26.458       28.597       19.789      700.035      817.785      391.618        1.369        0.095      159.597       14.999        0.009      347.135       25.885      860.541
06/30/2014  22:55:00     -131.553      -35.420       -0.667       31.215       23.769       19.630      974.350      564.960      385.344        1.024        0.096      136.238       17.529        0.017      347.062       25.760      860.537
06/30/2014  22:56:00     -105.997      -21.852        1.495       44.365       28.662       23.646     1968.245      821.498      559.123        0.753        0.167      108.226       25.546        0.056      347.054       25.745      860.546
06/30/2014  22:57:00     -141.613      -23.339       -9.300       23.783       22.514       15.764      565.630      506.885      248.490        1.100        0.066      143.523       13.507        0.009      347.157       25.923      860.541
06/30/2014  22:58:00     -141.400       -2.745       -8.499       51.401       36.639       23.564     2642.108     1342.425      555.249        1.231        0.227      141.427       22.900        0.026      347.254       26.090      860.549
06/30/2014  22:59:00     -169.138       19.758      -11.262       31.837       22.478       17.685     1013.602      505.264      312.776        1.548        0.092      170.288       13.971        0.007      347.424       26.383      860.550
06/30/2014  23:00:00     -152.435       13.303      -11.831       24.377       18.898       12.228      594.224      357.149      149.525        1.233        0.055      153.014       12.346        0.007      347.617       26.717      860.562
06/30/2014  23:01:00     -103.713       -8.198       -6.845       20.773       20.510       10.703      431.528      420.664      114.551        0.592        0.048      104.036        6.083        0.003      347.440       26.412      860.569
06/30/2014  23:02:00     -131.293      -52.809       -9.407       37.659       31.205       14.607     1418.185      973.765      213.357        1.136        0.130      141.516        9.664        0.005      347.011       25.671      860.571
06/30/2014  23:03:00     -158.029      -72.077       -3.873       23.213       18.435       16.484      538.835      339.849      271.731        1.567        0.058      173.690       10.540        0.004      346.873       25.433      860.580
06/30/2014  23:04:00     -125.633      -30.659        1.352       47.229       36.875       18.707     2230.560     1359.730      349.935        1.033        0.197      129.320       21.788        0.028      346.997       25.647      860.569
06/30/2014  23:05:00      -74.567       -8.513        6.585       45.555       25.664       18.028     2075.273      658.649      325.013        0.437        0.153       75.051       15.678        0.044      346.873       25.433      860.574
06/30/2014  23:06:00      -40.249       -7.585        3.006       45.341       20.515       14.900     2055.775      420.853      222.019        0.219        0.135       40.957       19.742        0.232      346.797       25.302      860.569
06/30/2014  23:07:00      -37.239      -10.411        5.807       38.521       17.932       15.314     1483.894      321.560      234.523        0.178        0.102       38.667       11.197        0.084      346.822       25.345      860.559
06/30/2014  23:08:00      -67.275      -25.881        3.895       27.756       21.221       13.480      770.380      450.331      181.708        0.331        0.070       72.081       10.886        0.023      346.901       25.482      860.567
06/30/2014  23:09:00     -118.631      -35.905       -3.638       22.722       22.236       13.071      516.278      494.457      170.848        0.828        0.059      123.945        9.539        0.006      347.002       25.655      860.561
06/30/2014  23:10:00     -149.297      -52.199       -6.979       19.787       20.649       12.965      391.507      426.361      168.094        1.302        0.049      158.159       12.117        0.006      346.902       25.483      860.555
06/30/2014  23:11:00     -102.228      -37.711       -5.482       33.664       25.058       14.595     1133.285      627.902      213.010        0.694        0.099      108.961       17.606        0.026      346.831       25.361      860.566
06/30/2014  23:12:00     -100.749      -34.309       -8.909       16.178       17.057       11.374      261.718      290.956      129.372        0.604        0.034      106.431        4.697        0.002      346.793       25.297      860.572
06/30/2014  23:13:00     -110.931      -17.417      -12.787       14.248       15.337       10.158      203.013      235.224      103.194        0.666        0.027      112.290        9.385        0.007      346.852       25.398      860.578
06/30/2014  23:14:00      -88.587       -9.842      -11.062       28.379       18.722       13.794      805.377      350.500      190.279        0.471        0.067       89.132       13.936        0.024      346.791       25.292      860.586
06/30/2014  23:15:00      -97.058      -25.196       -9.466       13.106       12.417       11.799      171.768      154.179      139.226        0.530        0.023      100.275        9.365        0.009      346.659       25.064      860.579
06/30/2014  23:16:00      -81.199      -31.665       -9.608       22.860       22.298       15.550      522.577      497.187      241.795        0.447        0.063       87.154       16.866        0.037      346.640       25.034      860.581
06/30/2014  23:17:00     -100.449      -61.044       -6.921       24.028       25.567       18.532      577.355      653.668      343.450        0.772        0.079      117.543        9.037        0.006      346.550       24.878      860.566
06/30/2014  23:18:00     -110.792      -29.122      -12.917       21.632       20.288       15.009      467.959      411.616      225.258        0.720        0.055      114.555       11.186        0.010      346.536       24.855      860.552
06/30/2014  23:19:00     -112.440       -8.776       -8.733       38.245       28.785       21.779     1462.643      828.559      474.344        0.778        0.138      112.782       19.512        0.030      346.459       24.721      860.545
06/30/2014  23:20:00      -85.598        9.328      -14.320       37.599       24.699       19.135     1413.671      610.060      366.130        0.500        0.119       86.105       14.635        0.029      346.564       24.902      860.531
06/30/2014  23:21:00      -90.532        2.419       -9.863       35.076       33.450       23.016     1230.360     1118.927      529.715        0.559        0.144       90.564       16.555        0.033      346.658       25.064      860.524
06/30/2014  23:22:00      -82.592      -43.716       -5.957       24.130       38.830       19.378      582.258     1507.757      375.500        0.562        0.123       93.448       11.407        0.015      346.478       24.755      860.527
06/30/2014  23:23:00     -109.649      -40.664       -1.502       27.232       33.645       17.534      741.556     1132.011      307.445        0.793        0.109      116.946       15.683        0.018      346.431       24.672      860.525
06/30/2014  23:24:00     -110.175      -48.624       -8.939       22.139       25.145       17.057      490.122      632.277      290.929        0.800        0.071      120.427       11.903        0.010      346.381       24.587      860.524
06/30/2014  23:25:00     -120.535      -40.673       -5.079       16.468       17.952       10.473      271.210      322.282      109.684        0.846        0.035      127.212        5.845        0.002      346.383       24.590      860.543
06/30/2014  23:26:00      -97.548      -41.371       -1.956       24.464       19.296       14.381      598.494      372.326      206.818        0.620        0.059      105.959        9.247        0.008      346.368       24.566      860.537
06/30/2014  23:27:00      -65.713      -42.517       -7.310       26.384       23.793       13.964      696.111      566.094      194.990        0.382        0.073       78.268        8.725        0.012      346.388       24.599      860.535
06/30/2014  23:28:00      -59.066      -15.033       -6.208       16.568       20.506       12.079      274.487      420.499      145.906        0.230        0.042       60.949        8.832        0.021      346.375       24.578      860.541
06/30/2014  23:29:00      -69.269       -0.768       -7.051       38.238       24.351       15.907     1462.136      592.949      253.044        0.358        0.115       69.273       19.523        0.079      346.362       24.554      860.552
06/30/2014  23:30:00     -106.526       17.942      -14.844       30.262       22.939       16.951      915.786      526.187      287.346        0.681        0.086      108.026       16.911        0.025      346.339       24.516      860.546
06/30/2014  23:31:00      -99.103        3.452      -12.990       35.929       27.281       19.531     1290.897      744.267      381.463        0.621        0.121       99.163       14.781        0.022      346.287       24.425      860.548
06/30/2014  23:32:00     -112.356      -12.298      -14.001       44.463       35.225       23.718     1976.985     1240.787      562.564        0.838        0.189      113.027       22.672        0.040      346.246       24.356      860.538
06/30/2014  23:33:00     -152.166       14.431      -14.486       51.522       41.759       24.638     2654.555     1743.776      607.022        1.429        0.250      152.849       16.985        0.012      346.240       24.345      860.517
06/30/2014  23:34:00     -130.812      -31.001       -9.625       42.783       48.350       27.450     1830.411     2337.683      753.524        1.154        0.246      134.436       22.045        0.027      346.168       24.222      860.521
06/30/2014  23:35:00     -138.772      -19.057      -10.843       57.413       52.182       35.489     3296.222     2722.989     1259.499        1.351        0.364      140.074       31.358        0.050      346.097       24.097      860.518
06/30/2014  23:36:00      -93.671       -4.911        6.134       60.181       49.217       33.334     3621.703     2422.300     1111.128        0.799        0.358       93.800       36.240        0.149      346.074       24.060      860.513
06/30/2014  23:37:00      -88.547       -8.395        0.975       53.738       53.451       28.313     2887.797     2857.037      801.644        0.723        0.327       88.944       27.385        0.095      346.052       24.022      860.514
06/30/2014  23:38:00     -108.453      -47.439       -5.255       64.417       48.116       29.658     4149.600     2315.190      879.601        1.069        0.367      118.375       34.450        0.085      346.101       24.105      860.520
06/30/2014  23:39:00      -85.913      -42.657       10.816       52.890       45.459       27.947     2797.367     2066.559      781.019        0.748        0.282       95.920       25.924        0.073      346.034       23.992      860.523
06/30/2014  23:40:00     -138.822      -57.704       -8.486       63.108       39.095       23.179     3982.606     1528.454      537.284        1.436        0.302      150.338       27.564        0.034      346.041       24.002      860.543
06/30/2014  23:41:00     -118.140      -34.011       -6.823       28.863       41.540       25.194      833.050     1725.564      634.722        0.918        0.160      122.939       15.643        0.016      346.034       23.992      860.528
06/30/2014  23:42:00      -93.232      -44.871        3.483       32.268       26.624       19.862     1041.200      708.842      394.512        0.643        0.107      103.468       16.167        0.024      346.075       24.061      860.537
06/30/2014  23:43:00     -115.491      -57.994        2.891       50.750       37.584       23.753     2575.578     1412.589      564.186        1.063        0.228      129.235       23.161        0.032      346.085       24.078      860.549
06/30/2014  23:44:00     -135.252      -55.266        1.036       48.873       33.884       20.103     2388.609     1148.116      404.120        1.264        0.197      146.108       20.859        0.020      346.147       24.187      860.540
06/30/2014  23:45:00     -120.945      -72.000        3.438       66.677       36.001       22.974     4445.861     1296.041      527.819        1.305        0.313      140.754       25.600        0.033      346.190       24.258      860.549
06/30/2014  23:46:00     -121.604      -73.420        3.422       55.468       41.023       28.456     3076.660     1682.867      809.735        1.288        0.278      142.049       25.232        0.032      346.243       24.350      860.553
06/30/2014  23:47:00     -136.965      -52.352       -3.474       40.327       31.799       20.468     1626.251     1011.184      418.949        1.228        0.153      146.629       16.237        0.012      346.180       24.242      860.539
06/30/2014  23:48:00     -157.200      -52.581       -2.628       49.915       33.392       21.044     2491.474     1115.031      442.869        1.577        0.202      165.761       23.399        0.020      346.174       24.230      860.542
06/30/2014  23:49:00     -134.201      -39.777       -3.370       27.200       36.541       19.903      739.818     1335.260      396.143        1.104        0.124      139.972       16.213        0.013      346.160       24.206      860.558
06/30/2014  23:50:00      -60.000      -25.418       -0.154       39.493       29.954       22.190     1559.733      897.228      492.411        0.360        0.147       65.162       19.661        0.091      346.138       24.170      860.559
06/30/2014  23:51:00      -84.709      -67.776        3.552       43.613       34.534       23.757     1902.051     1192.590      564.410        0.772        0.183      108.486       17.169        0.025      346.109       24.119      860.579
06/30/2014  23:52:00     -133.402      -77.795       -1.861       31.205       23.144       19.571      973.749      535.633      383.020        1.287        0.095      154.429       16.556        0.011      346.133       24.161      860.590
06/30/2014  23:53:00     -148.402      -74.918      -12.616       28.771       18.853       17.176      827.760      355.432      295.001        1.464        0.074      166.241       14.480        0.008      346.193       24.265      860.591
06/30/2014  23:54:00     -160.585      -56.455      -12.020       24.739       28.189       16.558      612.029      794.603      274.154        1.540        0.084      170.220       12.880        0.006      346.112       24.125      860.592
06/30/2014  23:55:00     -157.920      -57.414       -2.086       37.655       24.676       16.037     1417.863      608.916      257.186        1.526        0.114      168.033       12.335        0.005      346.043       24.008      860.581
06/30/2014  23:56:00     -142.884      -44.592       -1.420       48.342       36.476       21.409     2336.925     1330.475      458.366        1.327        0.206      149.681       18.949        0.016      345.995       23.925      860.581
06/30/2014  23:57:00      -51.421      -18.141       18.042       61.908       38.638       24.928     3832.559     1492.857      621.381        0.462        0.297       54.527       29.660        0.296      345.802       23.595      860.587
06/30/2014  23:58:00        0.053        2.527       16.957       15.086       12.436       14.360      227.578      154.666      206.206        0.044        0.029        2.527        7.401        8.577      345.309       22.747      860.594
06/30/2014  23:59:00      -70.172      -15.257       -1.309       45.278       30.610       13.129     2050.127      936.996      172.371        0.416        0.158       71.811       17.714        0.061      345.608       23.262      860.601
